<?xml version="1.0" encoding="UTF-8" standalone="no" ?>
<gpx xmlns="http://www.topografix.com/GPX/1/1" xmlns:xsi="http://www.w3.org/2001/XMLSchema-instance" xsi:schemaLocation="http://www.topografix.com/GPX/1/1 http://www.topografix.com/GPX/1/1/gpx.xsd" version="1.1" creator="VisuGPX - https://www.visugpx.com">
  <metadata>
    <name>Paris - Achères</name>
    <desc><![CDATA[Paris - Achères]]></desc>
  </metadata>
  <trk>
    <name><![CDATA[Paris-Acheres]]></name>
    <trkseg>
      <trkpt lat="48.83717" lon="2.40237">
        <ele>45</ele>
        <time>2014-05-04T11:25:32Z</time>
      </trkpt>
      <trkpt lat="48.83711" lon="2.40233">
        <ele>45</ele>
        <time>2014-05-04T11:25:12Z</time>
      </trkpt>
      <trkpt lat="48.83809" lon="2.39967">
        <ele>56</ele>
        <time>2014-05-04T11:25:24Z</time>
      </trkpt>
      <trkpt lat="48.83893" lon="2.39737">
        <ele>57</ele>
        <time>2014-05-04T11:25:36Z</time>
      </trkpt>
      <trkpt lat="48.83918" lon="2.39662">
        <ele>58</ele>
        <time>2014-05-04T11:25:48Z</time>
      </trkpt>
      <trkpt lat="48.83918" lon="2.39662">
        <ele>58</ele>
        <time>2014-05-04T11:26:00Z</time>
      </trkpt>
      <trkpt lat="48.83918" lon="2.39657">
        <ele>58</ele>
        <time>2014-05-04T11:26:12Z</time>
      </trkpt>
      <trkpt lat="48.83925" lon="2.3963">
        <ele>58</ele>
        <time>2014-05-04T11:26:24Z</time>
      </trkpt>
      <trkpt lat="48.83931" lon="2.39611">
        <ele>58</ele>
        <time>2014-05-04T11:26:36Z</time>
      </trkpt>
      <trkpt lat="48.83931" lon="2.39611">
        <ele>58</ele>
        <time>2014-05-04T11:26:48Z</time>
      </trkpt>
      <trkpt lat="48.83941" lon="2.39594">
        <ele>58</ele>
        <time>2014-05-04T11:27:00Z</time>
      </trkpt>
      <trkpt lat="48.83942" lon="2.39598">
        <ele>58</ele>
        <time>2014-05-04T11:27:12Z</time>
      </trkpt>
      <trkpt lat="48.83944" lon="2.39602">
        <ele>58</ele>
        <time>2014-05-04T11:27:24Z</time>
      </trkpt>
      <trkpt lat="48.83949" lon="2.39607">
        <ele>58</ele>
        <time>2014-05-04T11:27:36Z</time>
      </trkpt>
      <trkpt lat="48.83956" lon="2.39611">
        <ele>58</ele>
        <time>2014-05-04T11:27:48Z</time>
      </trkpt>
      <trkpt lat="48.83964" lon="2.3961">
        <ele>58</ele>
        <time>2014-05-04T11:28:00Z</time>
      </trkpt>
      <trkpt lat="48.83971" lon="2.39606">
        <ele>59</ele>
        <time>2014-05-04T11:28:12Z</time>
      </trkpt>
      <trkpt lat="48.83971" lon="2.39606">
        <ele>59</ele>
        <time>2014-05-04T11:28:24Z</time>
      </trkpt>
      <trkpt lat="48.83976" lon="2.39598">
        <ele>59</ele>
        <time>2014-05-04T11:28:36Z</time>
      </trkpt>
      <trkpt lat="48.83979" lon="2.39589">
        <ele>59</ele>
        <time>2014-05-04T11:28:48Z</time>
      </trkpt>
      <trkpt lat="48.8398" lon="2.39578">
        <ele>59</ele>
        <time>2014-05-04T11:29:00Z</time>
      </trkpt>
      <trkpt lat="48.83978" lon="2.39567">
        <ele>59</ele>
        <time>2014-05-04T11:29:12Z</time>
      </trkpt>
      <trkpt lat="48.83973" lon="2.39557">
        <ele>59</ele>
        <time>2014-05-04T11:29:24Z</time>
      </trkpt>
      <trkpt lat="48.83968" lon="2.39551">
        <ele>57</ele>
        <time>2014-05-04T11:29:36Z</time>
      </trkpt>
      <trkpt lat="48.83974" lon="2.39528">
        <ele>57</ele>
        <time>2014-05-04T11:29:48Z</time>
      </trkpt>
      <trkpt lat="48.83974" lon="2.39528">
        <ele>57</ele>
        <time>2014-05-04T11:30:00Z</time>
      </trkpt>
      <trkpt lat="48.83983" lon="2.39495">
        <ele>57</ele>
        <time>2014-05-04T11:30:12Z</time>
      </trkpt>
      <trkpt lat="48.83992" lon="2.39439">
        <ele>56</ele>
        <time>2014-05-04T11:30:24Z</time>
      </trkpt>
      <trkpt lat="48.84029" lon="2.39275">
        <ele>50</ele>
        <time>2014-05-04T11:30:36Z</time>
      </trkpt>
      <trkpt lat="48.84101" lon="2.38944">
        <ele>49</ele>
        <time>2014-05-04T11:30:48Z</time>
      </trkpt>
      <trkpt lat="48.84128" lon="2.38828">
        <ele>42</ele>
        <time>2014-05-04T11:31:00Z</time>
      </trkpt>
      <trkpt lat="48.84148" lon="2.38753">
        <ele>43</ele>
        <time>2014-05-04T11:31:12Z</time>
      </trkpt>
      <trkpt lat="48.84159" lon="2.38723">
        <ele>43</ele>
        <time>2014-05-04T11:31:24Z</time>
      </trkpt>
      <trkpt lat="48.84185" lon="2.38665">
        <ele>45</ele>
        <time>2014-05-04T11:31:36Z</time>
      </trkpt>
      <trkpt lat="48.8421" lon="2.3861">
        <ele>41</ele>
        <time>2014-05-04T11:31:48Z</time>
      </trkpt>
      <trkpt lat="48.8421" lon="2.3861">
        <ele>41</ele>
        <time>2014-05-04T11:32:00Z</time>
      </trkpt>
      <trkpt lat="48.84324" lon="2.3837">
        <ele>40</ele>
        <time>2014-05-04T11:32:12Z</time>
      </trkpt>
      <trkpt lat="48.84392" lon="2.3823">
        <ele>40</ele>
        <time>2014-05-04T11:32:24Z</time>
      </trkpt>
      <trkpt lat="48.84451" lon="2.3811">
        <ele>37</ele>
        <time>2014-05-04T11:32:36Z</time>
      </trkpt>
      <trkpt lat="48.84513" lon="2.37978">
        <ele>39</ele>
        <time>2014-05-04T11:32:48Z</time>
      </trkpt>
      <trkpt lat="48.84523" lon="2.37957">
        <ele>38</ele>
        <time>2014-05-04T11:33:00Z</time>
      </trkpt>
      <trkpt lat="48.84523" lon="2.37957">
        <ele>38</ele>
        <time>2014-05-04T11:33:12Z</time>
      </trkpt>
      <trkpt lat="48.84533" lon="2.37937">
        <ele>38</ele>
        <time>2014-05-04T11:33:24Z</time>
      </trkpt>
      <trkpt lat="48.84591" lon="2.37816">
        <ele>39</ele>
        <time>2014-05-04T11:33:36Z</time>
      </trkpt>
      <trkpt lat="48.8459" lon="2.37813">
        <ele>39</ele>
        <time>2014-05-04T11:33:48Z</time>
      </trkpt>
      <trkpt lat="48.8459" lon="2.3781">
        <ele>39</ele>
        <time>2014-05-04T11:34:00Z</time>
      </trkpt>
      <trkpt lat="48.84591" lon="2.37806">
        <ele>39</ele>
        <time>2014-05-04T11:34:12Z</time>
      </trkpt>
      <trkpt lat="48.84628" lon="2.37739">
        <ele>43</ele>
        <time>2014-05-04T11:34:24Z</time>
      </trkpt>
      <trkpt lat="48.84639" lon="2.37717">
        <ele>43</ele>
        <time>2014-05-04T11:34:36Z</time>
      </trkpt>
      <trkpt lat="48.84662" lon="2.37672">
        <ele>42</ele>
        <time>2014-05-04T11:34:48Z</time>
      </trkpt>
      <trkpt lat="48.84662" lon="2.37672">
        <ele>42</ele>
        <time>2014-05-04T11:35:00Z</time>
      </trkpt>
      <trkpt lat="48.84728" lon="2.37534">
        <ele>39</ele>
        <time>2014-05-04T11:35:12Z</time>
      </trkpt>
      <trkpt lat="48.84863" lon="2.37253">
        <ele>39</ele>
        <time>2014-05-04T11:35:24Z</time>
      </trkpt>
      <trkpt lat="48.84913" lon="2.37152">
        <ele>38</ele>
        <time>2014-05-04T11:35:36Z</time>
      </trkpt>
      <trkpt lat="48.84925" lon="2.3713">
        <ele>42</ele>
        <time>2014-05-04T11:35:48Z</time>
      </trkpt>
      <trkpt lat="48.84949" lon="2.37096">
        <ele>42</ele>
        <time>2014-05-04T11:36:00Z</time>
      </trkpt>
      <trkpt lat="48.84976" lon="2.37072">
        <ele>41</ele>
        <time>2014-05-04T11:36:12Z</time>
      </trkpt>
      <trkpt lat="48.84976" lon="2.37072">
        <ele>41</ele>
        <time>2014-05-04T11:36:24Z</time>
      </trkpt>
      <trkpt lat="48.85002" lon="2.3705">
        <ele>41</ele>
        <time>2014-05-04T11:36:36Z</time>
      </trkpt>
      <trkpt lat="48.85102" lon="2.37007">
        <ele>49</ele>
        <time>2014-05-04T11:36:48Z</time>
      </trkpt>
      <trkpt lat="48.85178" lon="2.36972">
        <ele>48</ele>
        <time>2014-05-04T11:37:00Z</time>
      </trkpt>
      <trkpt lat="48.85201" lon="2.36959">
        <ele>40</ele>
        <time>2014-05-04T11:37:12Z</time>
      </trkpt>
      <trkpt lat="48.85207" lon="2.36963">
        <ele>44</ele>
        <time>2014-05-04T11:37:24Z</time>
      </trkpt>
      <trkpt lat="48.85227" lon="2.36952">
        <ele>44</ele>
        <time>2014-05-04T11:37:36Z</time>
      </trkpt>
      <trkpt lat="48.85259" lon="2.3694">
        <ele>44</ele>
        <time>2014-05-04T11:37:48Z</time>
      </trkpt>
      <trkpt lat="48.85259" lon="2.3694">
        <ele>44</ele>
        <time>2014-05-04T11:38:00Z</time>
      </trkpt>
      <trkpt lat="48.85278" lon="2.36934">
        <ele>44</ele>
        <time>2014-05-04T11:38:12Z</time>
      </trkpt>
      <trkpt lat="48.85292" lon="2.36933">
        <ele>44</ele>
        <time>2014-05-04T11:38:24Z</time>
      </trkpt>
      <trkpt lat="48.85297" lon="2.36945">
        <ele>43</ele>
        <time>2014-05-04T11:38:36Z</time>
      </trkpt>
      <trkpt lat="48.85305" lon="2.36953">
        <ele>43</ele>
        <time>2014-05-04T11:38:48Z</time>
      </trkpt>
      <trkpt lat="48.85311" lon="2.36975">
        <ele>42</ele>
        <time>2014-05-04T11:39:00Z</time>
      </trkpt>
      <trkpt lat="48.85311" lon="2.36975">
        <ele>42</ele>
        <time>2014-05-04T11:39:12Z</time>
      </trkpt>
      <trkpt lat="48.85305" lon="2.36953">
        <ele>43</ele>
        <time>2014-05-04T11:39:24Z</time>
      </trkpt>
      <trkpt lat="48.85308" lon="2.36955">
        <ele>43</ele>
        <time>2014-05-04T11:39:36Z</time>
      </trkpt>
      <trkpt lat="48.85315" lon="2.36958">
        <ele>43</ele>
        <time>2014-05-04T11:39:48Z</time>
      </trkpt>
      <trkpt lat="48.85322" lon="2.36957">
        <ele>43</ele>
        <time>2014-05-04T11:40:00Z</time>
      </trkpt>
      <trkpt lat="48.85329" lon="2.36955">
        <ele>43</ele>
        <time>2014-05-04T11:40:12Z</time>
      </trkpt>
      <trkpt lat="48.85336" lon="2.36948">
        <ele>43</ele>
        <time>2014-05-04T11:40:24Z</time>
      </trkpt>
      <trkpt lat="48.85338" lon="2.36947">
        <ele>43</ele>
        <time>2014-05-04T11:40:36Z</time>
      </trkpt>
      <trkpt lat="48.8536" lon="2.36963">
        <ele>43</ele>
        <time>2014-05-04T11:40:48Z</time>
      </trkpt>
      <trkpt lat="48.8536" lon="2.36963">
        <ele>43</ele>
        <time>2014-05-04T11:41:00Z</time>
      </trkpt>
      <trkpt lat="48.85396" lon="2.36981">
        <ele>41</ele>
        <time>2014-05-04T11:41:12Z</time>
      </trkpt>
      <trkpt lat="48.85442" lon="2.37002">
        <ele>41</ele>
        <time>2014-05-04T11:41:24Z</time>
      </trkpt>
      <trkpt lat="48.85543" lon="2.37049">
        <ele>45</ele>
        <time>2014-05-04T11:41:36Z</time>
      </trkpt>
      <trkpt lat="48.8582" lon="2.37171">
        <ele>41</ele>
        <time>2014-05-04T11:41:48Z</time>
      </trkpt>
      <trkpt lat="48.8582" lon="2.37171">
        <ele>41</ele>
        <time>2014-05-04T11:42:00Z</time>
      </trkpt>
      <trkpt lat="48.86017" lon="2.37261">
        <ele>40</ele>
        <time>2014-05-04T11:42:12Z</time>
      </trkpt>
      <trkpt lat="48.86057" lon="2.37278">
        <ele>45</ele>
        <time>2014-05-04T11:42:24Z</time>
      </trkpt>
      <trkpt lat="48.86098" lon="2.37285">
        <ele>45</ele>
        <time>2014-05-04T11:42:36Z</time>
      </trkpt>
      <trkpt lat="48.86132" lon="2.37287">
        <ele>45</ele>
        <time>2014-05-04T11:42:48Z</time>
      </trkpt>
      <trkpt lat="48.86152" lon="2.37285">
        <ele>45</ele>
        <time>2014-05-04T11:43:00Z</time>
      </trkpt>
      <trkpt lat="48.86152" lon="2.37285">
        <ele>45</ele>
        <time>2014-05-04T11:43:12Z</time>
      </trkpt>
      <trkpt lat="48.86184" lon="2.37278">
        <ele>45</ele>
        <time>2014-05-04T11:43:24Z</time>
      </trkpt>
      <trkpt lat="48.86206" lon="2.37267">
        <ele>45</ele>
        <time>2014-05-04T11:43:36Z</time>
      </trkpt>
      <trkpt lat="48.86235" lon="2.37254">
        <ele>45</ele>
        <time>2014-05-04T11:43:48Z</time>
      </trkpt>
      <trkpt lat="48.86252" lon="2.37247">
        <ele>45</ele>
        <time>2014-05-04T11:44:00Z</time>
      </trkpt>
      <trkpt lat="48.86276" lon="2.37232">
        <ele>45</ele>
        <time>2014-05-04T11:44:12Z</time>
      </trkpt>
      <trkpt lat="48.8638" lon="2.37152">
        <ele>46</ele>
        <time>2014-05-04T11:44:24Z</time>
      </trkpt>
      <trkpt lat="48.86423" lon="2.37117">
        <ele>41</ele>
        <time>2014-05-04T11:44:36Z</time>
      </trkpt>
      <trkpt lat="48.86485" lon="2.37068">
        <ele>45</ele>
        <time>2014-05-04T11:44:48Z</time>
      </trkpt>
      <trkpt lat="48.86485" lon="2.37068">
        <ele>45</ele>
        <time>2014-05-04T11:45:00Z</time>
      </trkpt>
      <trkpt lat="48.86614" lon="2.36968">
        <ele>43</ele>
        <time>2014-05-04T11:45:12Z</time>
      </trkpt>
      <trkpt lat="48.86671" lon="2.36927">
        <ele>45</ele>
        <time>2014-05-04T11:45:24Z</time>
      </trkpt>
      <trkpt lat="48.86684" lon="2.36914">
        <ele>45</ele>
        <time>2014-05-04T11:45:36Z</time>
      </trkpt>
      <trkpt lat="48.86881" lon="2.36762">
        <ele>48</ele>
        <time>2014-05-04T11:45:48Z</time>
      </trkpt>
      <trkpt lat="48.86922" lon="2.36732">
        <ele>48</ele>
        <time>2014-05-04T11:46:00Z</time>
      </trkpt>
      <trkpt lat="48.87034" lon="2.36644">
        <ele>43</ele>
        <time>2014-05-04T11:46:12Z</time>
      </trkpt>
      <trkpt lat="48.87034" lon="2.36644">
        <ele>43</ele>
        <time>2014-05-04T11:46:24Z</time>
      </trkpt>
      <trkpt lat="48.8718" lon="2.36531">
        <ele>43</ele>
        <time>2014-05-04T11:46:36Z</time>
      </trkpt>
      <trkpt lat="48.87323" lon="2.36421">
        <ele>43</ele>
        <time>2014-05-04T11:46:48Z</time>
      </trkpt>
      <trkpt lat="48.87383" lon="2.36375">
        <ele>45</ele>
        <time>2014-05-04T11:47:00Z</time>
      </trkpt>
      <trkpt lat="48.8741" lon="2.36354">
        <ele>46</ele>
        <time>2014-05-04T11:47:12Z</time>
      </trkpt>
      <trkpt lat="48.87427" lon="2.36349">
        <ele>46</ele>
        <time>2014-05-04T11:47:24Z</time>
      </trkpt>
      <trkpt lat="48.87439" lon="2.36347">
        <ele>46</ele>
        <time>2014-05-04T11:47:36Z</time>
      </trkpt>
      <trkpt lat="48.87455" lon="2.3635">
        <ele>46</ele>
        <time>2014-05-04T11:47:48Z</time>
      </trkpt>
      <trkpt lat="48.87455" lon="2.3635">
        <ele>46</ele>
        <time>2014-05-04T11:48:00Z</time>
      </trkpt>
      <trkpt lat="48.87477" lon="2.36359">
        <ele>46</ele>
        <time>2014-05-04T11:48:12Z</time>
      </trkpt>
      <trkpt lat="48.87493" lon="2.36371">
        <ele>46</ele>
        <time>2014-05-04T11:48:24Z</time>
      </trkpt>
      <trkpt lat="48.87555" lon="2.36425">
        <ele>43</ele>
        <time>2014-05-04T11:48:36Z</time>
      </trkpt>
      <trkpt lat="48.87652" lon="2.3651">
        <ele>47</ele>
        <time>2014-05-04T11:48:48Z</time>
      </trkpt>
      <trkpt lat="48.87775" lon="2.36617">
        <ele>48</ele>
        <time>2014-05-04T11:49:00Z</time>
      </trkpt>
      <trkpt lat="48.87943" lon="2.36759">
        <ele>58</ele>
        <time>2014-05-04T11:49:12Z</time>
      </trkpt>
      <trkpt lat="48.87943" lon="2.36764">
        <ele>58</ele>
        <time>2014-05-04T11:49:24Z</time>
      </trkpt>
      <trkpt lat="48.87922" lon="2.36778">
        <ele>-16.89</ele>
        <time>2014-05-04T11:49:32Z</time>
      </trkpt>
      <trkpt lat="48.87888" lon="2.36801">
        <ele>-27.46</ele>
        <time>2014-05-04T11:49:42Z</time>
      </trkpt>
      <trkpt lat="48.87906" lon="2.36797">
        <ele>-13.42</ele>
        <time>2014-05-04T11:50:37Z</time>
      </trkpt>
      <trkpt lat="48.87924" lon="2.36793">
        <ele>5.6</ele>
        <time>2014-05-04T11:51:05Z</time>
      </trkpt>
      <trkpt lat="48.8794" lon="2.36805">
        <ele>17.36</ele>
        <time>2014-05-04T11:52:11Z</time>
      </trkpt>
      <trkpt lat="48.87958" lon="2.36818">
        <ele>20.04</ele>
        <time>2014-05-04T11:52:16Z</time>
      </trkpt>
      <trkpt lat="48.87974" lon="2.36832">
        <ele>22.34</ele>
        <time>2014-05-04T11:52:21Z</time>
      </trkpt>
      <trkpt lat="48.87992" lon="2.36845">
        <ele>22.72</ele>
        <time>2014-05-04T11:52:25Z</time>
      </trkpt>
      <trkpt lat="48.88011" lon="2.36863">
        <ele>28.02</ele>
        <time>2014-05-04T11:52:30Z</time>
      </trkpt>
      <trkpt lat="48.88029" lon="2.36879">
        <ele>31.37</ele>
        <time>2014-05-04T11:52:35Z</time>
      </trkpt>
      <trkpt lat="48.88048" lon="2.36895">
        <ele>33.29</ele>
        <time>2014-05-04T11:52:41Z</time>
      </trkpt>
      <trkpt lat="48.88067" lon="2.36911">
        <ele>35.26</ele>
        <time>2014-05-04T11:52:46Z</time>
      </trkpt>
      <trkpt lat="48.88084" lon="2.36926">
        <ele>35.84</ele>
        <time>2014-05-04T11:52:50Z</time>
      </trkpt>
      <trkpt lat="48.88101" lon="2.3694">
        <ele>37.14</ele>
        <time>2014-05-04T11:52:53Z</time>
      </trkpt>
      <trkpt lat="48.88117" lon="2.36957">
        <ele>36.14</ele>
        <time>2014-05-04T11:52:57Z</time>
      </trkpt>
      <trkpt lat="48.88134" lon="2.36977">
        <ele>37.21</ele>
        <time>2014-05-04T11:53:01Z</time>
      </trkpt>
      <trkpt lat="48.8814" lon="2.37003">
        <ele>40.61</ele>
        <time>2014-05-04T11:53:42Z</time>
      </trkpt>
      <trkpt lat="48.8816" lon="2.37001">
        <ele>42.27</ele>
        <time>2014-05-04T11:53:51Z</time>
      </trkpt>
      <trkpt lat="48.8818" lon="2.37001">
        <ele>44.2</ele>
        <time>2014-05-04T11:53:58Z</time>
      </trkpt>
      <trkpt lat="48.88197" lon="2.37013">
        <ele>45.66</ele>
        <time>2014-05-04T11:54:03Z</time>
      </trkpt>
      <trkpt lat="48.88216" lon="2.37026">
        <ele>45.05</ele>
        <time>2014-05-04T11:54:08Z</time>
      </trkpt>
      <trkpt lat="48.88237" lon="2.37029">
        <ele>45.84</ele>
        <time>2014-05-04T11:54:13Z</time>
      </trkpt>
      <trkpt lat="48.88256" lon="2.37032">
        <ele>45.91</ele>
        <time>2014-05-04T11:54:19Z</time>
      </trkpt>
      <trkpt lat="48.88273" lon="2.37042">
        <ele>49.93</ele>
        <time>2014-05-04T11:54:25Z</time>
      </trkpt>
      <trkpt lat="48.88291" lon="2.37048">
        <ele>61.17</ele>
        <time>2014-05-04T11:54:33Z</time>
      </trkpt>
      <trkpt lat="48.88307" lon="2.37066">
        <ele>65.41</ele>
        <time>2014-05-04T11:54:38Z</time>
      </trkpt>
      <trkpt lat="48.88321" lon="2.37084">
        <ele>65.17</ele>
        <time>2014-05-04T11:54:44Z</time>
      </trkpt>
      <trkpt lat="48.88339" lon="2.37097">
        <ele>67.84</ele>
        <time>2014-05-04T11:54:50Z</time>
      </trkpt>
      <trkpt lat="48.88351" lon="2.37122">
        <ele>68.99</ele>
        <time>2014-05-04T11:54:56Z</time>
      </trkpt>
      <trkpt lat="48.88361" lon="2.37149">
        <ele>70.94</ele>
        <time>2014-05-04T11:55:01Z</time>
      </trkpt>
      <trkpt lat="48.88373" lon="2.37173">
        <ele>68.15</ele>
        <time>2014-05-04T11:55:04Z</time>
      </trkpt>
      <trkpt lat="48.88386" lon="2.37192">
        <ele>66.75</ele>
        <time>2014-05-04T11:55:06Z</time>
      </trkpt>
      <trkpt lat="48.88398" lon="2.37221">
        <ele>67.88</ele>
        <time>2014-05-04T11:55:09Z</time>
      </trkpt>
      <trkpt lat="48.88414" lon="2.37244">
        <ele>67.77</ele>
        <time>2014-05-04T11:55:12Z</time>
      </trkpt>
      <trkpt lat="48.88422" lon="2.37275">
        <ele>64.37</ele>
        <time>2014-05-04T11:55:16Z</time>
      </trkpt>
      <trkpt lat="48.88433" lon="2.37303">
        <ele>62.38</ele>
        <time>2014-05-04T11:55:21Z</time>
      </trkpt>
      <trkpt lat="48.88448" lon="2.37321">
        <ele>63.85</ele>
        <time>2014-05-04T11:55:25Z</time>
      </trkpt>
      <trkpt lat="48.88463" lon="2.37342">
        <ele>64.56</ele>
        <time>2014-05-04T11:55:29Z</time>
      </trkpt>
      <trkpt lat="48.88476" lon="2.37361">
        <ele>65.23</ele>
        <time>2014-05-04T11:55:33Z</time>
      </trkpt>
      <trkpt lat="48.88489" lon="2.37383">
        <ele>63.69</ele>
        <time>2014-05-04T11:55:38Z</time>
      </trkpt>
      <trkpt lat="48.88505" lon="2.37409">
        <ele>67.83</ele>
        <time>2014-05-04T11:55:43Z</time>
      </trkpt>
      <trkpt lat="48.88517" lon="2.37433">
        <ele>70.49</ele>
        <time>2014-05-04T11:55:48Z</time>
      </trkpt>
      <trkpt lat="48.8853" lon="2.37452">
        <ele>67.42</ele>
        <time>2014-05-04T11:55:52Z</time>
      </trkpt>
      <trkpt lat="48.8854" lon="2.37479">
        <ele>65.89</ele>
        <time>2014-05-04T11:55:57Z</time>
      </trkpt>
      <trkpt lat="48.88552" lon="2.37508">
        <ele>67.4</ele>
        <time>2014-05-04T11:56:02Z</time>
      </trkpt>
      <trkpt lat="48.88565" lon="2.37533">
        <ele>69.96</ele>
        <time>2014-05-04T11:56:05Z</time>
      </trkpt>
      <trkpt lat="48.88578" lon="2.37555">
        <ele>72.26</ele>
        <time>2014-05-04T11:56:09Z</time>
      </trkpt>
      <trkpt lat="48.88585" lon="2.37583">
        <ele>68.69</ele>
        <time>2014-05-04T11:56:14Z</time>
      </trkpt>
      <trkpt lat="48.88594" lon="2.37611">
        <ele>68.43</ele>
        <time>2014-05-04T11:56:19Z</time>
      </trkpt>
      <trkpt lat="48.88605" lon="2.37634">
        <ele>70.66</ele>
        <time>2014-05-04T11:56:23Z</time>
      </trkpt>
      <trkpt lat="48.88618" lon="2.37657">
        <ele>73.68</ele>
        <time>2014-05-04T11:56:27Z</time>
      </trkpt>
      <trkpt lat="48.8863" lon="2.37679">
        <ele>72.05</ele>
        <time>2014-05-04T11:56:31Z</time>
      </trkpt>
      <trkpt lat="48.88645" lon="2.37695">
        <ele>71.17</ele>
        <time>2014-05-04T11:56:34Z</time>
      </trkpt>
      <trkpt lat="48.88648" lon="2.37725">
        <ele>69.95</ele>
        <time>2014-05-04T11:56:40Z</time>
      </trkpt>
      <trkpt lat="48.88644" lon="2.37755">
        <ele>67.65</ele>
        <time>2014-05-04T11:56:46Z</time>
      </trkpt>
      <trkpt lat="48.88659" lon="2.37777">
        <ele>69.99</ele>
        <time>2014-05-04T11:56:50Z</time>
      </trkpt>
      <trkpt lat="48.88677" lon="2.37799">
        <ele>69.57</ele>
        <time>2014-05-04T11:56:54Z</time>
      </trkpt>
      <trkpt lat="48.8869" lon="2.37818">
        <ele>69.05</ele>
        <time>2014-05-04T11:56:58Z</time>
      </trkpt>
      <trkpt lat="48.88703" lon="2.37839">
        <ele>67.89</ele>
        <time>2014-05-04T11:57:02Z</time>
      </trkpt>
      <trkpt lat="48.88719" lon="2.3786">
        <ele>63.5</ele>
        <time>2014-05-04T11:57:06Z</time>
      </trkpt>
      <trkpt lat="48.88734" lon="2.37879">
        <ele>63.67</ele>
        <time>2014-05-04T11:57:10Z</time>
      </trkpt>
      <trkpt lat="48.88748" lon="2.37897">
        <ele>64.3</ele>
        <time>2014-05-04T11:57:14Z</time>
      </trkpt>
      <trkpt lat="48.88761" lon="2.37918">
        <ele>65.7</ele>
        <time>2014-05-04T11:57:19Z</time>
      </trkpt>
      <trkpt lat="48.88767" lon="2.37946">
        <ele>65.55</ele>
        <time>2014-05-04T11:57:25Z</time>
      </trkpt>
      <trkpt lat="48.88782" lon="2.37963">
        <ele>63.77</ele>
        <time>2014-05-04T11:57:30Z</time>
      </trkpt>
      <trkpt lat="48.88798" lon="2.37978">
        <ele>68.78</ele>
        <time>2014-05-04T11:57:37Z</time>
      </trkpt>
      <trkpt lat="48.88818" lon="2.37976">
        <ele>69.4</ele>
        <time>2014-05-04T11:57:45Z</time>
      </trkpt>
      <trkpt lat="48.88838" lon="2.37979">
        <ele>75.18</ele>
        <time>2014-05-04T11:57:52Z</time>
      </trkpt>
      <trkpt lat="48.88855" lon="2.37997">
        <ele>72.4</ele>
        <time>2014-05-04T11:57:56Z</time>
      </trkpt>
      <trkpt lat="48.88872" lon="2.38015">
        <ele>71.71</ele>
        <time>2014-05-04T11:57:59Z</time>
      </trkpt>
      <trkpt lat="48.88885" lon="2.38043">
        <ele>71.37</ele>
        <time>2014-05-04T11:58:03Z</time>
      </trkpt>
      <trkpt lat="48.88883" lon="2.38072">
        <ele>68.34</ele>
        <time>2014-05-04T11:58:09Z</time>
      </trkpt>
      <trkpt lat="48.8889" lon="2.38101">
        <ele>64.37</ele>
        <time>2014-05-04T11:58:16Z</time>
      </trkpt>
      <trkpt lat="48.88902" lon="2.38121">
        <ele>63.82</ele>
        <time>2014-05-04T11:58:21Z</time>
      </trkpt>
      <trkpt lat="48.88914" lon="2.38142">
        <ele>66.99</ele>
        <time>2014-05-04T11:58:26Z</time>
      </trkpt>
      <trkpt lat="48.88928" lon="2.38164">
        <ele>69.7</ele>
        <time>2014-05-04T11:58:30Z</time>
      </trkpt>
      <trkpt lat="48.88946" lon="2.38182">
        <ele>65.12</ele>
        <time>2014-05-04T11:58:33Z</time>
      </trkpt>
      <trkpt lat="48.88962" lon="2.38202">
        <ele>60.67</ele>
        <time>2014-05-04T11:58:36Z</time>
      </trkpt>
      <trkpt lat="48.88962" lon="2.38233">
        <ele>59.39</ele>
        <time>2014-05-04T11:58:41Z</time>
      </trkpt>
      <trkpt lat="48.88977" lon="2.38249">
        <ele>57.71</ele>
        <time>2014-05-04T11:58:44Z</time>
      </trkpt>
      <trkpt lat="48.8899" lon="2.38273">
        <ele>57.55</ele>
        <time>2014-05-04T11:58:48Z</time>
      </trkpt>
      <trkpt lat="48.88999" lon="2.38298">
        <ele>57.98</ele>
        <time>2014-05-04T11:58:52Z</time>
      </trkpt>
      <trkpt lat="48.89017" lon="2.38319">
        <ele>54.66</ele>
        <time>2014-05-04T11:58:55Z</time>
      </trkpt>
      <trkpt lat="48.89034" lon="2.38339">
        <ele>53.24</ele>
        <time>2014-05-04T11:58:59Z</time>
      </trkpt>
      <trkpt lat="48.89039" lon="2.3837">
        <ele>49.38</ele>
        <time>2014-05-04T11:59:04Z</time>
      </trkpt>
      <trkpt lat="48.89051" lon="2.38391">
        <ele>49.41</ele>
        <time>2014-05-04T11:59:08Z</time>
      </trkpt>
      <trkpt lat="48.89063" lon="2.38411">
        <ele>46.54</ele>
        <time>2014-05-04T11:59:12Z</time>
      </trkpt>
      <trkpt lat="48.89076" lon="2.38433">
        <ele>43.42</ele>
        <time>2014-05-04T11:59:17Z</time>
      </trkpt>
      <trkpt lat="48.89091" lon="2.38455">
        <ele>44.61</ele>
        <time>2014-05-04T11:59:23Z</time>
      </trkpt>
      <trkpt lat="48.891" lon="2.3848">
        <ele>39.2</ele>
        <time>2014-05-04T11:59:28Z</time>
      </trkpt>
      <trkpt lat="48.89109" lon="2.38509">
        <ele>35.38</ele>
        <time>2014-05-04T11:59:33Z</time>
      </trkpt>
      <trkpt lat="48.8912" lon="2.38538">
        <ele>36.79</ele>
        <time>2014-05-04T11:59:38Z</time>
      </trkpt>
      <trkpt lat="48.89117" lon="2.38569">
        <ele>32.43</ele>
        <time>2014-05-04T11:59:42Z</time>
      </trkpt>
      <trkpt lat="48.89125" lon="2.38598">
        <ele>31.76</ele>
        <time>2014-05-04T11:59:47Z</time>
      </trkpt>
      <trkpt lat="48.89136" lon="2.3862">
        <ele>29.93</ele>
        <time>2014-05-04T11:59:52Z</time>
      </trkpt>
      <trkpt lat="48.8915" lon="2.38644">
        <ele>31.62</ele>
        <time>2014-05-04T11:59:57Z</time>
      </trkpt>
      <trkpt lat="48.89162" lon="2.38667">
        <ele>36.16</ele>
        <time>2014-05-04T12:00:03Z</time>
      </trkpt>
      <trkpt lat="48.89182" lon="2.38677">
        <ele>38.5</ele>
        <time>2014-05-04T12:00:11Z</time>
      </trkpt>
      <trkpt lat="48.89196" lon="2.38699">
        <ele>41</ele>
        <time>2014-05-04T12:00:17Z</time>
      </trkpt>
      <trkpt lat="48.89206" lon="2.38726">
        <ele>41.05</ele>
        <time>2014-05-04T12:00:23Z</time>
      </trkpt>
      <trkpt lat="48.89217" lon="2.38749">
        <ele>38.94</ele>
        <time>2014-05-04T12:00:31Z</time>
      </trkpt>
      <trkpt lat="48.89234" lon="2.38761">
        <ele>39.56</ele>
        <time>2014-05-04T12:00:41Z</time>
      </trkpt>
      <trkpt lat="48.8922" lon="2.38739">
        <ele>46.46</ele>
        <time>2014-05-04T12:01:06Z</time>
      </trkpt>
      <trkpt lat="48.8921" lon="2.38715">
        <ele>51.85</ele>
        <time>2014-05-04T12:01:10Z</time>
      </trkpt>
      <trkpt lat="48.89201" lon="2.38688">
        <ele>51.74</ele>
        <time>2014-05-04T12:01:15Z</time>
      </trkpt>
      <trkpt lat="48.89187" lon="2.3867">
        <ele>51.49</ele>
        <time>2014-05-04T12:01:22Z</time>
      </trkpt>
      <trkpt lat="48.89168" lon="2.38662">
        <ele>54.07</ele>
        <time>2014-05-04T12:01:30Z</time>
      </trkpt>
      <trkpt lat="48.89157" lon="2.38641">
        <ele>52.68</ele>
        <time>2014-05-04T12:01:37Z</time>
      </trkpt>
      <trkpt lat="48.89148" lon="2.38613">
        <ele>53.3</ele>
        <time>2014-05-04T12:01:44Z</time>
      </trkpt>
      <trkpt lat="48.89134" lon="2.38584">
        <ele>52.73</ele>
        <time>2014-05-04T12:01:49Z</time>
      </trkpt>
      <trkpt lat="48.89121" lon="2.38559">
        <ele>53.37</ele>
        <time>2014-05-04T12:01:53Z</time>
      </trkpt>
      <trkpt lat="48.89111" lon="2.38531">
        <ele>55.62</ele>
        <time>2014-05-04T12:01:59Z</time>
      </trkpt>
      <trkpt lat="48.89099" lon="2.38506">
        <ele>56.89</ele>
        <time>2014-05-04T12:02:05Z</time>
      </trkpt>
      <trkpt lat="48.89091" lon="2.38481">
        <ele>51.45</ele>
        <time>2014-05-04T12:02:31Z</time>
      </trkpt>
      <trkpt lat="48.89108" lon="2.38496">
        <ele>23.92</ele>
        <time>2014-05-04T12:03:30Z</time>
      </trkpt>
      <trkpt lat="48.89126" lon="2.38503">
        <ele>17.51</ele>
        <time>2014-05-04T12:03:34Z</time>
      </trkpt>
      <trkpt lat="48.89148" lon="2.38503">
        <ele>12.05</ele>
        <time>2014-05-04T12:03:39Z</time>
      </trkpt>
      <trkpt lat="48.89167" lon="2.38516">
        <ele>11.16</ele>
        <time>2014-05-04T12:03:44Z</time>
      </trkpt>
      <trkpt lat="48.89182" lon="2.38538">
        <ele>5.5</ele>
        <time>2014-05-04T12:03:49Z</time>
      </trkpt>
      <trkpt lat="48.89201" lon="2.3855">
        <ele>-3.02</ele>
        <time>2014-05-04T12:03:55Z</time>
      </trkpt>
      <trkpt lat="48.89231" lon="2.38535">
        <ele>-3.55</ele>
        <time>2014-05-04T12:03:59Z</time>
      </trkpt>
      <trkpt lat="48.89252" lon="2.38521">
        <ele>-5.41</ele>
        <time>2014-05-04T12:04:02Z</time>
      </trkpt>
      <trkpt lat="48.89272" lon="2.38515">
        <ele>-3.52</ele>
        <time>2014-05-04T12:04:05Z</time>
      </trkpt>
      <trkpt lat="48.89288" lon="2.38502">
        <ele>-0.9</ele>
        <time>2014-05-04T12:04:08Z</time>
      </trkpt>
      <trkpt lat="48.89306" lon="2.38485">
        <ele>-0.33</ele>
        <time>2014-05-04T12:04:11Z</time>
      </trkpt>
      <trkpt lat="48.89325" lon="2.38481">
        <ele>-0.76</ele>
        <time>2014-05-04T12:04:14Z</time>
      </trkpt>
      <trkpt lat="48.89344" lon="2.38472">
        <ele>0.07</ele>
        <time>2014-05-04T12:04:17Z</time>
      </trkpt>
      <trkpt lat="48.89369" lon="2.3846">
        <ele>5.64</ele>
        <time>2014-05-04T12:04:21Z</time>
      </trkpt>
      <trkpt lat="48.89389" lon="2.38447">
        <ele>8.11</ele>
        <time>2014-05-04T12:04:24Z</time>
      </trkpt>
      <trkpt lat="48.89407" lon="2.38432">
        <ele>8.45</ele>
        <time>2014-05-04T12:04:28Z</time>
      </trkpt>
      <trkpt lat="48.89425" lon="2.38424">
        <ele>6.85</ele>
        <time>2014-05-04T12:04:32Z</time>
      </trkpt>
      <trkpt lat="48.89447" lon="2.3841">
        <ele>12.27</ele>
        <time>2014-05-04T12:04:35Z</time>
      </trkpt>
      <trkpt lat="48.89465" lon="2.384">
        <ele>19.57</ele>
        <time>2014-05-04T12:04:38Z</time>
      </trkpt>
      <trkpt lat="48.89484" lon="2.38389">
        <ele>24.8</ele>
        <time>2014-05-04T12:04:42Z</time>
      </trkpt>
      <trkpt lat="48.89504" lon="2.38384">
        <ele>25.31</ele>
        <time>2014-05-04T12:04:46Z</time>
      </trkpt>
      <trkpt lat="48.89522" lon="2.38375">
        <ele>28.59</ele>
        <time>2014-05-04T12:04:50Z</time>
      </trkpt>
      <trkpt lat="48.89541" lon="2.38367">
        <ele>29.27</ele>
        <time>2014-05-04T12:04:55Z</time>
      </trkpt>
      <trkpt lat="48.8956" lon="2.38362">
        <ele>30.04</ele>
        <time>2014-05-04T12:05:01Z</time>
      </trkpt>
      <trkpt lat="48.89575" lon="2.38385">
        <ele>29.91</ele>
        <time>2014-05-04T12:05:08Z</time>
      </trkpt>
      <trkpt lat="48.89592" lon="2.38396">
        <ele>39.81</ele>
        <time>2014-05-04T12:05:18Z</time>
      </trkpt>
      <trkpt lat="48.89608" lon="2.38415">
        <ele>44.61</ele>
        <time>2014-05-04T12:05:28Z</time>
      </trkpt>
      <trkpt lat="48.89626" lon="2.38423">
        <ele>43.58</ele>
        <time>2014-05-04T12:05:35Z</time>
      </trkpt>
      <trkpt lat="48.89646" lon="2.38409">
        <ele>40.86</ele>
        <time>2014-05-04T12:06:16Z</time>
      </trkpt>
      <trkpt lat="48.89665" lon="2.38391">
        <ele>42.25</ele>
        <time>2014-05-04T12:06:20Z</time>
      </trkpt>
      <trkpt lat="48.89683" lon="2.38373">
        <ele>37.59</ele>
        <time>2014-05-04T12:06:24Z</time>
      </trkpt>
      <trkpt lat="48.89702" lon="2.38362">
        <ele>38.36</ele>
        <time>2014-05-04T12:06:28Z</time>
      </trkpt>
      <trkpt lat="48.89729" lon="2.38346">
        <ele>40.97</ele>
        <time>2014-05-04T12:06:32Z</time>
      </trkpt>
      <trkpt lat="48.89748" lon="2.38336">
        <ele>39.45</ele>
        <time>2014-05-04T12:06:36Z</time>
      </trkpt>
      <trkpt lat="48.89804" lon="2.38283">
        <ele>39.59</ele>
        <time>2014-05-04T12:06:48Z</time>
      </trkpt>
      <trkpt lat="48.89822" lon="2.38275">
        <ele>43.54</ele>
        <time>2014-05-04T12:06:56Z</time>
      </trkpt>
      <trkpt lat="48.89842" lon="2.38277">
        <ele>40.7</ele>
        <time>2014-05-04T12:07:02Z</time>
      </trkpt>
      <trkpt lat="48.89862" lon="2.38266">
        <ele>41.81</ele>
        <time>2014-05-04T12:07:09Z</time>
      </trkpt>
      <trkpt lat="48.89878" lon="2.38252">
        <ele>39.93</ele>
        <time>2014-05-04T12:07:17Z</time>
      </trkpt>
      <trkpt lat="48.8986" lon="2.38256">
        <ele>39.28</ele>
        <time>2014-05-04T12:07:47Z</time>
      </trkpt>
      <trkpt lat="48.89843" lon="2.38267">
        <ele>38.78</ele>
        <time>2014-05-04T12:07:51Z</time>
      </trkpt>
      <trkpt lat="48.89824" lon="2.38282">
        <ele>39.77</ele>
        <time>2014-05-04T12:07:56Z</time>
      </trkpt>
      <trkpt lat="48.89806" lon="2.38293">
        <ele>44.41</ele>
        <time>2014-05-04T12:08:02Z</time>
      </trkpt>
      <trkpt lat="48.89826" lon="2.38282">
        <ele>46.3</ele>
        <time>2014-05-04T12:10:04Z</time>
      </trkpt>
      <trkpt lat="48.89844" lon="2.38274">
        <ele>50.04</ele>
        <time>2014-05-04T12:10:09Z</time>
      </trkpt>
      <trkpt lat="48.89862" lon="2.38262">
        <ele>48.9</ele>
        <time>2014-05-04T12:10:16Z</time>
      </trkpt>
      <trkpt lat="48.8988" lon="2.38251">
        <ele>49.89</ele>
        <time>2014-05-04T12:10:23Z</time>
      </trkpt>
      <trkpt lat="48.89886" lon="2.38221">
        <ele>52.83</ele>
        <time>2014-05-04T12:10:30Z</time>
      </trkpt>
      <trkpt lat="48.89884" lon="2.38193">
        <ele>50.84</ele>
        <time>2014-05-04T12:10:35Z</time>
      </trkpt>
      <trkpt lat="48.899" lon="2.38163">
        <ele>52.43</ele>
        <time>2014-05-04T12:10:40Z</time>
      </trkpt>
      <trkpt lat="48.89891" lon="2.38137">
        <ele>54.04</ele>
        <time>2014-05-04T12:10:44Z</time>
      </trkpt>
      <trkpt lat="48.8989" lon="2.38109">
        <ele>53.45</ele>
        <time>2014-05-04T12:10:50Z</time>
      </trkpt>
      <trkpt lat="48.89907" lon="2.38093">
        <ele>52.13</ele>
        <time>2014-05-04T12:10:57Z</time>
      </trkpt>
      <trkpt lat="48.89923" lon="2.38066">
        <ele>50.91</ele>
        <time>2014-05-04T12:11:02Z</time>
      </trkpt>
      <trkpt lat="48.89923" lon="2.38037">
        <ele>50.15</ele>
        <time>2014-05-04T12:11:05Z</time>
      </trkpt>
      <trkpt lat="48.89931" lon="2.38012">
        <ele>50.58</ele>
        <time>2014-05-04T12:11:09Z</time>
      </trkpt>
      <trkpt lat="48.89935" lon="2.37983">
        <ele>50.6</ele>
        <time>2014-05-04T12:11:11Z</time>
      </trkpt>
      <trkpt lat="48.89926" lon="2.37957">
        <ele>49.08</ele>
        <time>2014-05-04T12:11:16Z</time>
      </trkpt>
      <trkpt lat="48.89903" lon="2.37931">
        <ele>50.48</ele>
        <time>2014-05-04T12:11:18Z</time>
      </trkpt>
      <trkpt lat="48.89894" lon="2.379">
        <ele>54.33</ele>
        <time>2014-05-04T12:11:20Z</time>
      </trkpt>
      <trkpt lat="48.89876" lon="2.37883">
        <ele>54.97</ele>
        <time>2014-05-04T12:11:21Z</time>
      </trkpt>
      <trkpt lat="48.89862" lon="2.37861">
        <ele>54.7</ele>
        <time>2014-05-04T12:11:23Z</time>
      </trkpt>
      <trkpt lat="48.8985" lon="2.37831">
        <ele>54.62</ele>
        <time>2014-05-04T12:11:26Z</time>
      </trkpt>
      <trkpt lat="48.89836" lon="2.37812">
        <ele>59.61</ele>
        <time>2014-05-04T12:11:28Z</time>
      </trkpt>
      <trkpt lat="48.89846" lon="2.37781">
        <ele>67.99</ele>
        <time>2014-05-04T12:11:32Z</time>
      </trkpt>
      <trkpt lat="48.89844" lon="2.37753">
        <ele>68.78</ele>
        <time>2014-05-04T12:11:35Z</time>
      </trkpt>
      <trkpt lat="48.89852" lon="2.3772">
        <ele>63.31</ele>
        <time>2014-05-04T12:11:39Z</time>
      </trkpt>
      <trkpt lat="48.8986" lon="2.37686">
        <ele>62.51</ele>
        <time>2014-05-04T12:11:44Z</time>
      </trkpt>
      <trkpt lat="48.89866" lon="2.37653">
        <ele>61.23</ele>
        <time>2014-05-04T12:11:48Z</time>
      </trkpt>
      <trkpt lat="48.89864" lon="2.37618">
        <ele>58.84</ele>
        <time>2014-05-04T12:11:52Z</time>
      </trkpt>
      <trkpt lat="48.89865" lon="2.37584">
        <ele>60.44</ele>
        <time>2014-05-04T12:11:56Z</time>
      </trkpt>
      <trkpt lat="48.89871" lon="2.37556">
        <ele>58.48</ele>
        <time>2014-05-04T12:12:00Z</time>
      </trkpt>
      <trkpt lat="48.89874" lon="2.37521">
        <ele>56.23</ele>
        <time>2014-05-04T12:12:05Z</time>
      </trkpt>
      <trkpt lat="48.89881" lon="2.3749">
        <ele>54.26</ele>
        <time>2014-05-04T12:12:10Z</time>
      </trkpt>
      <trkpt lat="48.89883" lon="2.37462">
        <ele>52.51</ele>
        <time>2014-05-04T12:12:15Z</time>
      </trkpt>
      <trkpt lat="48.89883" lon="2.37429">
        <ele>46.11</ele>
        <time>2014-05-04T12:12:20Z</time>
      </trkpt>
      <trkpt lat="48.89893" lon="2.37402">
        <ele>41.33</ele>
        <time>2014-05-04T12:12:24Z</time>
      </trkpt>
      <trkpt lat="48.89892" lon="2.3737">
        <ele>38.79</ele>
        <time>2014-05-04T12:12:29Z</time>
      </trkpt>
      <trkpt lat="48.89892" lon="2.37337">
        <ele>38.02</ele>
        <time>2014-05-04T12:12:34Z</time>
      </trkpt>
      <trkpt lat="48.89893" lon="2.37308">
        <ele>36.26</ele>
        <time>2014-05-04T12:12:38Z</time>
      </trkpt>
      <trkpt lat="48.89893" lon="2.37278">
        <ele>37.28</ele>
        <time>2014-05-04T12:12:42Z</time>
      </trkpt>
      <trkpt lat="48.8989" lon="2.37247">
        <ele>36.4</ele>
        <time>2014-05-04T12:12:46Z</time>
      </trkpt>
      <trkpt lat="48.89885" lon="2.37217">
        <ele>37.97</ele>
        <time>2014-05-04T12:12:50Z</time>
      </trkpt>
      <trkpt lat="48.8989" lon="2.37183">
        <ele>40.37</ele>
        <time>2014-05-04T12:12:55Z</time>
      </trkpt>
      <trkpt lat="48.89885" lon="2.37155">
        <ele>41.53</ele>
        <time>2014-05-04T12:12:59Z</time>
      </trkpt>
      <trkpt lat="48.89866" lon="2.3712">
        <ele>42.23</ele>
        <time>2014-05-04T12:13:02Z</time>
      </trkpt>
      <trkpt lat="48.8989" lon="2.37131">
        <ele>42.76</ele>
        <time>2014-05-04T12:13:04Z</time>
      </trkpt>
      <trkpt lat="48.89909" lon="2.37123">
        <ele>41.74</ele>
        <time>2014-05-04T12:13:11Z</time>
      </trkpt>
      <trkpt lat="48.89929" lon="2.37125">
        <ele>43.33</ele>
        <time>2014-05-04T12:13:16Z</time>
      </trkpt>
      <trkpt lat="48.8995" lon="2.37134">
        <ele>41.16</ele>
        <time>2014-05-04T12:13:21Z</time>
      </trkpt>
      <trkpt lat="48.8997" lon="2.37134">
        <ele>42.03</ele>
        <time>2014-05-04T12:13:26Z</time>
      </trkpt>
      <trkpt lat="48.89988" lon="2.37136">
        <ele>48.54</ele>
        <time>2014-05-04T12:13:32Z</time>
      </trkpt>
      <trkpt lat="48.90006" lon="2.37129">
        <ele>50.5</ele>
        <time>2014-05-04T12:13:38Z</time>
      </trkpt>
      <trkpt lat="48.90019" lon="2.37151">
        <ele>43.06</ele>
        <time>2014-05-04T12:13:44Z</time>
      </trkpt>
      <trkpt lat="48.90034" lon="2.37173">
        <ele>46.85</ele>
        <time>2014-05-04T12:13:50Z</time>
      </trkpt>
      <trkpt lat="48.90053" lon="2.37179">
        <ele>49.52</ele>
        <time>2014-05-04T12:13:55Z</time>
      </trkpt>
      <trkpt lat="48.90072" lon="2.37178">
        <ele>55.17</ele>
        <time>2014-05-04T12:13:59Z</time>
      </trkpt>
      <trkpt lat="48.90091" lon="2.37177">
        <ele>49.53</ele>
        <time>2014-05-04T12:14:07Z</time>
      </trkpt>
      <trkpt lat="48.90108" lon="2.37193">
        <ele>42.26</ele>
        <time>2014-05-04T12:14:17Z</time>
      </trkpt>
      <trkpt lat="48.90124" lon="2.37211">
        <ele>44.25</ele>
        <time>2014-05-04T12:14:26Z</time>
      </trkpt>
      <trkpt lat="48.90142" lon="2.37224">
        <ele>45.85</ele>
        <time>2014-05-04T12:14:31Z</time>
      </trkpt>
      <trkpt lat="48.90156" lon="2.37243">
        <ele>46.44</ele>
        <time>2014-05-04T12:14:35Z</time>
      </trkpt>
      <trkpt lat="48.90169" lon="2.37265">
        <ele>45.79</ele>
        <time>2014-05-04T12:14:39Z</time>
      </trkpt>
      <trkpt lat="48.90183" lon="2.37294">
        <ele>40.68</ele>
        <time>2014-05-04T12:14:44Z</time>
      </trkpt>
      <trkpt lat="48.90198" lon="2.37313">
        <ele>42.24</ele>
        <time>2014-05-04T12:14:48Z</time>
      </trkpt>
      <trkpt lat="48.90214" lon="2.37337">
        <ele>43.04</ele>
        <time>2014-05-04T12:14:53Z</time>
      </trkpt>
      <trkpt lat="48.90228" lon="2.37356">
        <ele>42.7</ele>
        <time>2014-05-04T12:14:57Z</time>
      </trkpt>
      <trkpt lat="48.90244" lon="2.37374">
        <ele>40.93</ele>
        <time>2014-05-04T12:15:01Z</time>
      </trkpt>
      <trkpt lat="48.90261" lon="2.3739">
        <ele>41.44</ele>
        <time>2014-05-04T12:15:05Z</time>
      </trkpt>
      <trkpt lat="48.9028" lon="2.37404">
        <ele>44.1</ele>
        <time>2014-05-04T12:15:09Z</time>
      </trkpt>
      <trkpt lat="48.90294" lon="2.37421">
        <ele>43.58</ele>
        <time>2014-05-04T12:15:13Z</time>
      </trkpt>
      <trkpt lat="48.90311" lon="2.37435">
        <ele>46.17</ele>
        <time>2014-05-04T12:15:17Z</time>
      </trkpt>
      <trkpt lat="48.90327" lon="2.3745">
        <ele>49.21</ele>
        <time>2014-05-04T12:15:21Z</time>
      </trkpt>
      <trkpt lat="48.90343" lon="2.37469">
        <ele>49.56</ele>
        <time>2014-05-04T12:15:24Z</time>
      </trkpt>
      <trkpt lat="48.9036" lon="2.37487">
        <ele>48.7</ele>
        <time>2014-05-04T12:15:29Z</time>
      </trkpt>
      <trkpt lat="48.90376" lon="2.37506">
        <ele>46.49</ele>
        <time>2014-05-04T12:15:33Z</time>
      </trkpt>
      <trkpt lat="48.90391" lon="2.37523">
        <ele>43.7</ele>
        <time>2014-05-04T12:15:38Z</time>
      </trkpt>
      <trkpt lat="48.90411" lon="2.37534">
        <ele>44.52</ele>
        <time>2014-05-04T12:15:43Z</time>
      </trkpt>
      <trkpt lat="48.9043" lon="2.37552">
        <ele>43.7</ele>
        <time>2014-05-04T12:15:48Z</time>
      </trkpt>
      <trkpt lat="48.90447" lon="2.37568">
        <ele>43.37</ele>
        <time>2014-05-04T12:15:52Z</time>
      </trkpt>
      <trkpt lat="48.90465" lon="2.37584">
        <ele>41.28</ele>
        <time>2014-05-04T12:15:56Z</time>
      </trkpt>
      <trkpt lat="48.90482" lon="2.37599">
        <ele>40.84</ele>
        <time>2014-05-04T12:16:00Z</time>
      </trkpt>
      <trkpt lat="48.90499" lon="2.37614">
        <ele>40.69</ele>
        <time>2014-05-04T12:16:04Z</time>
      </trkpt>
      <trkpt lat="48.90517" lon="2.37623">
        <ele>42.49</ele>
        <time>2014-05-04T12:16:08Z</time>
      </trkpt>
      <trkpt lat="48.90538" lon="2.37635">
        <ele>42.89</ele>
        <time>2014-05-04T12:16:13Z</time>
      </trkpt>
      <trkpt lat="48.90555" lon="2.37648">
        <ele>41.32</ele>
        <time>2014-05-04T12:16:17Z</time>
      </trkpt>
      <trkpt lat="48.90573" lon="2.3766">
        <ele>41.76</ele>
        <time>2014-05-04T12:16:22Z</time>
      </trkpt>
      <trkpt lat="48.90591" lon="2.37669">
        <ele>38.54</ele>
        <time>2014-05-04T12:16:28Z</time>
      </trkpt>
      <trkpt lat="48.90614" lon="2.37674">
        <ele>35.38</ele>
        <time>2014-05-04T12:16:49Z</time>
      </trkpt>
      <trkpt lat="48.90635" lon="2.37677">
        <ele>37.03</ele>
        <time>2014-05-04T12:16:53Z</time>
      </trkpt>
      <trkpt lat="48.90654" lon="2.37665">
        <ele>38.12</ele>
        <time>2014-05-04T12:16:58Z</time>
      </trkpt>
      <trkpt lat="48.90671" lon="2.37654">
        <ele>37.9</ele>
        <time>2014-05-04T12:17:04Z</time>
      </trkpt>
      <trkpt lat="48.90689" lon="2.37644">
        <ele>41.11</ele>
        <time>2014-05-04T12:17:11Z</time>
      </trkpt>
      <trkpt lat="48.90707" lon="2.37646">
        <ele>43.49</ele>
        <time>2014-05-04T12:17:27Z</time>
      </trkpt>
      <trkpt lat="48.90722" lon="2.37662">
        <ele>41.55</ele>
        <time>2014-05-04T12:17:55Z</time>
      </trkpt>
      <trkpt lat="48.90738" lon="2.3768">
        <ele>41.56</ele>
        <time>2014-05-04T12:18:02Z</time>
      </trkpt>
      <trkpt lat="48.90754" lon="2.37692">
        <ele>40.2</ele>
        <time>2014-05-04T12:18:10Z</time>
      </trkpt>
      <trkpt lat="48.90771" lon="2.37709">
        <ele>40.67</ele>
        <time>2014-05-04T12:18:16Z</time>
      </trkpt>
      <trkpt lat="48.90788" lon="2.37689">
        <ele>40.61</ele>
        <time>2014-05-04T12:19:14Z</time>
      </trkpt>
      <trkpt lat="48.90807" lon="2.37676">
        <ele>35.36</ele>
        <time>2014-05-04T12:19:18Z</time>
      </trkpt>
      <trkpt lat="48.90825" lon="2.37661">
        <ele>33.41</ele>
        <time>2014-05-04T12:19:22Z</time>
      </trkpt>
      <trkpt lat="48.90843" lon="2.37646">
        <ele>36.1</ele>
        <time>2014-05-04T12:19:26Z</time>
      </trkpt>
      <trkpt lat="48.90863" lon="2.37632">
        <ele>38.08</ele>
        <time>2014-05-04T12:19:30Z</time>
      </trkpt>
      <trkpt lat="48.90882" lon="2.37616">
        <ele>36.94</ele>
        <time>2014-05-04T12:19:35Z</time>
      </trkpt>
      <trkpt lat="48.90902" lon="2.37601">
        <ele>36.53</ele>
        <time>2014-05-04T12:19:40Z</time>
      </trkpt>
      <trkpt lat="48.90919" lon="2.37584">
        <ele>37.76</ele>
        <time>2014-05-04T12:19:45Z</time>
      </trkpt>
      <trkpt lat="48.90938" lon="2.37571">
        <ele>36.62</ele>
        <time>2014-05-04T12:19:50Z</time>
      </trkpt>
      <trkpt lat="48.90957" lon="2.37563">
        <ele>39.92</ele>
        <time>2014-05-04T12:19:54Z</time>
      </trkpt>
      <trkpt lat="48.90979" lon="2.37551">
        <ele>37.78</ele>
        <time>2014-05-04T12:19:59Z</time>
      </trkpt>
      <trkpt lat="48.90999" lon="2.37541">
        <ele>35.93</ele>
        <time>2014-05-04T12:20:04Z</time>
      </trkpt>
      <trkpt lat="48.91017" lon="2.37531">
        <ele>36.31</ele>
        <time>2014-05-04T12:20:09Z</time>
      </trkpt>
      <trkpt lat="48.91037" lon="2.37534">
        <ele>41.53</ele>
        <time>2014-05-04T12:20:16Z</time>
      </trkpt>
      <trkpt lat="48.91054" lon="2.37525">
        <ele>37.56</ele>
        <time>2014-05-04T12:20:22Z</time>
      </trkpt>
      <trkpt lat="48.91072" lon="2.37514">
        <ele>37.67</ele>
        <time>2014-05-04T12:20:27Z</time>
      </trkpt>
      <trkpt lat="48.9109" lon="2.37503">
        <ele>37.49</ele>
        <time>2014-05-04T12:20:32Z</time>
      </trkpt>
      <trkpt lat="48.91109" lon="2.37492">
        <ele>37.89</ele>
        <time>2014-05-04T12:20:37Z</time>
      </trkpt>
      <trkpt lat="48.91127" lon="2.3748">
        <ele>36.19</ele>
        <time>2014-05-04T12:20:43Z</time>
      </trkpt>
      <trkpt lat="48.91144" lon="2.37465">
        <ele>30.75</ele>
        <time>2014-05-04T12:20:51Z</time>
      </trkpt>
      <trkpt lat="48.91165" lon="2.37454">
        <ele>34.85</ele>
        <time>2014-05-04T12:20:57Z</time>
      </trkpt>
      <trkpt lat="48.91185" lon="2.37438">
        <ele>38.02</ele>
        <time>2014-05-04T12:21:00Z</time>
      </trkpt>
      <trkpt lat="48.91204" lon="2.3743">
        <ele>39.15</ele>
        <time>2014-05-04T12:21:05Z</time>
      </trkpt>
      <trkpt lat="48.91224" lon="2.37426">
        <ele>38.83</ele>
        <time>2014-05-04T12:21:09Z</time>
      </trkpt>
      <trkpt lat="48.91242" lon="2.3742">
        <ele>39.25</ele>
        <time>2014-05-04T12:21:13Z</time>
      </trkpt>
      <trkpt lat="48.91249" lon="2.37391">
        <ele>37.88</ele>
        <time>2014-05-04T12:21:18Z</time>
      </trkpt>
      <trkpt lat="48.91266" lon="2.37378">
        <ele>34.32</ele>
        <time>2014-05-04T12:21:24Z</time>
      </trkpt>
      <trkpt lat="48.91282" lon="2.37359">
        <ele>33.23</ele>
        <time>2014-05-04T12:21:29Z</time>
      </trkpt>
      <trkpt lat="48.91298" lon="2.37344">
        <ele>33.26</ele>
        <time>2014-05-04T12:21:34Z</time>
      </trkpt>
      <trkpt lat="48.91317" lon="2.37346">
        <ele>34.74</ele>
        <time>2014-05-04T12:21:56Z</time>
      </trkpt>
      <trkpt lat="48.91331" lon="2.37363">
        <ele>36.45</ele>
        <time>2014-05-04T12:22:04Z</time>
      </trkpt>
      <trkpt lat="48.91349" lon="2.37371">
        <ele>37.44</ele>
        <time>2014-05-04T12:22:10Z</time>
      </trkpt>
      <trkpt lat="48.91366" lon="2.37378">
        <ele>35.67</ele>
        <time>2014-05-04T12:22:16Z</time>
      </trkpt>
      <trkpt lat="48.91386" lon="2.37379">
        <ele>32.89</ele>
        <time>2014-05-04T12:22:22Z</time>
      </trkpt>
      <trkpt lat="48.91404" lon="2.37383">
        <ele>33.57</ele>
        <time>2014-05-04T12:22:26Z</time>
      </trkpt>
      <trkpt lat="48.91422" lon="2.37389">
        <ele>32.48</ele>
        <time>2014-05-04T12:22:30Z</time>
      </trkpt>
      <trkpt lat="48.91442" lon="2.37393">
        <ele>31.67</ele>
        <time>2014-05-04T12:22:34Z</time>
      </trkpt>
      <trkpt lat="48.91462" lon="2.37398">
        <ele>30.93</ele>
        <time>2014-05-04T12:22:38Z</time>
      </trkpt>
      <trkpt lat="48.91483" lon="2.37402">
        <ele>32.51</ele>
        <time>2014-05-04T12:22:42Z</time>
      </trkpt>
      <trkpt lat="48.91501" lon="2.37405">
        <ele>30.98</ele>
        <time>2014-05-04T12:22:46Z</time>
      </trkpt>
      <trkpt lat="48.9152" lon="2.374">
        <ele>33.59</ele>
        <time>2014-05-04T12:22:51Z</time>
      </trkpt>
      <trkpt lat="48.9153" lon="2.37374">
        <ele>33.62</ele>
        <time>2014-05-04T12:22:58Z</time>
      </trkpt>
      <trkpt lat="48.91529" lon="2.37344">
        <ele>32.66</ele>
        <time>2014-05-04T12:23:04Z</time>
      </trkpt>
      <trkpt lat="48.9153" lon="2.37314">
        <ele>35.55</ele>
        <time>2014-05-04T12:23:10Z</time>
      </trkpt>
      <trkpt lat="48.9153" lon="2.37283">
        <ele>34.44</ele>
        <time>2014-05-04T12:23:16Z</time>
      </trkpt>
      <trkpt lat="48.9153" lon="2.37252">
        <ele>35.26</ele>
        <time>2014-05-04T12:23:22Z</time>
      </trkpt>
      <trkpt lat="48.91518" lon="2.37229">
        <ele>38.69</ele>
        <time>2014-05-04T12:23:48Z</time>
      </trkpt>
      <trkpt lat="48.91522" lon="2.37201">
        <ele>32.08</ele>
        <time>2014-05-04T12:24:31Z</time>
      </trkpt>
      <trkpt lat="48.91538" lon="2.37183">
        <ele>32.38</ele>
        <time>2014-05-04T12:24:36Z</time>
      </trkpt>
      <trkpt lat="48.91557" lon="2.37178">
        <ele>30.76</ele>
        <time>2014-05-04T12:24:42Z</time>
      </trkpt>
      <trkpt lat="48.91578" lon="2.37175">
        <ele>29.35</ele>
        <time>2014-05-04T12:24:48Z</time>
      </trkpt>
      <trkpt lat="48.91598" lon="2.37166">
        <ele>31.94</ele>
        <time>2014-05-04T12:24:54Z</time>
      </trkpt>
      <trkpt lat="48.91618" lon="2.37157">
        <ele>29.33</ele>
        <time>2014-05-04T12:25:00Z</time>
      </trkpt>
      <trkpt lat="48.91638" lon="2.37144">
        <ele>31.63</ele>
        <time>2014-05-04T12:25:05Z</time>
      </trkpt>
      <trkpt lat="48.91655" lon="2.37132">
        <ele>31.74</ele>
        <time>2014-05-04T12:25:09Z</time>
      </trkpt>
      <trkpt lat="48.91673" lon="2.37121">
        <ele>32.37</ele>
        <time>2014-05-04T12:25:13Z</time>
      </trkpt>
      <trkpt lat="48.91689" lon="2.37109">
        <ele>31.16</ele>
        <time>2014-05-04T12:25:17Z</time>
      </trkpt>
      <trkpt lat="48.9171" lon="2.37097">
        <ele>32.08</ele>
        <time>2014-05-04T12:25:21Z</time>
      </trkpt>
      <trkpt lat="48.91728" lon="2.37081">
        <ele>29.66</ele>
        <time>2014-05-04T12:25:26Z</time>
      </trkpt>
      <trkpt lat="48.91748" lon="2.37074">
        <ele>27.68</ele>
        <time>2014-05-04T12:25:30Z</time>
      </trkpt>
      <trkpt lat="48.91767" lon="2.3706">
        <ele>25.27</ele>
        <time>2014-05-04T12:25:35Z</time>
      </trkpt>
      <trkpt lat="48.91786" lon="2.37051">
        <ele>24.09</ele>
        <time>2014-05-04T12:25:39Z</time>
      </trkpt>
      <trkpt lat="48.91804" lon="2.37041">
        <ele>26.19</ele>
        <time>2014-05-04T12:25:44Z</time>
      </trkpt>
      <trkpt lat="48.91825" lon="2.37036">
        <ele>30.55</ele>
        <time>2014-05-04T12:25:51Z</time>
      </trkpt>
      <trkpt lat="48.91843" lon="2.37027">
        <ele>29.53</ele>
        <time>2014-05-04T12:25:57Z</time>
      </trkpt>
      <trkpt lat="48.91861" lon="2.3702">
        <ele>29.16</ele>
        <time>2014-05-04T12:26:03Z</time>
      </trkpt>
      <trkpt lat="48.91881" lon="2.37009">
        <ele>33.85</ele>
        <time>2014-05-04T12:26:08Z</time>
      </trkpt>
      <trkpt lat="48.91899" lon="2.36998">
        <ele>35.69</ele>
        <time>2014-05-04T12:26:12Z</time>
      </trkpt>
      <trkpt lat="48.91918" lon="2.36985">
        <ele>32.83</ele>
        <time>2014-05-04T12:26:17Z</time>
      </trkpt>
      <trkpt lat="48.91936" lon="2.36971">
        <ele>34.96</ele>
        <time>2014-05-04T12:26:22Z</time>
      </trkpt>
      <trkpt lat="48.91954" lon="2.36957">
        <ele>37.38</ele>
        <time>2014-05-04T12:26:26Z</time>
      </trkpt>
      <trkpt lat="48.91973" lon="2.3694">
        <ele>35.1</ele>
        <time>2014-05-04T12:26:31Z</time>
      </trkpt>
      <trkpt lat="48.91995" lon="2.36939">
        <ele>36.39</ele>
        <time>2014-05-04T12:26:35Z</time>
      </trkpt>
      <trkpt lat="48.92016" lon="2.36936">
        <ele>38.66</ele>
        <time>2014-05-04T12:26:39Z</time>
      </trkpt>
      <trkpt lat="48.92034" lon="2.36931">
        <ele>36.68</ele>
        <time>2014-05-04T12:26:43Z</time>
      </trkpt>
      <trkpt lat="48.92051" lon="2.36914">
        <ele>37.96</ele>
        <time>2014-05-04T12:26:49Z</time>
      </trkpt>
      <trkpt lat="48.92067" lon="2.36895">
        <ele>42.26</ele>
        <time>2014-05-04T12:26:53Z</time>
      </trkpt>
      <trkpt lat="48.92084" lon="2.36879">
        <ele>41.41</ele>
        <time>2014-05-04T12:26:58Z</time>
      </trkpt>
      <trkpt lat="48.92099" lon="2.36864">
        <ele>38.97</ele>
        <time>2014-05-04T12:27:02Z</time>
      </trkpt>
      <trkpt lat="48.92119" lon="2.36849">
        <ele>37.12</ele>
        <time>2014-05-04T12:27:07Z</time>
      </trkpt>
      <trkpt lat="48.92137" lon="2.36838">
        <ele>38.33</ele>
        <time>2014-05-04T12:27:11Z</time>
      </trkpt>
      <trkpt lat="48.92155" lon="2.36821">
        <ele>38.09</ele>
        <time>2014-05-04T12:27:15Z</time>
      </trkpt>
      <trkpt lat="48.9218" lon="2.36803">
        <ele>36.2</ele>
        <time>2014-05-04T12:27:19Z</time>
      </trkpt>
      <trkpt lat="48.92197" lon="2.36791">
        <ele>33.3</ele>
        <time>2014-05-04T12:27:27Z</time>
      </trkpt>
      <trkpt lat="48.92215" lon="2.36781">
        <ele>28.45</ele>
        <time>2014-05-04T12:27:32Z</time>
      </trkpt>
      <trkpt lat="48.92235" lon="2.36769">
        <ele>27.2</ele>
        <time>2014-05-04T12:27:37Z</time>
      </trkpt>
      <trkpt lat="48.92254" lon="2.36756">
        <ele>28.9</ele>
        <time>2014-05-04T12:27:41Z</time>
      </trkpt>
      <trkpt lat="48.92275" lon="2.36748">
        <ele>31.03</ele>
        <time>2014-05-04T12:27:46Z</time>
      </trkpt>
      <trkpt lat="48.92294" lon="2.36736">
        <ele>32.37</ele>
        <time>2014-05-04T12:27:51Z</time>
      </trkpt>
      <trkpt lat="48.92315" lon="2.36725">
        <ele>33.07</ele>
        <time>2014-05-04T12:27:56Z</time>
      </trkpt>
      <trkpt lat="48.92332" lon="2.36712">
        <ele>30.47</ele>
        <time>2014-05-04T12:28:01Z</time>
      </trkpt>
      <trkpt lat="48.92349" lon="2.36699">
        <ele>28.76</ele>
        <time>2014-05-04T12:28:06Z</time>
      </trkpt>
      <trkpt lat="48.92367" lon="2.36688">
        <ele>30.96</ele>
        <time>2014-05-04T12:28:11Z</time>
      </trkpt>
      <trkpt lat="48.92387" lon="2.36683">
        <ele>33.47</ele>
        <time>2014-05-04T12:28:16Z</time>
      </trkpt>
      <trkpt lat="48.92408" lon="2.36679">
        <ele>31.76</ele>
        <time>2014-05-04T12:28:21Z</time>
      </trkpt>
      <trkpt lat="48.92428" lon="2.36665">
        <ele>30.99</ele>
        <time>2014-05-04T12:28:26Z</time>
      </trkpt>
      <trkpt lat="48.92446" lon="2.3665">
        <ele>31.31</ele>
        <time>2014-05-04T12:28:31Z</time>
      </trkpt>
      <trkpt lat="48.92466" lon="2.36638">
        <ele>32.01</ele>
        <time>2014-05-04T12:28:36Z</time>
      </trkpt>
      <trkpt lat="48.92485" lon="2.36622">
        <ele>32.47</ele>
        <time>2014-05-04T12:28:41Z</time>
      </trkpt>
      <trkpt lat="48.92502" lon="2.3661">
        <ele>34.23</ele>
        <time>2014-05-04T12:28:45Z</time>
      </trkpt>
      <trkpt lat="48.92521" lon="2.36597">
        <ele>31.35</ele>
        <time>2014-05-04T12:28:50Z</time>
      </trkpt>
      <trkpt lat="48.92539" lon="2.36589">
        <ele>27.38</ele>
        <time>2014-05-04T12:28:55Z</time>
      </trkpt>
      <trkpt lat="48.92559" lon="2.36577">
        <ele>31.7</ele>
        <time>2014-05-04T12:29:00Z</time>
      </trkpt>
      <trkpt lat="48.92576" lon="2.36566">
        <ele>32.61</ele>
        <time>2014-05-04T12:29:05Z</time>
      </trkpt>
      <trkpt lat="48.92592" lon="2.36554">
        <ele>34.02</ele>
        <time>2014-05-04T12:29:10Z</time>
      </trkpt>
      <trkpt lat="48.92607" lon="2.36537">
        <ele>33.95</ele>
        <time>2014-05-04T12:29:19Z</time>
      </trkpt>
      <trkpt lat="48.92625" lon="2.36522">
        <ele>35.21</ele>
        <time>2014-05-04T12:29:27Z</time>
      </trkpt>
      <trkpt lat="48.92643" lon="2.36497">
        <ele>33.79</ele>
        <time>2014-05-04T12:29:32Z</time>
      </trkpt>
      <trkpt lat="48.92657" lon="2.36478">
        <ele>32.06</ele>
        <time>2014-05-04T12:29:36Z</time>
      </trkpt>
      <trkpt lat="48.92673" lon="2.36462">
        <ele>33.14</ele>
        <time>2014-05-04T12:29:40Z</time>
      </trkpt>
      <trkpt lat="48.92688" lon="2.36444">
        <ele>36.77</ele>
        <time>2014-05-04T12:29:44Z</time>
      </trkpt>
      <trkpt lat="48.92701" lon="2.36424">
        <ele>35.62</ele>
        <time>2014-05-04T12:29:48Z</time>
      </trkpt>
      <trkpt lat="48.9271" lon="2.36399">
        <ele>35.99</ele>
        <time>2014-05-04T12:29:52Z</time>
      </trkpt>
      <trkpt lat="48.92721" lon="2.36375">
        <ele>37.32</ele>
        <time>2014-05-04T12:29:56Z</time>
      </trkpt>
      <trkpt lat="48.92733" lon="2.36354">
        <ele>36.84</ele>
        <time>2014-05-04T12:30:00Z</time>
      </trkpt>
      <trkpt lat="48.9274" lon="2.36325">
        <ele>37.31</ele>
        <time>2014-05-04T12:30:04Z</time>
      </trkpt>
      <trkpt lat="48.92745" lon="2.36297">
        <ele>38.97</ele>
        <time>2014-05-04T12:30:08Z</time>
      </trkpt>
      <trkpt lat="48.92756" lon="2.36267">
        <ele>37.22</ele>
        <time>2014-05-04T12:30:13Z</time>
      </trkpt>
      <trkpt lat="48.92762" lon="2.36235">
        <ele>37.09</ele>
        <time>2014-05-04T12:30:17Z</time>
      </trkpt>
      <trkpt lat="48.92768" lon="2.36205">
        <ele>38.7</ele>
        <time>2014-05-04T12:30:21Z</time>
      </trkpt>
      <trkpt lat="48.92768" lon="2.36173">
        <ele>37.99</ele>
        <time>2014-05-04T12:30:25Z</time>
      </trkpt>
      <trkpt lat="48.92776" lon="2.36142">
        <ele>36.2</ele>
        <time>2014-05-04T12:30:29Z</time>
      </trkpt>
      <trkpt lat="48.92775" lon="2.3611">
        <ele>35.09</ele>
        <time>2014-05-04T12:30:33Z</time>
      </trkpt>
      <trkpt lat="48.92777" lon="2.36079">
        <ele>34.77</ele>
        <time>2014-05-04T12:30:37Z</time>
      </trkpt>
      <trkpt lat="48.92774" lon="2.36048">
        <ele>33.56</ele>
        <time>2014-05-04T12:30:41Z</time>
      </trkpt>
      <trkpt lat="48.9277" lon="2.36015">
        <ele>34.05</ele>
        <time>2014-05-04T12:30:45Z</time>
      </trkpt>
      <trkpt lat="48.92765" lon="2.35988">
        <ele>34.92</ele>
        <time>2014-05-04T12:30:48Z</time>
      </trkpt>
      <trkpt lat="48.92771" lon="2.35961">
        <ele>32.53</ele>
        <time>2014-05-04T12:30:53Z</time>
      </trkpt>
      <trkpt lat="48.9278" lon="2.35936">
        <ele>33.79</ele>
        <time>2014-05-04T12:30:57Z</time>
      </trkpt>
      <trkpt lat="48.92779" lon="2.35909">
        <ele>35.43</ele>
        <time>2014-05-04T12:31:01Z</time>
      </trkpt>
      <trkpt lat="48.92777" lon="2.3588">
        <ele>34.6</ele>
        <time>2014-05-04T12:31:05Z</time>
      </trkpt>
      <trkpt lat="48.92776" lon="2.35851">
        <ele>35.36</ele>
        <time>2014-05-04T12:31:09Z</time>
      </trkpt>
      <trkpt lat="48.92775" lon="2.35816">
        <ele>36.57</ele>
        <time>2014-05-04T12:31:14Z</time>
      </trkpt>
      <trkpt lat="48.9278" lon="2.35786">
        <ele>34.98</ele>
        <time>2014-05-04T12:31:17Z</time>
      </trkpt>
      <trkpt lat="48.92782" lon="2.35759">
        <ele>30.94</ele>
        <time>2014-05-04T12:31:22Z</time>
      </trkpt>
      <trkpt lat="48.92774" lon="2.35729">
        <ele>31.55</ele>
        <time>2014-05-04T12:31:28Z</time>
      </trkpt>
      <trkpt lat="48.92765" lon="2.35696">
        <ele>29.29</ele>
        <time>2014-05-04T12:31:32Z</time>
      </trkpt>
      <trkpt lat="48.92766" lon="2.3562">
        <ele>28.7</ele>
        <time>2014-05-04T12:31:39Z</time>
      </trkpt>
      <trkpt lat="48.92783" lon="2.35609">
        <ele>29.27</ele>
        <time>2014-05-04T12:31:44Z</time>
      </trkpt>
      <trkpt lat="48.92794" lon="2.3558">
        <ele>28.57</ele>
        <time>2014-05-04T12:31:49Z</time>
      </trkpt>
      <trkpt lat="48.92801" lon="2.35547">
        <ele>30.23</ele>
        <time>2014-05-04T12:31:54Z</time>
      </trkpt>
      <trkpt lat="48.92807" lon="2.35518">
        <ele>31.46</ele>
        <time>2014-05-04T12:31:58Z</time>
      </trkpt>
      <trkpt lat="48.92811" lon="2.35488">
        <ele>33.73</ele>
        <time>2014-05-04T12:32:03Z</time>
      </trkpt>
      <trkpt lat="48.92819" lon="2.3546">
        <ele>33.18</ele>
        <time>2014-05-04T12:32:07Z</time>
      </trkpt>
      <trkpt lat="48.92825" lon="2.35428">
        <ele>31.41</ele>
        <time>2014-05-04T12:32:12Z</time>
      </trkpt>
      <trkpt lat="48.92816" lon="2.35401">
        <ele>27.92</ele>
        <time>2014-05-04T12:32:17Z</time>
      </trkpt>
      <trkpt lat="48.92827" lon="2.35345">
        <ele>27.53</ele>
        <time>2014-05-04T12:32:28Z</time>
      </trkpt>
      <trkpt lat="48.92844" lon="2.35335">
        <ele>27.11</ele>
        <time>2014-05-04T12:32:32Z</time>
      </trkpt>
      <trkpt lat="48.92861" lon="2.35319">
        <ele>25.89</ele>
        <time>2014-05-04T12:32:36Z</time>
      </trkpt>
      <trkpt lat="48.92876" lon="2.35297">
        <ele>24.81</ele>
        <time>2014-05-04T12:32:41Z</time>
      </trkpt>
      <trkpt lat="48.92887" lon="2.35276">
        <ele>23.87</ele>
        <time>2014-05-04T12:32:45Z</time>
      </trkpt>
      <trkpt lat="48.92901" lon="2.35256">
        <ele>23.69</ele>
        <time>2014-05-04T12:32:49Z</time>
      </trkpt>
      <trkpt lat="48.92917" lon="2.35236">
        <ele>26.05</ele>
        <time>2014-05-04T12:32:53Z</time>
      </trkpt>
      <trkpt lat="48.92933" lon="2.3522">
        <ele>27.08</ele>
        <time>2014-05-04T12:32:57Z</time>
      </trkpt>
      <trkpt lat="48.92952" lon="2.35201">
        <ele>28.89</ele>
        <time>2014-05-04T12:33:01Z</time>
      </trkpt>
      <trkpt lat="48.92968" lon="2.35177">
        <ele>31.63</ele>
        <time>2014-05-04T12:33:05Z</time>
      </trkpt>
      <trkpt lat="48.92984" lon="2.35161">
        <ele>32.3</ele>
        <time>2014-05-04T12:33:09Z</time>
      </trkpt>
      <trkpt lat="48.93003" lon="2.35146">
        <ele>30.54</ele>
        <time>2014-05-04T12:33:14Z</time>
      </trkpt>
      <trkpt lat="48.93022" lon="2.35132">
        <ele>32.04</ele>
        <time>2014-05-04T12:33:18Z</time>
      </trkpt>
      <trkpt lat="48.93039" lon="2.35122">
        <ele>33.92</ele>
        <time>2014-05-04T12:33:21Z</time>
      </trkpt>
      <trkpt lat="48.93057" lon="2.35106">
        <ele>32.78</ele>
        <time>2014-05-04T12:33:26Z</time>
      </trkpt>
      <trkpt lat="48.93074" lon="2.3509">
        <ele>29.75</ele>
        <time>2014-05-04T12:33:30Z</time>
      </trkpt>
      <trkpt lat="48.93094" lon="2.3508">
        <ele>29.56</ele>
        <time>2014-05-04T12:33:34Z</time>
      </trkpt>
      <trkpt lat="48.9311" lon="2.35066">
        <ele>29.61</ele>
        <time>2014-05-04T12:33:38Z</time>
      </trkpt>
      <trkpt lat="48.93131" lon="2.3505">
        <ele>27.17</ele>
        <time>2014-05-04T12:33:43Z</time>
      </trkpt>
      <trkpt lat="48.93151" lon="2.35036">
        <ele>32.65</ele>
        <time>2014-05-04T12:33:47Z</time>
      </trkpt>
      <trkpt lat="48.93167" lon="2.35019">
        <ele>31.08</ele>
        <time>2014-05-04T12:33:52Z</time>
      </trkpt>
      <trkpt lat="48.93186" lon="2.35005">
        <ele>28.63</ele>
        <time>2014-05-04T12:33:57Z</time>
      </trkpt>
      <trkpt lat="48.93206" lon="2.34993">
        <ele>27.61</ele>
        <time>2014-05-04T12:34:02Z</time>
      </trkpt>
      <trkpt lat="48.93225" lon="2.34987">
        <ele>28.49</ele>
        <time>2014-05-04T12:34:06Z</time>
      </trkpt>
      <trkpt lat="48.93242" lon="2.34972">
        <ele>28.6</ele>
        <time>2014-05-04T12:34:10Z</time>
      </trkpt>
      <trkpt lat="48.93259" lon="2.34959">
        <ele>27.67</ele>
        <time>2014-05-04T12:34:14Z</time>
      </trkpt>
      <trkpt lat="48.93277" lon="2.34951">
        <ele>26.18</ele>
        <time>2014-05-04T12:34:18Z</time>
      </trkpt>
      <trkpt lat="48.93293" lon="2.34935">
        <ele>28.43</ele>
        <time>2014-05-04T12:34:21Z</time>
      </trkpt>
      <trkpt lat="48.93312" lon="2.34919">
        <ele>28.6</ele>
        <time>2014-05-04T12:34:25Z</time>
      </trkpt>
      <trkpt lat="48.93332" lon="2.34903">
        <ele>28.61</ele>
        <time>2014-05-04T12:34:29Z</time>
      </trkpt>
      <trkpt lat="48.93348" lon="2.34888">
        <ele>30.11</ele>
        <time>2014-05-04T12:34:32Z</time>
      </trkpt>
      <trkpt lat="48.93362" lon="2.3487">
        <ele>30.3</ele>
        <time>2014-05-04T12:34:35Z</time>
      </trkpt>
      <trkpt lat="48.93385" lon="2.34861">
        <ele>29.48</ele>
        <time>2014-05-04T12:34:40Z</time>
      </trkpt>
      <trkpt lat="48.93405" lon="2.34849">
        <ele>28.29</ele>
        <time>2014-05-04T12:34:44Z</time>
      </trkpt>
      <trkpt lat="48.93423" lon="2.34832">
        <ele>27.34</ele>
        <time>2014-05-04T12:34:48Z</time>
      </trkpt>
      <trkpt lat="48.93442" lon="2.34819">
        <ele>27.97</ele>
        <time>2014-05-04T12:34:52Z</time>
      </trkpt>
      <trkpt lat="48.93461" lon="2.34803">
        <ele>29.95</ele>
        <time>2014-05-04T12:34:56Z</time>
      </trkpt>
      <trkpt lat="48.93479" lon="2.34792">
        <ele>31.76</ele>
        <time>2014-05-04T12:35:00Z</time>
      </trkpt>
      <trkpt lat="48.93497" lon="2.34784">
        <ele>30.07</ele>
        <time>2014-05-04T12:35:06Z</time>
      </trkpt>
      <trkpt lat="48.93513" lon="2.3477">
        <ele>31.95</ele>
        <time>2014-05-04T12:35:12Z</time>
      </trkpt>
      <trkpt lat="48.93529" lon="2.34757">
        <ele>30.91</ele>
        <time>2014-05-04T12:35:18Z</time>
      </trkpt>
      <trkpt lat="48.93542" lon="2.34737">
        <ele>30.87</ele>
        <time>2014-05-04T12:35:27Z</time>
      </trkpt>
      <trkpt lat="48.93557" lon="2.34719">
        <ele>35.81</ele>
        <time>2014-05-04T12:35:55Z</time>
      </trkpt>
      <trkpt lat="48.93574" lon="2.34701">
        <ele>32.78</ele>
        <time>2014-05-04T12:36:02Z</time>
      </trkpt>
      <trkpt lat="48.9359" lon="2.34687">
        <ele>35.97</ele>
        <time>2014-05-04T12:36:08Z</time>
      </trkpt>
      <trkpt lat="48.93608" lon="2.34681">
        <ele>33.21</ele>
        <time>2014-05-04T12:36:21Z</time>
      </trkpt>
      <trkpt lat="48.93601" lon="2.34654">
        <ele>32.5</ele>
        <time>2014-05-04T12:36:29Z</time>
      </trkpt>
      <trkpt lat="48.93594" lon="2.34628">
        <ele>33.11</ele>
        <time>2014-05-04T12:36:35Z</time>
      </trkpt>
      <trkpt lat="48.93597" lon="2.346">
        <ele>32.74</ele>
        <time>2014-05-04T12:36:43Z</time>
      </trkpt>
      <trkpt lat="48.9361" lon="2.34575">
        <ele>32.14</ele>
        <time>2014-05-04T12:36:50Z</time>
      </trkpt>
      <trkpt lat="48.93614" lon="2.34547">
        <ele>31.62</ele>
        <time>2014-05-04T12:36:56Z</time>
      </trkpt>
      <trkpt lat="48.93611" lon="2.34516">
        <ele>28.36</ele>
        <time>2014-05-04T12:37:02Z</time>
      </trkpt>
      <trkpt lat="48.93601" lon="2.3448">
        <ele>28.49</ele>
        <time>2014-05-04T12:37:03Z</time>
      </trkpt>
      <trkpt lat="48.93602" lon="2.34452">
        <ele>30.1</ele>
        <time>2014-05-04T12:37:06Z</time>
      </trkpt>
      <trkpt lat="48.936" lon="2.34418">
        <ele>29.7</ele>
        <time>2014-05-04T12:37:10Z</time>
      </trkpt>
      <trkpt lat="48.936" lon="2.34388">
        <ele>30.24</ele>
        <time>2014-05-04T12:37:14Z</time>
      </trkpt>
      <trkpt lat="48.93598" lon="2.34356">
        <ele>27.91</ele>
        <time>2014-05-04T12:37:19Z</time>
      </trkpt>
      <trkpt lat="48.93598" lon="2.34328">
        <ele>26.59</ele>
        <time>2014-05-04T12:37:24Z</time>
      </trkpt>
      <trkpt lat="48.93598" lon="2.34295">
        <ele>28.24</ele>
        <time>2014-05-04T12:37:30Z</time>
      </trkpt>
      <trkpt lat="48.93595" lon="2.34265">
        <ele>28.73</ele>
        <time>2014-05-04T12:37:36Z</time>
      </trkpt>
      <trkpt lat="48.93593" lon="2.34234">
        <ele>28.17</ele>
        <time>2014-05-04T12:37:43Z</time>
      </trkpt>
      <trkpt lat="48.93592" lon="2.34206">
        <ele>29.04</ele>
        <time>2014-05-04T12:37:49Z</time>
      </trkpt>
      <trkpt lat="48.93592" lon="2.34178">
        <ele>28.37</ele>
        <time>2014-05-04T12:37:55Z</time>
      </trkpt>
      <trkpt lat="48.93591" lon="2.34149">
        <ele>27.62</ele>
        <time>2014-05-04T12:38:01Z</time>
      </trkpt>
      <trkpt lat="48.93589" lon="2.34119">
        <ele>25.91</ele>
        <time>2014-05-04T12:38:07Z</time>
      </trkpt>
      <trkpt lat="48.936" lon="2.34096">
        <ele>24.89</ele>
        <time>2014-05-04T12:38:19Z</time>
      </trkpt>
      <trkpt lat="48.93619" lon="2.34089">
        <ele>22.87</ele>
        <time>2014-05-04T12:38:24Z</time>
      </trkpt>
      <trkpt lat="48.93639" lon="2.3408">
        <ele>20.71</ele>
        <time>2014-05-04T12:38:29Z</time>
      </trkpt>
      <trkpt lat="48.93658" lon="2.34071">
        <ele>15.12</ele>
        <time>2014-05-04T12:38:36Z</time>
      </trkpt>
      <trkpt lat="48.93644" lon="2.34055">
        <ele>12.43</ele>
        <time>2014-05-04T12:38:52Z</time>
      </trkpt>
      <trkpt lat="48.93625" lon="2.3406">
        <ele>9.23</ele>
        <time>2014-05-04T12:38:57Z</time>
      </trkpt>
      <trkpt lat="48.93606" lon="2.34066">
        <ele>8.21</ele>
        <time>2014-05-04T12:39:03Z</time>
      </trkpt>
      <trkpt lat="48.93587" lon="2.34065">
        <ele>11.68</ele>
        <time>2014-05-04T12:39:11Z</time>
      </trkpt>
      <trkpt lat="48.93583" lon="2.34037">
        <ele>14.24</ele>
        <time>2014-05-04T12:39:18Z</time>
      </trkpt>
      <trkpt lat="48.93583" lon="2.34009">
        <ele>13.22</ele>
        <time>2014-05-04T12:39:23Z</time>
      </trkpt>
      <trkpt lat="48.93581" lon="2.3398">
        <ele>15.43</ele>
        <time>2014-05-04T12:39:35Z</time>
      </trkpt>
      <trkpt lat="48.93581" lon="2.33952">
        <ele>14.16</ele>
        <time>2014-05-04T12:39:41Z</time>
      </trkpt>
      <trkpt lat="48.93582" lon="2.33921">
        <ele>15.07</ele>
        <time>2014-05-04T12:39:46Z</time>
      </trkpt>
      <trkpt lat="48.9358" lon="2.33892">
        <ele>19.44</ele>
        <time>2014-05-04T12:39:51Z</time>
      </trkpt>
      <trkpt lat="48.9358" lon="2.33865">
        <ele>22.07</ele>
        <time>2014-05-04T12:39:56Z</time>
      </trkpt>
      <trkpt lat="48.93577" lon="2.33836">
        <ele>21.53</ele>
        <time>2014-05-04T12:40:01Z</time>
      </trkpt>
      <trkpt lat="48.93577" lon="2.33809">
        <ele>21.61</ele>
        <time>2014-05-04T12:40:06Z</time>
      </trkpt>
      <trkpt lat="48.93577" lon="2.33777">
        <ele>22.11</ele>
        <time>2014-05-04T12:40:11Z</time>
      </trkpt>
      <trkpt lat="48.93577" lon="2.33746">
        <ele>22.62</ele>
        <time>2014-05-04T12:40:17Z</time>
      </trkpt>
      <trkpt lat="48.93574" lon="2.33719">
        <ele>26.41</ele>
        <time>2014-05-04T12:40:23Z</time>
      </trkpt>
      <trkpt lat="48.93572" lon="2.33691">
        <ele>27.51</ele>
        <time>2014-05-04T12:40:28Z</time>
      </trkpt>
      <trkpt lat="48.93569" lon="2.33662">
        <ele>28.95</ele>
        <time>2014-05-04T12:40:33Z</time>
      </trkpt>
      <trkpt lat="48.93567" lon="2.33632">
        <ele>29.03</ele>
        <time>2014-05-04T12:40:38Z</time>
      </trkpt>
      <trkpt lat="48.93566" lon="2.33603">
        <ele>27.68</ele>
        <time>2014-05-04T12:40:44Z</time>
      </trkpt>
      <trkpt lat="48.9357" lon="2.33575">
        <ele>25.41</ele>
        <time>2014-05-04T12:40:50Z</time>
      </trkpt>
      <trkpt lat="48.93576" lon="2.33543">
        <ele>26.42</ele>
        <time>2014-05-04T12:40:55Z</time>
      </trkpt>
      <trkpt lat="48.93574" lon="2.33511">
        <ele>26.47</ele>
        <time>2014-05-04T12:40:59Z</time>
      </trkpt>
      <trkpt lat="48.93572" lon="2.33482">
        <ele>27.64</ele>
        <time>2014-05-04T12:41:04Z</time>
      </trkpt>
      <trkpt lat="48.9357" lon="2.33451">
        <ele>26.36</ele>
        <time>2014-05-04T12:41:08Z</time>
      </trkpt>
      <trkpt lat="48.93567" lon="2.33419">
        <ele>27.78</ele>
        <time>2014-05-04T12:41:12Z</time>
      </trkpt>
      <trkpt lat="48.93562" lon="2.33391">
        <ele>30.19</ele>
        <time>2014-05-04T12:41:19Z</time>
      </trkpt>
      <trkpt lat="48.9356" lon="2.33358">
        <ele>24.94</ele>
        <time>2014-05-04T12:41:29Z</time>
      </trkpt>
      <trkpt lat="48.93562" lon="2.3333">
        <ele>21.44</ele>
        <time>2014-05-04T12:41:33Z</time>
      </trkpt>
      <trkpt lat="48.93561" lon="2.33298">
        <ele>20.23</ele>
        <time>2014-05-04T12:41:37Z</time>
      </trkpt>
      <trkpt lat="48.93558" lon="2.33268">
        <ele>20.46</ele>
        <time>2014-05-04T12:41:41Z</time>
      </trkpt>
      <trkpt lat="48.93556" lon="2.33232">
        <ele>19.41</ele>
        <time>2014-05-04T12:41:45Z</time>
      </trkpt>
      <trkpt lat="48.93553" lon="2.33199">
        <ele>23.6</ele>
        <time>2014-05-04T12:41:50Z</time>
      </trkpt>
      <trkpt lat="48.93548" lon="2.33167">
        <ele>24.92</ele>
        <time>2014-05-04T12:41:54Z</time>
      </trkpt>
      <trkpt lat="48.93547" lon="2.33137">
        <ele>25.28</ele>
        <time>2014-05-04T12:41:59Z</time>
      </trkpt>
      <trkpt lat="48.93548" lon="2.33102">
        <ele>23.53</ele>
        <time>2014-05-04T12:42:03Z</time>
      </trkpt>
      <trkpt lat="48.93539" lon="2.33073">
        <ele>25.11</ele>
        <time>2014-05-04T12:42:07Z</time>
      </trkpt>
      <trkpt lat="48.9354" lon="2.33044">
        <ele>25.14</ele>
        <time>2014-05-04T12:42:11Z</time>
      </trkpt>
      <trkpt lat="48.93537" lon="2.33009">
        <ele>24.88</ele>
        <time>2014-05-04T12:42:16Z</time>
      </trkpt>
      <trkpt lat="48.93535" lon="2.32981">
        <ele>26.07</ele>
        <time>2014-05-04T12:42:20Z</time>
      </trkpt>
      <trkpt lat="48.93531" lon="2.32945">
        <ele>26.63</ele>
        <time>2014-05-04T12:42:25Z</time>
      </trkpt>
      <trkpt lat="48.9353" lon="2.32918">
        <ele>27.8</ele>
        <time>2014-05-04T12:42:29Z</time>
      </trkpt>
      <trkpt lat="48.93532" lon="2.32891">
        <ele>27</ele>
        <time>2014-05-04T12:42:33Z</time>
      </trkpt>
      <trkpt lat="48.93528" lon="2.32863">
        <ele>24.26</ele>
        <time>2014-05-04T12:42:37Z</time>
      </trkpt>
      <trkpt lat="48.93527" lon="2.32832">
        <ele>23.09</ele>
        <time>2014-05-04T12:42:41Z</time>
      </trkpt>
      <trkpt lat="48.93518" lon="2.32802">
        <ele>24.58</ele>
        <time>2014-05-04T12:42:45Z</time>
      </trkpt>
      <trkpt lat="48.93516" lon="2.32769">
        <ele>24.86</ele>
        <time>2014-05-04T12:42:49Z</time>
      </trkpt>
      <trkpt lat="48.93513" lon="2.32741">
        <ele>25.69</ele>
        <time>2014-05-04T12:42:53Z</time>
      </trkpt>
      <trkpt lat="48.93508" lon="2.32709">
        <ele>25.07</ele>
        <time>2014-05-04T12:42:59Z</time>
      </trkpt>
      <trkpt lat="48.93506" lon="2.32677">
        <ele>21.12</ele>
        <time>2014-05-04T12:43:05Z</time>
      </trkpt>
      <trkpt lat="48.93504" lon="2.32649">
        <ele>18.91</ele>
        <time>2014-05-04T12:43:10Z</time>
      </trkpt>
      <trkpt lat="48.93501" lon="2.32616">
        <ele>19.25</ele>
        <time>2014-05-04T12:43:15Z</time>
      </trkpt>
      <trkpt lat="48.93497" lon="2.32587">
        <ele>19.09</ele>
        <time>2014-05-04T12:43:19Z</time>
      </trkpt>
      <trkpt lat="48.93491" lon="2.32554">
        <ele>19.13</ele>
        <time>2014-05-04T12:43:24Z</time>
      </trkpt>
      <trkpt lat="48.93491" lon="2.32527">
        <ele>19.77</ele>
        <time>2014-05-04T12:43:28Z</time>
      </trkpt>
      <trkpt lat="48.93493" lon="2.32498">
        <ele>19.4</ele>
        <time>2014-05-04T12:43:33Z</time>
      </trkpt>
      <trkpt lat="48.9349" lon="2.32468">
        <ele>19.79</ele>
        <time>2014-05-04T12:43:38Z</time>
      </trkpt>
      <trkpt lat="48.93489" lon="2.32438">
        <ele>20</ele>
        <time>2014-05-04T12:43:42Z</time>
      </trkpt>
      <trkpt lat="48.93485" lon="2.32408">
        <ele>21.2</ele>
        <time>2014-05-04T12:43:46Z</time>
      </trkpt>
      <trkpt lat="48.93485" lon="2.32379">
        <ele>19.9</ele>
        <time>2014-05-04T12:43:50Z</time>
      </trkpt>
      <trkpt lat="48.93485" lon="2.32349">
        <ele>19.57</ele>
        <time>2014-05-04T12:43:54Z</time>
      </trkpt>
      <trkpt lat="48.93483" lon="2.32322">
        <ele>19.98</ele>
        <time>2014-05-04T12:43:58Z</time>
      </trkpt>
      <trkpt lat="48.93483" lon="2.32292">
        <ele>20.07</ele>
        <time>2014-05-04T12:44:02Z</time>
      </trkpt>
      <trkpt lat="48.93479" lon="2.32261">
        <ele>20.45</ele>
        <time>2014-05-04T12:44:06Z</time>
      </trkpt>
      <trkpt lat="48.93477" lon="2.32232">
        <ele>20.79</ele>
        <time>2014-05-04T12:44:10Z</time>
      </trkpt>
      <trkpt lat="48.93474" lon="2.32202">
        <ele>23.25</ele>
        <time>2014-05-04T12:44:14Z</time>
      </trkpt>
      <trkpt lat="48.93475" lon="2.32169">
        <ele>22.38</ele>
        <time>2014-05-04T12:44:19Z</time>
      </trkpt>
      <trkpt lat="48.93473" lon="2.3214">
        <ele>23.22</ele>
        <time>2014-05-04T12:44:23Z</time>
      </trkpt>
      <trkpt lat="48.93476" lon="2.32111">
        <ele>27.09</ele>
        <time>2014-05-04T12:44:29Z</time>
      </trkpt>
      <trkpt lat="48.93489" lon="2.32088">
        <ele>27.45</ele>
        <time>2014-05-04T12:44:35Z</time>
      </trkpt>
      <trkpt lat="48.93495" lon="2.32061">
        <ele>27.79</ele>
        <time>2014-05-04T12:44:40Z</time>
      </trkpt>
      <trkpt lat="48.93484" lon="2.32035">
        <ele>25.87</ele>
        <time>2014-05-04T12:44:45Z</time>
      </trkpt>
      <trkpt lat="48.93477" lon="2.32008">
        <ele>25.62</ele>
        <time>2014-05-04T12:44:50Z</time>
      </trkpt>
      <trkpt lat="48.93472" lon="2.31978">
        <ele>27.95</ele>
        <time>2014-05-04T12:44:55Z</time>
      </trkpt>
      <trkpt lat="48.9347" lon="2.31947">
        <ele>28.78</ele>
        <time>2014-05-04T12:45:00Z</time>
      </trkpt>
      <trkpt lat="48.93455" lon="2.31933">
        <ele>25.31</ele>
        <time>2014-05-04T12:45:07Z</time>
      </trkpt>
      <trkpt lat="48.93445" lon="2.31906">
        <ele>22.29</ele>
        <time>2014-05-04T12:45:16Z</time>
      </trkpt>
      <trkpt lat="48.93445" lon="2.31877">
        <ele>23.35</ele>
        <time>2014-05-04T12:45:21Z</time>
      </trkpt>
      <trkpt lat="48.93442" lon="2.31849">
        <ele>23.97</ele>
        <time>2014-05-04T12:45:25Z</time>
      </trkpt>
      <trkpt lat="48.93439" lon="2.31819">
        <ele>21.95</ele>
        <time>2014-05-04T12:45:29Z</time>
      </trkpt>
      <trkpt lat="48.93434" lon="2.31789">
        <ele>23.32</ele>
        <time>2014-05-04T12:45:33Z</time>
      </trkpt>
      <trkpt lat="48.93431" lon="2.3176">
        <ele>24.35</ele>
        <time>2014-05-04T12:45:38Z</time>
      </trkpt>
      <trkpt lat="48.93427" lon="2.31732">
        <ele>26.26</ele>
        <time>2014-05-04T12:45:43Z</time>
      </trkpt>
      <trkpt lat="48.93422" lon="2.31702">
        <ele>26.82</ele>
        <time>2014-05-04T12:45:48Z</time>
      </trkpt>
      <trkpt lat="48.93415" lon="2.31673">
        <ele>26.43</ele>
        <time>2014-05-04T12:45:53Z</time>
      </trkpt>
      <trkpt lat="48.93411" lon="2.31645">
        <ele>26.6</ele>
        <time>2014-05-04T12:45:57Z</time>
      </trkpt>
      <trkpt lat="48.93408" lon="2.31616">
        <ele>27.05</ele>
        <time>2014-05-04T12:46:01Z</time>
      </trkpt>
      <trkpt lat="48.93404" lon="2.31585">
        <ele>27.81</ele>
        <time>2014-05-04T12:46:06Z</time>
      </trkpt>
      <trkpt lat="48.93402" lon="2.31552">
        <ele>28.37</ele>
        <time>2014-05-04T12:46:10Z</time>
      </trkpt>
      <trkpt lat="48.93399" lon="2.31523">
        <ele>28.66</ele>
        <time>2014-05-04T12:46:14Z</time>
      </trkpt>
      <trkpt lat="48.93396" lon="2.31494">
        <ele>29.55</ele>
        <time>2014-05-04T12:46:18Z</time>
      </trkpt>
      <trkpt lat="48.93396" lon="2.31466">
        <ele>26.73</ele>
        <time>2014-05-04T12:46:22Z</time>
      </trkpt>
      <trkpt lat="48.93397" lon="2.31437">
        <ele>25.87</ele>
        <time>2014-05-04T12:46:26Z</time>
      </trkpt>
      <trkpt lat="48.93393" lon="2.31405">
        <ele>24.69</ele>
        <time>2014-05-04T12:46:30Z</time>
      </trkpt>
      <trkpt lat="48.93389" lon="2.31372">
        <ele>26.43</ele>
        <time>2014-05-04T12:46:34Z</time>
      </trkpt>
      <trkpt lat="48.93388" lon="2.31342">
        <ele>26.79</ele>
        <time>2014-05-04T12:46:38Z</time>
      </trkpt>
      <trkpt lat="48.93388" lon="2.31312">
        <ele>26.25</ele>
        <time>2014-05-04T12:46:42Z</time>
      </trkpt>
      <trkpt lat="48.93385" lon="2.31285">
        <ele>24.65</ele>
        <time>2014-05-04T12:46:46Z</time>
      </trkpt>
      <trkpt lat="48.9338" lon="2.31254">
        <ele>25.11</ele>
        <time>2014-05-04T12:46:50Z</time>
      </trkpt>
      <trkpt lat="48.93376" lon="2.31221">
        <ele>26.33</ele>
        <time>2014-05-04T12:46:54Z</time>
      </trkpt>
      <trkpt lat="48.93372" lon="2.31189">
        <ele>24.91</ele>
        <time>2014-05-04T12:46:59Z</time>
      </trkpt>
      <trkpt lat="48.93371" lon="2.31155">
        <ele>24.75</ele>
        <time>2014-05-04T12:47:04Z</time>
      </trkpt>
      <trkpt lat="48.93368" lon="2.31123">
        <ele>23.56</ele>
        <time>2014-05-04T12:47:08Z</time>
      </trkpt>
      <trkpt lat="48.93364" lon="2.31089">
        <ele>22.67</ele>
        <time>2014-05-04T12:47:12Z</time>
      </trkpt>
      <trkpt lat="48.93361" lon="2.31056">
        <ele>23.74</ele>
        <time>2014-05-04T12:47:16Z</time>
      </trkpt>
      <trkpt lat="48.93358" lon="2.31023">
        <ele>23.99</ele>
        <time>2014-05-04T12:47:20Z</time>
      </trkpt>
      <trkpt lat="48.93355" lon="2.30992">
        <ele>23.76</ele>
        <time>2014-05-04T12:47:24Z</time>
      </trkpt>
      <trkpt lat="48.93353" lon="2.3096">
        <ele>23.12</ele>
        <time>2014-05-04T12:47:28Z</time>
      </trkpt>
      <trkpt lat="48.9335" lon="2.3093">
        <ele>22.64</ele>
        <time>2014-05-04T12:47:32Z</time>
      </trkpt>
      <trkpt lat="48.93348" lon="2.30903">
        <ele>22.11</ele>
        <time>2014-05-04T12:47:36Z</time>
      </trkpt>
      <trkpt lat="48.93344" lon="2.3087">
        <ele>20.56</ele>
        <time>2014-05-04T12:47:41Z</time>
      </trkpt>
      <trkpt lat="48.93343" lon="2.30841">
        <ele>22.73</ele>
        <time>2014-05-04T12:47:45Z</time>
      </trkpt>
      <trkpt lat="48.93341" lon="2.30812">
        <ele>23.56</ele>
        <time>2014-05-04T12:47:49Z</time>
      </trkpt>
      <trkpt lat="48.93344" lon="2.30781">
        <ele>24.48</ele>
        <time>2014-05-04T12:47:54Z</time>
      </trkpt>
      <trkpt lat="48.93346" lon="2.30751">
        <ele>24.6</ele>
        <time>2014-05-04T12:47:57Z</time>
      </trkpt>
      <trkpt lat="48.93357" lon="2.30725">
        <ele>23.44</ele>
        <time>2014-05-04T12:48:07Z</time>
      </trkpt>
      <trkpt lat="48.93368" lon="2.30699">
        <ele>23.26</ele>
        <time>2014-05-04T12:48:15Z</time>
      </trkpt>
      <trkpt lat="48.9336" lon="2.3067">
        <ele>20.92</ele>
        <time>2014-05-04T12:48:22Z</time>
      </trkpt>
      <trkpt lat="48.93359" lon="2.3064">
        <ele>20.09</ele>
        <time>2014-05-04T12:48:27Z</time>
      </trkpt>
      <trkpt lat="48.93354" lon="2.30612">
        <ele>18.06</ele>
        <time>2014-05-04T12:48:32Z</time>
      </trkpt>
      <trkpt lat="48.93354" lon="2.30582">
        <ele>16.06</ele>
        <time>2014-05-04T12:48:37Z</time>
      </trkpt>
      <trkpt lat="48.93351" lon="2.30552">
        <ele>14.26</ele>
        <time>2014-05-04T12:48:41Z</time>
      </trkpt>
      <trkpt lat="48.93351" lon="2.30521">
        <ele>11.16</ele>
        <time>2014-05-04T12:48:46Z</time>
      </trkpt>
      <trkpt lat="48.93346" lon="2.3049">
        <ele>11.08</ele>
        <time>2014-05-04T12:48:50Z</time>
      </trkpt>
      <trkpt lat="48.93347" lon="2.30458">
        <ele>13.27</ele>
        <time>2014-05-04T12:48:54Z</time>
      </trkpt>
      <trkpt lat="48.93346" lon="2.30424">
        <ele>15.9</ele>
        <time>2014-05-04T12:48:58Z</time>
      </trkpt>
      <trkpt lat="48.93344" lon="2.30395">
        <ele>17.88</ele>
        <time>2014-05-04T12:49:02Z</time>
      </trkpt>
      <trkpt lat="48.93346" lon="2.30367">
        <ele>17.07</ele>
        <time>2014-05-04T12:49:06Z</time>
      </trkpt>
      <trkpt lat="48.93347" lon="2.30334">
        <ele>16.01</ele>
        <time>2014-05-04T12:49:10Z</time>
      </trkpt>
      <trkpt lat="48.93344" lon="2.30298">
        <ele>17.03</ele>
        <time>2014-05-04T12:49:15Z</time>
      </trkpt>
      <trkpt lat="48.9336" lon="2.30281">
        <ele>22.89</ele>
        <time>2014-05-04T12:49:24Z</time>
      </trkpt>
      <trkpt lat="48.93378" lon="2.30293">
        <ele>22.87</ele>
        <time>2014-05-04T12:49:29Z</time>
      </trkpt>
      <trkpt lat="48.934" lon="2.30302">
        <ele>22.4</ele>
        <time>2014-05-04T12:49:34Z</time>
      </trkpt>
      <trkpt lat="48.9342" lon="2.30312">
        <ele>20.54</ele>
        <time>2014-05-04T12:49:39Z</time>
      </trkpt>
      <trkpt lat="48.93439" lon="2.30319">
        <ele>21.3</ele>
        <time>2014-05-04T12:49:44Z</time>
      </trkpt>
      <trkpt lat="48.93458" lon="2.30327">
        <ele>23.79</ele>
        <time>2014-05-04T12:49:49Z</time>
      </trkpt>
      <trkpt lat="48.93476" lon="2.30342">
        <ele>21.46</ele>
        <time>2014-05-04T12:49:55Z</time>
      </trkpt>
      <trkpt lat="48.93495" lon="2.3035">
        <ele>18</ele>
        <time>2014-05-04T12:50:01Z</time>
      </trkpt>
      <trkpt lat="48.93513" lon="2.30361">
        <ele>15.2</ele>
        <time>2014-05-04T12:50:05Z</time>
      </trkpt>
      <trkpt lat="48.93535" lon="2.30368">
        <ele>13.96</ele>
        <time>2014-05-04T12:50:09Z</time>
      </trkpt>
      <trkpt lat="48.93556" lon="2.30371">
        <ele>10.7</ele>
        <time>2014-05-04T12:50:13Z</time>
      </trkpt>
      <trkpt lat="48.93575" lon="2.30379">
        <ele>8.68</ele>
        <time>2014-05-04T12:50:17Z</time>
      </trkpt>
      <trkpt lat="48.93595" lon="2.30384">
        <ele>9.12</ele>
        <time>2014-05-04T12:50:20Z</time>
      </trkpt>
      <trkpt lat="48.93617" lon="2.30394">
        <ele>10.64</ele>
        <time>2014-05-04T12:50:24Z</time>
      </trkpt>
      <trkpt lat="48.93637" lon="2.30401">
        <ele>10.74</ele>
        <time>2014-05-04T12:50:29Z</time>
      </trkpt>
      <trkpt lat="48.93656" lon="2.30409">
        <ele>10.3</ele>
        <time>2014-05-04T12:50:35Z</time>
      </trkpt>
      <trkpt lat="48.93674" lon="2.30416">
        <ele>12.41</ele>
        <time>2014-05-04T12:50:40Z</time>
      </trkpt>
      <trkpt lat="48.93692" lon="2.30425">
        <ele>16.14</ele>
        <time>2014-05-04T12:50:45Z</time>
      </trkpt>
      <trkpt lat="48.93712" lon="2.30431">
        <ele>17.1</ele>
        <time>2014-05-04T12:50:51Z</time>
      </trkpt>
      <trkpt lat="48.93731" lon="2.30443">
        <ele>14.7</ele>
        <time>2014-05-04T12:50:57Z</time>
      </trkpt>
      <trkpt lat="48.9375" lon="2.30451">
        <ele>11.71</ele>
        <time>2014-05-04T12:51:03Z</time>
      </trkpt>
      <trkpt lat="48.93773" lon="2.30459">
        <ele>15.08</ele>
        <time>2014-05-04T12:51:08Z</time>
      </trkpt>
      <trkpt lat="48.938" lon="2.30446">
        <ele>15.67</ele>
        <time>2014-05-04T12:51:11Z</time>
      </trkpt>
      <trkpt lat="48.9382" lon="2.30448">
        <ele>18.24</ele>
        <time>2014-05-04T12:51:14Z</time>
      </trkpt>
      <trkpt lat="48.93828" lon="2.30422">
        <ele>24.29</ele>
        <time>2014-05-04T12:51:25Z</time>
      </trkpt>
      <trkpt lat="48.93844" lon="2.30403">
        <ele>25.58</ele>
        <time>2014-05-04T12:52:05Z</time>
      </trkpt>
      <trkpt lat="48.93864" lon="2.304">
        <ele>26.39</ele>
        <time>2014-05-04T12:52:11Z</time>
      </trkpt>
      <trkpt lat="48.93883" lon="2.30399">
        <ele>28.2</ele>
        <time>2014-05-04T12:52:16Z</time>
      </trkpt>
      <trkpt lat="48.93904" lon="2.30397">
        <ele>29.35</ele>
        <time>2014-05-04T12:52:21Z</time>
      </trkpt>
      <trkpt lat="48.93925" lon="2.30395">
        <ele>27.26</ele>
        <time>2014-05-04T12:52:26Z</time>
      </trkpt>
      <trkpt lat="48.93944" lon="2.30391">
        <ele>28.29</ele>
        <time>2014-05-04T12:52:31Z</time>
      </trkpt>
      <trkpt lat="48.93963" lon="2.30379">
        <ele>28.89</ele>
        <time>2014-05-04T12:52:37Z</time>
      </trkpt>
      <trkpt lat="48.93983" lon="2.3038">
        <ele>29.41</ele>
        <time>2014-05-04T12:52:44Z</time>
      </trkpt>
      <trkpt lat="48.94001" lon="2.30372">
        <ele>28.67</ele>
        <time>2014-05-04T12:52:51Z</time>
      </trkpt>
      <trkpt lat="48.93996" lon="2.30341">
        <ele>26.13</ele>
        <time>2014-05-04T12:53:13Z</time>
      </trkpt>
      <trkpt lat="48.93992" lon="2.30314">
        <ele>24.84</ele>
        <time>2014-05-04T12:53:19Z</time>
      </trkpt>
      <trkpt lat="48.93989" lon="2.30285">
        <ele>23.5</ele>
        <time>2014-05-04T12:53:26Z</time>
      </trkpt>
      <trkpt lat="48.93988" lon="2.30256">
        <ele>25.49</ele>
        <time>2014-05-04T12:53:34Z</time>
      </trkpt>
      <trkpt lat="48.94002" lon="2.30235">
        <ele>23.68</ele>
        <time>2014-05-04T12:53:44Z</time>
      </trkpt>
      <trkpt lat="48.94001" lon="2.30202">
        <ele>23.42</ele>
        <time>2014-05-04T12:53:50Z</time>
      </trkpt>
      <trkpt lat="48.94003" lon="2.30172">
        <ele>23.6</ele>
        <time>2014-05-04T12:53:54Z</time>
      </trkpt>
      <trkpt lat="48.94006" lon="2.30143">
        <ele>24.86</ele>
        <time>2014-05-04T12:53:58Z</time>
      </trkpt>
      <trkpt lat="48.9401" lon="2.30112">
        <ele>23.63</ele>
        <time>2014-05-04T12:54:02Z</time>
      </trkpt>
      <trkpt lat="48.94017" lon="2.30083">
        <ele>22.8</ele>
        <time>2014-05-04T12:54:06Z</time>
      </trkpt>
      <trkpt lat="48.94024" lon="2.30053">
        <ele>24.31</ele>
        <time>2014-05-04T12:54:10Z</time>
      </trkpt>
      <trkpt lat="48.94032" lon="2.30024">
        <ele>25.34</ele>
        <time>2014-05-04T12:54:14Z</time>
      </trkpt>
      <trkpt lat="48.94039" lon="2.29994">
        <ele>25.84</ele>
        <time>2014-05-04T12:54:18Z</time>
      </trkpt>
      <trkpt lat="48.94046" lon="2.29967">
        <ele>24.13</ele>
        <time>2014-05-04T12:54:22Z</time>
      </trkpt>
      <trkpt lat="48.94052" lon="2.2994">
        <ele>23.64</ele>
        <time>2014-05-04T12:54:26Z</time>
      </trkpt>
      <trkpt lat="48.94058" lon="2.29912">
        <ele>26.05</ele>
        <time>2014-05-04T12:54:30Z</time>
      </trkpt>
      <trkpt lat="48.94065" lon="2.29884">
        <ele>27.45</ele>
        <time>2014-05-04T12:54:34Z</time>
      </trkpt>
      <trkpt lat="48.94074" lon="2.29855">
        <ele>26.23</ele>
        <time>2014-05-04T12:54:38Z</time>
      </trkpt>
      <trkpt lat="48.94081" lon="2.29825">
        <ele>24.46</ele>
        <time>2014-05-04T12:54:42Z</time>
      </trkpt>
      <trkpt lat="48.94088" lon="2.29795">
        <ele>24.79</ele>
        <time>2014-05-04T12:54:46Z</time>
      </trkpt>
      <trkpt lat="48.94094" lon="2.29762">
        <ele>26</ele>
        <time>2014-05-04T12:54:50Z</time>
      </trkpt>
      <trkpt lat="48.94102" lon="2.2973">
        <ele>26.95</ele>
        <time>2014-05-04T12:54:54Z</time>
      </trkpt>
      <trkpt lat="48.9411" lon="2.29698">
        <ele>25.88</ele>
        <time>2014-05-04T12:54:58Z</time>
      </trkpt>
      <trkpt lat="48.94118" lon="2.29667">
        <ele>25.63</ele>
        <time>2014-05-04T12:55:02Z</time>
      </trkpt>
      <trkpt lat="48.94125" lon="2.29637">
        <ele>24.74</ele>
        <time>2014-05-04T12:55:06Z</time>
      </trkpt>
      <trkpt lat="48.94132" lon="2.29605">
        <ele>24.49</ele>
        <time>2014-05-04T12:55:10Z</time>
      </trkpt>
      <trkpt lat="48.94139" lon="2.29578">
        <ele>24.17</ele>
        <time>2014-05-04T12:55:14Z</time>
      </trkpt>
      <trkpt lat="48.9414" lon="2.29547">
        <ele>25.1</ele>
        <time>2014-05-04T12:55:19Z</time>
      </trkpt>
      <trkpt lat="48.94132" lon="2.29518">
        <ele>26.98</ele>
        <time>2014-05-04T12:55:25Z</time>
      </trkpt>
      <trkpt lat="48.94138" lon="2.2949">
        <ele>26.26</ele>
        <time>2014-05-04T12:55:31Z</time>
      </trkpt>
      <trkpt lat="48.94153" lon="2.29473">
        <ele>29.5</ele>
        <time>2014-05-04T12:55:51Z</time>
      </trkpt>
      <trkpt lat="48.94151" lon="2.29441">
        <ele>25.84</ele>
        <time>2014-05-04T12:55:58Z</time>
      </trkpt>
      <trkpt lat="48.94138" lon="2.29412">
        <ele>24.18</ele>
        <time>2014-05-04T12:56:03Z</time>
      </trkpt>
      <trkpt lat="48.94126" lon="2.29384">
        <ele>25.27</ele>
        <time>2014-05-04T12:56:07Z</time>
      </trkpt>
      <trkpt lat="48.94119" lon="2.29351">
        <ele>27.4</ele>
        <time>2014-05-04T12:56:11Z</time>
      </trkpt>
      <trkpt lat="48.94109" lon="2.29327">
        <ele>27.85</ele>
        <time>2014-05-04T12:56:15Z</time>
      </trkpt>
      <trkpt lat="48.94099" lon="2.29298">
        <ele>27.69</ele>
        <time>2014-05-04T12:56:19Z</time>
      </trkpt>
      <trkpt lat="48.94095" lon="2.2927">
        <ele>26.68</ele>
        <time>2014-05-04T12:56:23Z</time>
      </trkpt>
      <trkpt lat="48.94093" lon="2.29241">
        <ele>27.12</ele>
        <time>2014-05-04T12:56:27Z</time>
      </trkpt>
      <trkpt lat="48.94091" lon="2.29208">
        <ele>27.58</ele>
        <time>2014-05-04T12:56:31Z</time>
      </trkpt>
      <trkpt lat="48.94084" lon="2.29179">
        <ele>27.61</ele>
        <time>2014-05-04T12:56:34Z</time>
      </trkpt>
      <trkpt lat="48.94069" lon="2.29163">
        <ele>25.61</ele>
        <time>2014-05-04T12:56:38Z</time>
      </trkpt>
      <trkpt lat="48.94065" lon="2.29134">
        <ele>24.17</ele>
        <time>2014-05-04T12:56:42Z</time>
      </trkpt>
      <trkpt lat="48.94061" lon="2.29104">
        <ele>22.33</ele>
        <time>2014-05-04T12:56:46Z</time>
      </trkpt>
      <trkpt lat="48.94053" lon="2.29077">
        <ele>23.28</ele>
        <time>2014-05-04T12:56:50Z</time>
      </trkpt>
      <trkpt lat="48.94051" lon="2.29045">
        <ele>26.97</ele>
        <time>2014-05-04T12:56:54Z</time>
      </trkpt>
      <trkpt lat="48.94047" lon="2.29017">
        <ele>28.45</ele>
        <time>2014-05-04T12:56:58Z</time>
      </trkpt>
      <trkpt lat="48.94041" lon="2.28987">
        <ele>29.73</ele>
        <time>2014-05-04T12:57:02Z</time>
      </trkpt>
      <trkpt lat="48.94034" lon="2.28958">
        <ele>27.37</ele>
        <time>2014-05-04T12:57:06Z</time>
      </trkpt>
      <trkpt lat="48.94027" lon="2.28927">
        <ele>24.85</ele>
        <time>2014-05-04T12:57:10Z</time>
      </trkpt>
      <trkpt lat="48.94022" lon="2.28897">
        <ele>24.06</ele>
        <time>2014-05-04T12:57:14Z</time>
      </trkpt>
      <trkpt lat="48.94016" lon="2.28868">
        <ele>24.14</ele>
        <time>2014-05-04T12:57:18Z</time>
      </trkpt>
      <trkpt lat="48.9401" lon="2.28839">
        <ele>24.71</ele>
        <time>2014-05-04T12:57:22Z</time>
      </trkpt>
      <trkpt lat="48.94005" lon="2.28813">
        <ele>25.18</ele>
        <time>2014-05-04T12:57:26Z</time>
      </trkpt>
      <trkpt lat="48.93999" lon="2.28783">
        <ele>25.96</ele>
        <time>2014-05-04T12:57:30Z</time>
      </trkpt>
      <trkpt lat="48.93994" lon="2.28755">
        <ele>27.57</ele>
        <time>2014-05-04T12:57:34Z</time>
      </trkpt>
      <trkpt lat="48.93988" lon="2.28724">
        <ele>26.73</ele>
        <time>2014-05-04T12:57:38Z</time>
      </trkpt>
      <trkpt lat="48.93984" lon="2.28695">
        <ele>26.43</ele>
        <time>2014-05-04T12:57:42Z</time>
      </trkpt>
      <trkpt lat="48.93978" lon="2.28663">
        <ele>25.23</ele>
        <time>2014-05-04T12:57:47Z</time>
      </trkpt>
      <trkpt lat="48.93968" lon="2.28632">
        <ele>25.1</ele>
        <time>2014-05-04T12:57:52Z</time>
      </trkpt>
      <trkpt lat="48.93962" lon="2.28605">
        <ele>23.89</ele>
        <time>2014-05-04T12:57:56Z</time>
      </trkpt>
      <trkpt lat="48.93957" lon="2.28576">
        <ele>24.9</ele>
        <time>2014-05-04T12:57:59Z</time>
      </trkpt>
      <trkpt lat="48.93948" lon="2.28542">
        <ele>24.09</ele>
        <time>2014-05-04T12:58:04Z</time>
      </trkpt>
      <trkpt lat="48.93939" lon="2.28514">
        <ele>23.27</ele>
        <time>2014-05-04T12:58:08Z</time>
      </trkpt>
      <trkpt lat="48.93933" lon="2.28481">
        <ele>24.4</ele>
        <time>2014-05-04T12:58:12Z</time>
      </trkpt>
      <trkpt lat="48.93928" lon="2.28453">
        <ele>25.97</ele>
        <time>2014-05-04T12:58:16Z</time>
      </trkpt>
      <trkpt lat="48.93923" lon="2.28426">
        <ele>25.66</ele>
        <time>2014-05-04T12:58:19Z</time>
      </trkpt>
      <trkpt lat="48.93917" lon="2.28395">
        <ele>26.18</ele>
        <time>2014-05-04T12:58:23Z</time>
      </trkpt>
      <trkpt lat="48.93909" lon="2.2836">
        <ele>30.08</ele>
        <time>2014-05-04T12:58:27Z</time>
      </trkpt>
      <trkpt lat="48.93901" lon="2.28331">
        <ele>34.16</ele>
        <time>2014-05-04T12:58:32Z</time>
      </trkpt>
      <trkpt lat="48.93896" lon="2.28304">
        <ele>34.46</ele>
        <time>2014-05-04T12:58:36Z</time>
      </trkpt>
      <trkpt lat="48.93894" lon="2.28276">
        <ele>34.73</ele>
        <time>2014-05-04T12:58:40Z</time>
      </trkpt>
      <trkpt lat="48.93888" lon="2.28242">
        <ele>34.12</ele>
        <time>2014-05-04T12:58:44Z</time>
      </trkpt>
      <trkpt lat="48.93881" lon="2.28212">
        <ele>34.45</ele>
        <time>2014-05-04T12:58:50Z</time>
      </trkpt>
      <trkpt lat="48.93879" lon="2.28183">
        <ele>35.22</ele>
        <time>2014-05-04T12:58:53Z</time>
      </trkpt>
      <trkpt lat="48.93874" lon="2.28157">
        <ele>35.51</ele>
        <time>2014-05-04T12:58:55Z</time>
      </trkpt>
      <trkpt lat="48.93866" lon="2.28128">
        <ele>37.11</ele>
        <time>2014-05-04T12:59:00Z</time>
      </trkpt>
      <trkpt lat="48.93857" lon="2.28099">
        <ele>38.52</ele>
        <time>2014-05-04T12:59:04Z</time>
      </trkpt>
      <trkpt lat="48.93857" lon="2.28066">
        <ele>36.01</ele>
        <time>2014-05-04T12:59:09Z</time>
      </trkpt>
      <trkpt lat="48.93849" lon="2.28041">
        <ele>33.72</ele>
        <time>2014-05-04T12:59:14Z</time>
      </trkpt>
      <trkpt lat="48.93842" lon="2.28011">
        <ele>30.83</ele>
        <time>2014-05-04T12:59:19Z</time>
      </trkpt>
      <trkpt lat="48.93834" lon="2.27982">
        <ele>27.87</ele>
        <time>2014-05-04T12:59:23Z</time>
      </trkpt>
      <trkpt lat="48.93829" lon="2.27956">
        <ele>27.81</ele>
        <time>2014-05-04T12:59:28Z</time>
      </trkpt>
      <trkpt lat="48.93823" lon="2.27929">
        <ele>29.96</ele>
        <time>2014-05-04T12:59:33Z</time>
      </trkpt>
      <trkpt lat="48.93818" lon="2.27899">
        <ele>29.06</ele>
        <time>2014-05-04T12:59:38Z</time>
      </trkpt>
      <trkpt lat="48.93816" lon="2.27867">
        <ele>27.69</ele>
        <time>2014-05-04T12:59:43Z</time>
      </trkpt>
      <trkpt lat="48.93823" lon="2.27837">
        <ele>30.05</ele>
        <time>2014-05-04T12:59:47Z</time>
      </trkpt>
      <trkpt lat="48.93815" lon="2.27808">
        <ele>31.95</ele>
        <time>2014-05-04T12:59:51Z</time>
      </trkpt>
      <trkpt lat="48.93802" lon="2.27784">
        <ele>32.87</ele>
        <time>2014-05-04T12:59:56Z</time>
      </trkpt>
      <trkpt lat="48.93794" lon="2.27758">
        <ele>31.75</ele>
        <time>2014-05-04T13:00:00Z</time>
      </trkpt>
      <trkpt lat="48.93788" lon="2.27732">
        <ele>34.12</ele>
        <time>2014-05-04T13:00:04Z</time>
      </trkpt>
      <trkpt lat="48.93782" lon="2.277">
        <ele>34.77</ele>
        <time>2014-05-04T13:00:08Z</time>
      </trkpt>
      <trkpt lat="48.93777" lon="2.27671">
        <ele>35.31</ele>
        <time>2014-05-04T13:00:12Z</time>
      </trkpt>
      <trkpt lat="48.9377" lon="2.27642">
        <ele>34.51</ele>
        <time>2014-05-04T13:00:17Z</time>
      </trkpt>
      <trkpt lat="48.93764" lon="2.27615">
        <ele>28.39</ele>
        <time>2014-05-04T13:00:22Z</time>
      </trkpt>
      <trkpt lat="48.93759" lon="2.27589">
        <ele>29.1</ele>
        <time>2014-05-04T13:00:26Z</time>
      </trkpt>
      <trkpt lat="48.93753" lon="2.27561">
        <ele>30</ele>
        <time>2014-05-04T13:00:31Z</time>
      </trkpt>
      <trkpt lat="48.93747" lon="2.27531">
        <ele>30.25</ele>
        <time>2014-05-04T13:00:36Z</time>
      </trkpt>
      <trkpt lat="48.9374" lon="2.27504">
        <ele>29.84</ele>
        <time>2014-05-04T13:00:40Z</time>
      </trkpt>
      <trkpt lat="48.93735" lon="2.27475">
        <ele>27.44</ele>
        <time>2014-05-04T13:00:44Z</time>
      </trkpt>
      <trkpt lat="48.93729" lon="2.27445">
        <ele>25.85</ele>
        <time>2014-05-04T13:00:48Z</time>
      </trkpt>
      <trkpt lat="48.93721" lon="2.27414">
        <ele>27.93</ele>
        <time>2014-05-04T13:00:53Z</time>
      </trkpt>
      <trkpt lat="48.93716" lon="2.27382">
        <ele>26.88</ele>
        <time>2014-05-04T13:00:57Z</time>
      </trkpt>
      <trkpt lat="48.93709" lon="2.27353">
        <ele>25.57</ele>
        <time>2014-05-04T13:01:01Z</time>
      </trkpt>
      <trkpt lat="48.93703" lon="2.27326">
        <ele>21.86</ele>
        <time>2014-05-04T13:01:05Z</time>
      </trkpt>
      <trkpt lat="48.93694" lon="2.27295">
        <ele>20.56</ele>
        <time>2014-05-04T13:01:10Z</time>
      </trkpt>
      <trkpt lat="48.93688" lon="2.27262">
        <ele>20.11</ele>
        <time>2014-05-04T13:01:14Z</time>
      </trkpt>
      <trkpt lat="48.93682" lon="2.27228">
        <ele>20.52</ele>
        <time>2014-05-04T13:01:18Z</time>
      </trkpt>
      <trkpt lat="48.93675" lon="2.27196">
        <ele>19.17</ele>
        <time>2014-05-04T13:01:23Z</time>
      </trkpt>
      <trkpt lat="48.93669" lon="2.27165">
        <ele>17.08</ele>
        <time>2014-05-04T13:01:27Z</time>
      </trkpt>
      <trkpt lat="48.93663" lon="2.27136">
        <ele>15.02</ele>
        <time>2014-05-04T13:01:31Z</time>
      </trkpt>
      <trkpt lat="48.93659" lon="2.27103">
        <ele>14.51</ele>
        <time>2014-05-04T13:01:35Z</time>
      </trkpt>
      <trkpt lat="48.93652" lon="2.27076">
        <ele>17.6</ele>
        <time>2014-05-04T13:01:39Z</time>
      </trkpt>
      <trkpt lat="48.93645" lon="2.27046">
        <ele>19.49</ele>
        <time>2014-05-04T13:01:43Z</time>
      </trkpt>
      <trkpt lat="48.93639" lon="2.27014">
        <ele>20.04</ele>
        <time>2014-05-04T13:01:47Z</time>
      </trkpt>
      <trkpt lat="48.93634" lon="2.26984">
        <ele>20.01</ele>
        <time>2014-05-04T13:01:51Z</time>
      </trkpt>
      <trkpt lat="48.9363" lon="2.26955">
        <ele>20.82</ele>
        <time>2014-05-04T13:01:55Z</time>
      </trkpt>
      <trkpt lat="48.93622" lon="2.26929">
        <ele>22</ele>
        <time>2014-05-04T13:01:59Z</time>
      </trkpt>
      <trkpt lat="48.93617" lon="2.26902">
        <ele>22.26</ele>
        <time>2014-05-04T13:02:03Z</time>
      </trkpt>
      <trkpt lat="48.93612" lon="2.26876">
        <ele>22.65</ele>
        <time>2014-05-04T13:02:07Z</time>
      </trkpt>
      <trkpt lat="48.93605" lon="2.26845">
        <ele>23.99</ele>
        <time>2014-05-04T13:02:12Z</time>
      </trkpt>
      <trkpt lat="48.93601" lon="2.26813">
        <ele>25.34</ele>
        <time>2014-05-04T13:02:17Z</time>
      </trkpt>
      <trkpt lat="48.93595" lon="2.26784">
        <ele>25.6</ele>
        <time>2014-05-04T13:02:22Z</time>
      </trkpt>
      <trkpt lat="48.93597" lon="2.26756">
        <ele>28.11</ele>
        <time>2014-05-04T13:02:27Z</time>
      </trkpt>
      <trkpt lat="48.93612" lon="2.26732">
        <ele>26.29</ele>
        <time>2014-05-04T13:02:33Z</time>
      </trkpt>
      <trkpt lat="48.93615" lon="2.267">
        <ele>26.34</ele>
        <time>2014-05-04T13:02:39Z</time>
      </trkpt>
      <trkpt lat="48.93605" lon="2.26678">
        <ele>26.13</ele>
        <time>2014-05-04T13:02:44Z</time>
      </trkpt>
      <trkpt lat="48.93587" lon="2.26668">
        <ele>27.5</ele>
        <time>2014-05-04T13:02:49Z</time>
      </trkpt>
      <trkpt lat="48.93571" lon="2.26652">
        <ele>28.91</ele>
        <time>2014-05-04T13:02:57Z</time>
      </trkpt>
      <trkpt lat="48.93561" lon="2.26627">
        <ele>25.66</ele>
        <time>2014-05-04T13:03:33Z</time>
      </trkpt>
      <trkpt lat="48.93548" lon="2.26606">
        <ele>26.31</ele>
        <time>2014-05-04T13:03:40Z</time>
      </trkpt>
      <trkpt lat="48.9353" lon="2.26595">
        <ele>30.29</ele>
        <time>2014-05-04T13:03:51Z</time>
      </trkpt>
      <trkpt lat="48.93514" lon="2.26576">
        <ele>31.48</ele>
        <time>2014-05-04T13:03:57Z</time>
      </trkpt>
      <trkpt lat="48.93497" lon="2.26555">
        <ele>30.64</ele>
        <time>2014-05-04T13:04:02Z</time>
      </trkpt>
      <trkpt lat="48.93481" lon="2.2654">
        <ele>29.21</ele>
        <time>2014-05-04T13:04:07Z</time>
      </trkpt>
      <trkpt lat="48.93461" lon="2.26524">
        <ele>29.5</ele>
        <time>2014-05-04T13:04:12Z</time>
      </trkpt>
      <trkpt lat="48.93445" lon="2.26511">
        <ele>28.54</ele>
        <time>2014-05-04T13:04:16Z</time>
      </trkpt>
      <trkpt lat="48.93427" lon="2.265">
        <ele>27.29</ele>
        <time>2014-05-04T13:04:20Z</time>
      </trkpt>
      <trkpt lat="48.93407" lon="2.26486">
        <ele>30.23</ele>
        <time>2014-05-04T13:04:25Z</time>
      </trkpt>
      <trkpt lat="48.93389" lon="2.26476">
        <ele>34.32</ele>
        <time>2014-05-04T13:04:30Z</time>
      </trkpt>
      <trkpt lat="48.93373" lon="2.26463">
        <ele>31.79</ele>
        <time>2014-05-04T13:04:36Z</time>
      </trkpt>
      <trkpt lat="48.93376" lon="2.26432">
        <ele>25.71</ele>
        <time>2014-05-04T13:04:44Z</time>
      </trkpt>
      <trkpt lat="48.93391" lon="2.26414">
        <ele>23.13</ele>
        <time>2014-05-04T13:04:51Z</time>
      </trkpt>
      <trkpt lat="48.93402" lon="2.26387">
        <ele>22.31</ele>
        <time>2014-05-04T13:04:58Z</time>
      </trkpt>
      <trkpt lat="48.93416" lon="2.26365">
        <ele>24.66</ele>
        <time>2014-05-04T13:05:03Z</time>
      </trkpt>
      <trkpt lat="48.9343" lon="2.26337">
        <ele>27.05</ele>
        <time>2014-05-04T13:05:08Z</time>
      </trkpt>
      <trkpt lat="48.93443" lon="2.26318">
        <ele>25.79</ele>
        <time>2014-05-04T13:05:11Z</time>
      </trkpt>
      <trkpt lat="48.93455" lon="2.26294">
        <ele>26.06</ele>
        <time>2014-05-04T13:05:15Z</time>
      </trkpt>
      <trkpt lat="48.9347" lon="2.26271">
        <ele>25.26</ele>
        <time>2014-05-04T13:05:19Z</time>
      </trkpt>
      <trkpt lat="48.93484" lon="2.26248">
        <ele>25.03</ele>
        <time>2014-05-04T13:05:23Z</time>
      </trkpt>
      <trkpt lat="48.93495" lon="2.26219">
        <ele>26.39</ele>
        <time>2014-05-04T13:05:27Z</time>
      </trkpt>
      <trkpt lat="48.93511" lon="2.26199">
        <ele>28.41</ele>
        <time>2014-05-04T13:05:31Z</time>
      </trkpt>
      <trkpt lat="48.93526" lon="2.26182">
        <ele>29.92</ele>
        <time>2014-05-04T13:05:36Z</time>
      </trkpt>
      <trkpt lat="48.9354" lon="2.26158">
        <ele>30.12</ele>
        <time>2014-05-04T13:05:42Z</time>
      </trkpt>
      <trkpt lat="48.93555" lon="2.26134">
        <ele>32.26</ele>
        <time>2014-05-04T13:05:48Z</time>
      </trkpt>
      <trkpt lat="48.93567" lon="2.26113">
        <ele>32.61</ele>
        <time>2014-05-04T13:05:54Z</time>
      </trkpt>
      <trkpt lat="48.93582" lon="2.26089">
        <ele>29.89</ele>
        <time>2014-05-04T13:06:12Z</time>
      </trkpt>
      <trkpt lat="48.93597" lon="2.26064">
        <ele>29.19</ele>
        <time>2014-05-04T13:06:16Z</time>
      </trkpt>
      <trkpt lat="48.9361" lon="2.26042">
        <ele>27.81</ele>
        <time>2014-05-04T13:06:19Z</time>
      </trkpt>
      <trkpt lat="48.93622" lon="2.2602">
        <ele>26.01</ele>
        <time>2014-05-04T13:06:22Z</time>
      </trkpt>
      <trkpt lat="48.93639" lon="2.25994">
        <ele>25.76</ele>
        <time>2014-05-04T13:06:26Z</time>
      </trkpt>
      <trkpt lat="48.93654" lon="2.2597">
        <ele>25.31</ele>
        <time>2014-05-04T13:06:30Z</time>
      </trkpt>
      <trkpt lat="48.93667" lon="2.25947">
        <ele>25.57</ele>
        <time>2014-05-04T13:06:33Z</time>
      </trkpt>
      <trkpt lat="48.93682" lon="2.25925">
        <ele>24.55</ele>
        <time>2014-05-04T13:06:37Z</time>
      </trkpt>
      <trkpt lat="48.93698" lon="2.25902">
        <ele>27.29</ele>
        <time>2014-05-04T13:06:41Z</time>
      </trkpt>
      <trkpt lat="48.93713" lon="2.25884">
        <ele>25.72</ele>
        <time>2014-05-04T13:06:45Z</time>
      </trkpt>
      <trkpt lat="48.93733" lon="2.25868">
        <ele>23.97</ele>
        <time>2014-05-04T13:06:51Z</time>
      </trkpt>
      <trkpt lat="48.93746" lon="2.2585">
        <ele>23.76</ele>
        <time>2014-05-04T13:06:55Z</time>
      </trkpt>
      <trkpt lat="48.93761" lon="2.2583">
        <ele>24.25</ele>
        <time>2014-05-04T13:06:59Z</time>
      </trkpt>
      <trkpt lat="48.93777" lon="2.25812">
        <ele>23.4</ele>
        <time>2014-05-04T13:07:03Z</time>
      </trkpt>
      <trkpt lat="48.93793" lon="2.25791">
        <ele>24.35</ele>
        <time>2014-05-04T13:07:08Z</time>
      </trkpt>
      <trkpt lat="48.93807" lon="2.25771">
        <ele>24.45</ele>
        <time>2014-05-04T13:07:13Z</time>
      </trkpt>
      <trkpt lat="48.93823" lon="2.25749">
        <ele>25.26</ele>
        <time>2014-05-04T13:07:18Z</time>
      </trkpt>
      <trkpt lat="48.93836" lon="2.2573">
        <ele>26.4</ele>
        <time>2014-05-04T13:07:22Z</time>
      </trkpt>
      <trkpt lat="48.93852" lon="2.25711">
        <ele>28.29</ele>
        <time>2014-05-04T13:07:27Z</time>
      </trkpt>
      <trkpt lat="48.93867" lon="2.25695">
        <ele>29.7</ele>
        <time>2014-05-04T13:07:33Z</time>
      </trkpt>
      <trkpt lat="48.93881" lon="2.2568">
        <ele>30.39</ele>
        <time>2014-05-04T13:07:39Z</time>
      </trkpt>
      <trkpt lat="48.93897" lon="2.25662">
        <ele>31.95</ele>
        <time>2014-05-04T13:07:45Z</time>
      </trkpt>
      <trkpt lat="48.93912" lon="2.25646">
        <ele>31.24</ele>
        <time>2014-05-04T13:07:51Z</time>
      </trkpt>
      <trkpt lat="48.93927" lon="2.2563">
        <ele>30.11</ele>
        <time>2014-05-04T13:08:00Z</time>
      </trkpt>
      <trkpt lat="48.93921" lon="2.25601">
        <ele>31.8</ele>
        <time>2014-05-04T13:08:45Z</time>
      </trkpt>
      <trkpt lat="48.93911" lon="2.25573">
        <ele>32.13</ele>
        <time>2014-05-04T13:08:48Z</time>
      </trkpt>
      <trkpt lat="48.93901" lon="2.25546">
        <ele>29.05</ele>
        <time>2014-05-04T13:08:51Z</time>
      </trkpt>
      <trkpt lat="48.93892" lon="2.2552">
        <ele>27.04</ele>
        <time>2014-05-04T13:08:54Z</time>
      </trkpt>
      <trkpt lat="48.93881" lon="2.25492">
        <ele>27.54</ele>
        <time>2014-05-04T13:08:57Z</time>
      </trkpt>
      <trkpt lat="48.93872" lon="2.25458">
        <ele>28.1</ele>
        <time>2014-05-04T13:09:00Z</time>
      </trkpt>
      <trkpt lat="48.93861" lon="2.25429">
        <ele>29.17</ele>
        <time>2014-05-04T13:09:03Z</time>
      </trkpt>
      <trkpt lat="48.93851" lon="2.25404">
        <ele>27.81</ele>
        <time>2014-05-04T13:09:06Z</time>
      </trkpt>
      <trkpt lat="48.93841" lon="2.2538">
        <ele>28.51</ele>
        <time>2014-05-04T13:09:09Z</time>
      </trkpt>
      <trkpt lat="48.9383" lon="2.25347">
        <ele>28.35</ele>
        <time>2014-05-04T13:09:13Z</time>
      </trkpt>
      <trkpt lat="48.93819" lon="2.25315">
        <ele>32.41</ele>
        <time>2014-05-04T13:09:17Z</time>
      </trkpt>
      <trkpt lat="48.93811" lon="2.25291">
        <ele>33.34</ele>
        <time>2014-05-04T13:09:20Z</time>
      </trkpt>
      <trkpt lat="48.93801" lon="2.25263">
        <ele>32.66</ele>
        <time>2014-05-04T13:09:24Z</time>
      </trkpt>
      <trkpt lat="48.93794" lon="2.25235">
        <ele>34.68</ele>
        <time>2014-05-04T13:09:28Z</time>
      </trkpt>
      <trkpt lat="48.9378" lon="2.25206">
        <ele>31.68</ele>
        <time>2014-05-04T13:09:32Z</time>
      </trkpt>
      <trkpt lat="48.93766" lon="2.25182">
        <ele>31.12</ele>
        <time>2014-05-04T13:09:36Z</time>
      </trkpt>
      <trkpt lat="48.93752" lon="2.25159">
        <ele>35.02</ele>
        <time>2014-05-04T13:09:40Z</time>
      </trkpt>
      <trkpt lat="48.93738" lon="2.25138">
        <ele>35.76</ele>
        <time>2014-05-04T13:09:44Z</time>
      </trkpt>
      <trkpt lat="48.93727" lon="2.25113">
        <ele>34.93</ele>
        <time>2014-05-04T13:09:48Z</time>
      </trkpt>
      <trkpt lat="48.93711" lon="2.25092">
        <ele>37.94</ele>
        <time>2014-05-04T13:09:52Z</time>
      </trkpt>
      <trkpt lat="48.93702" lon="2.25064">
        <ele>43.82</ele>
        <time>2014-05-04T13:09:56Z</time>
      </trkpt>
      <trkpt lat="48.93696" lon="2.25032">
        <ele>46.69</ele>
        <time>2014-05-04T13:10:00Z</time>
      </trkpt>
      <trkpt lat="48.93683" lon="2.25011">
        <ele>46.49</ele>
        <time>2014-05-04T13:10:04Z</time>
      </trkpt>
      <trkpt lat="48.93678" lon="2.2498">
        <ele>46.29</ele>
        <time>2014-05-04T13:10:08Z</time>
      </trkpt>
      <trkpt lat="48.93673" lon="2.24949">
        <ele>46.28</ele>
        <time>2014-05-04T13:10:12Z</time>
      </trkpt>
      <trkpt lat="48.93659" lon="2.24924">
        <ele>45.65</ele>
        <time>2014-05-04T13:10:16Z</time>
      </trkpt>
      <trkpt lat="48.9365" lon="2.24898">
        <ele>44.43</ele>
        <time>2014-05-04T13:10:20Z</time>
      </trkpt>
      <trkpt lat="48.9364" lon="2.24871">
        <ele>42.47</ele>
        <time>2014-05-04T13:10:24Z</time>
      </trkpt>
      <trkpt lat="48.93621" lon="2.24853">
        <ele>40.91</ele>
        <time>2014-05-04T13:10:28Z</time>
      </trkpt>
      <trkpt lat="48.9361" lon="2.24831">
        <ele>38.63</ele>
        <time>2014-05-04T13:10:32Z</time>
      </trkpt>
      <trkpt lat="48.93595" lon="2.24814">
        <ele>36.05</ele>
        <time>2014-05-04T13:10:37Z</time>
      </trkpt>
      <trkpt lat="48.93583" lon="2.24789">
        <ele>36.98</ele>
        <time>2014-05-04T13:10:45Z</time>
      </trkpt>
      <trkpt lat="48.93564" lon="2.24789">
        <ele>28.92</ele>
        <time>2014-05-04T13:11:30Z</time>
      </trkpt>
      <trkpt lat="48.93545" lon="2.24795">
        <ele>27.71</ele>
        <time>2014-05-04T13:11:40Z</time>
      </trkpt>
      <trkpt lat="48.93526" lon="2.24799">
        <ele>25.81</ele>
        <time>2014-05-04T13:11:50Z</time>
      </trkpt>
      <trkpt lat="48.93508" lon="2.24803">
        <ele>24.58</ele>
        <time>2014-05-04T13:12:04Z</time>
      </trkpt>
      <trkpt lat="48.93489" lon="2.2481">
        <ele>26.87</ele>
        <time>2014-05-04T13:12:39Z</time>
      </trkpt>
      <trkpt lat="48.9347" lon="2.24816">
        <ele>26.58</ele>
        <time>2014-05-04T13:12:50Z</time>
      </trkpt>
      <trkpt lat="48.93452" lon="2.24821">
        <ele>25.74</ele>
        <time>2014-05-04T13:13:00Z</time>
      </trkpt>
      <trkpt lat="48.93433" lon="2.24828">
        <ele>26.17</ele>
        <time>2014-05-04T13:13:10Z</time>
      </trkpt>
      <trkpt lat="48.93415" lon="2.24834">
        <ele>28.4</ele>
        <time>2014-05-04T13:13:19Z</time>
      </trkpt>
      <trkpt lat="48.93394" lon="2.24834">
        <ele>28.61</ele>
        <time>2014-05-04T13:13:30Z</time>
      </trkpt>
      <trkpt lat="48.93374" lon="2.24824">
        <ele>29.03</ele>
        <time>2014-05-04T13:13:36Z</time>
      </trkpt>
      <trkpt lat="48.93358" lon="2.24809">
        <ele>28.62</ele>
        <time>2014-05-04T13:13:41Z</time>
      </trkpt>
      <trkpt lat="48.93343" lon="2.24793">
        <ele>25.42</ele>
        <time>2014-05-04T13:13:45Z</time>
      </trkpt>
      <trkpt lat="48.93328" lon="2.24775">
        <ele>27.45</ele>
        <time>2014-05-04T13:13:50Z</time>
      </trkpt>
      <trkpt lat="48.93313" lon="2.24756">
        <ele>25.98</ele>
        <time>2014-05-04T13:13:54Z</time>
      </trkpt>
      <trkpt lat="48.93296" lon="2.24735">
        <ele>23.9</ele>
        <time>2014-05-04T13:13:59Z</time>
      </trkpt>
      <trkpt lat="48.93282" lon="2.2471">
        <ele>23.75</ele>
        <time>2014-05-04T13:14:04Z</time>
      </trkpt>
      <trkpt lat="48.93268" lon="2.24688">
        <ele>24.87</ele>
        <time>2014-05-04T13:14:08Z</time>
      </trkpt>
      <trkpt lat="48.93254" lon="2.24666">
        <ele>23.43</ele>
        <time>2014-05-04T13:14:13Z</time>
      </trkpt>
      <trkpt lat="48.93242" lon="2.24644">
        <ele>24.1</ele>
        <time>2014-05-04T13:14:17Z</time>
      </trkpt>
      <trkpt lat="48.93228" lon="2.24626">
        <ele>25.7</ele>
        <time>2014-05-04T13:14:21Z</time>
      </trkpt>
      <trkpt lat="48.93214" lon="2.24605">
        <ele>26.37</ele>
        <time>2014-05-04T13:14:25Z</time>
      </trkpt>
      <trkpt lat="48.932" lon="2.24585">
        <ele>26.6</ele>
        <time>2014-05-04T13:14:29Z</time>
      </trkpt>
      <trkpt lat="48.93185" lon="2.24563">
        <ele>26.86</ele>
        <time>2014-05-04T13:14:33Z</time>
      </trkpt>
      <trkpt lat="48.93173" lon="2.2454">
        <ele>27.69</ele>
        <time>2014-05-04T13:14:37Z</time>
      </trkpt>
      <trkpt lat="48.93162" lon="2.24518">
        <ele>26.68</ele>
        <time>2014-05-04T13:14:41Z</time>
      </trkpt>
      <trkpt lat="48.93149" lon="2.24491">
        <ele>26.05</ele>
        <time>2014-05-04T13:14:46Z</time>
      </trkpt>
      <trkpt lat="48.93136" lon="2.24465">
        <ele>25.66</ele>
        <time>2014-05-04T13:14:51Z</time>
      </trkpt>
      <trkpt lat="48.93124" lon="2.24438">
        <ele>27.08</ele>
        <time>2014-05-04T13:14:57Z</time>
      </trkpt>
      <trkpt lat="48.93113" lon="2.24415">
        <ele>28.56</ele>
        <time>2014-05-04T13:15:02Z</time>
      </trkpt>
      <trkpt lat="48.93108" lon="2.24387">
        <ele>27.86</ele>
        <time>2014-05-04T13:15:07Z</time>
      </trkpt>
      <trkpt lat="48.93099" lon="2.2436">
        <ele>26.47</ele>
        <time>2014-05-04T13:15:21Z</time>
      </trkpt>
      <trkpt lat="48.93086" lon="2.24334">
        <ele>25.23</ele>
        <time>2014-05-04T13:15:26Z</time>
      </trkpt>
      <trkpt lat="48.93075" lon="2.24312">
        <ele>23.9</ele>
        <time>2014-05-04T13:15:30Z</time>
      </trkpt>
      <trkpt lat="48.93066" lon="2.24286">
        <ele>24.38</ele>
        <time>2014-05-04T13:15:34Z</time>
      </trkpt>
      <trkpt lat="48.93059" lon="2.24255">
        <ele>25.82</ele>
        <time>2014-05-04T13:15:39Z</time>
      </trkpt>
      <trkpt lat="48.93048" lon="2.24231">
        <ele>26.63</ele>
        <time>2014-05-04T13:15:45Z</time>
      </trkpt>
      <trkpt lat="48.93059" lon="2.24257">
        <ele>25.89</ele>
        <time>2014-05-04T13:15:57Z</time>
      </trkpt>
      <trkpt lat="48.9307" lon="2.24283">
        <ele>25.15</ele>
        <time>2014-05-04T13:16:03Z</time>
      </trkpt>
      <trkpt lat="48.93087" lon="2.24272">
        <ele>22.12</ele>
        <time>2014-05-04T13:16:12Z</time>
      </trkpt>
      <trkpt lat="48.93093" lon="2.24245">
        <ele>22.52</ele>
        <time>2014-05-04T13:16:21Z</time>
      </trkpt>
      <trkpt lat="48.93111" lon="2.24228">
        <ele>22.86</ele>
        <time>2014-05-04T13:16:26Z</time>
      </trkpt>
      <trkpt lat="48.93128" lon="2.24214">
        <ele>23.59</ele>
        <time>2014-05-04T13:16:31Z</time>
      </trkpt>
      <trkpt lat="48.93126" lon="2.24186">
        <ele>23.61</ele>
        <time>2014-05-04T13:16:41Z</time>
      </trkpt>
      <trkpt lat="48.93131" lon="2.24214">
        <ele>27.09</ele>
        <time>2014-05-04T13:17:00Z</time>
      </trkpt>
      <trkpt lat="48.93115" lon="2.24228">
        <ele>26.64</ele>
        <time>2014-05-04T13:17:08Z</time>
      </trkpt>
      <trkpt lat="48.93097" lon="2.24244">
        <ele>24.78</ele>
        <time>2014-05-04T13:17:14Z</time>
      </trkpt>
      <trkpt lat="48.93083" lon="2.24262">
        <ele>21.08</ele>
        <time>2014-05-04T13:17:22Z</time>
      </trkpt>
      <trkpt lat="48.93102" lon="2.2426">
        <ele>21.78</ele>
        <time>2014-05-04T13:17:32Z</time>
      </trkpt>
      <trkpt lat="48.93118" lon="2.24246">
        <ele>22.05</ele>
        <time>2014-05-04T13:17:49Z</time>
      </trkpt>
      <trkpt lat="48.93133" lon="2.24231">
        <ele>23.13</ele>
        <time>2014-05-04T13:18:05Z</time>
      </trkpt>
      <trkpt lat="48.93149" lon="2.24212">
        <ele>23.7</ele>
        <time>2014-05-04T13:18:22Z</time>
      </trkpt>
      <trkpt lat="48.93165" lon="2.24197">
        <ele>22.67</ele>
        <time>2014-05-04T13:18:31Z</time>
      </trkpt>
      <trkpt lat="48.93171" lon="2.2417">
        <ele>23.2</ele>
        <time>2014-05-04T13:18:55Z</time>
      </trkpt>
      <trkpt lat="48.93162" lon="2.24147">
        <ele>19.27</ele>
        <time>2014-05-04T13:19:14Z</time>
      </trkpt>
      <trkpt lat="48.9315" lon="2.24124">
        <ele>22.15</ele>
        <time>2014-05-04T13:19:29Z</time>
      </trkpt>
      <trkpt lat="48.9314" lon="2.24101">
        <ele>23.05</ele>
        <time>2014-05-04T13:19:44Z</time>
      </trkpt>
      <trkpt lat="48.93129" lon="2.24076">
        <ele>22.13</ele>
        <time>2014-05-04T13:20:10Z</time>
      </trkpt>
      <trkpt lat="48.93121" lon="2.24051">
        <ele>22.69</ele>
        <time>2014-05-04T13:20:15Z</time>
      </trkpt>
      <trkpt lat="48.93112" lon="2.24026">
        <ele>23.8</ele>
        <time>2014-05-04T13:20:20Z</time>
      </trkpt>
      <trkpt lat="48.93101" lon="2.24001">
        <ele>22.74</ele>
        <time>2014-05-04T13:20:25Z</time>
      </trkpt>
      <trkpt lat="48.93092" lon="2.23976">
        <ele>23.93</ele>
        <time>2014-05-04T13:20:30Z</time>
      </trkpt>
      <trkpt lat="48.93083" lon="2.23951">
        <ele>27.31</ele>
        <time>2014-05-04T13:20:35Z</time>
      </trkpt>
      <trkpt lat="48.93073" lon="2.23926">
        <ele>29.62</ele>
        <time>2014-05-04T13:20:41Z</time>
      </trkpt>
      <trkpt lat="48.93062" lon="2.23904">
        <ele>27</ele>
        <time>2014-05-04T13:20:47Z</time>
      </trkpt>
      <trkpt lat="48.9305" lon="2.2388">
        <ele>29.51</ele>
        <time>2014-05-04T13:20:53Z</time>
      </trkpt>
      <trkpt lat="48.93038" lon="2.23854">
        <ele>25.27</ele>
        <time>2014-05-04T13:20:59Z</time>
      </trkpt>
      <trkpt lat="48.93025" lon="2.2383">
        <ele>23.87</ele>
        <time>2014-05-04T13:21:05Z</time>
      </trkpt>
      <trkpt lat="48.93015" lon="2.23803">
        <ele>24.6</ele>
        <time>2014-05-04T13:21:11Z</time>
      </trkpt>
      <trkpt lat="48.93005" lon="2.23777">
        <ele>22.75</ele>
        <time>2014-05-04T13:21:17Z</time>
      </trkpt>
      <trkpt lat="48.92993" lon="2.23751">
        <ele>21.58</ele>
        <time>2014-05-04T13:21:24Z</time>
      </trkpt>
      <trkpt lat="48.9298" lon="2.23726">
        <ele>22.56</ele>
        <time>2014-05-04T13:21:30Z</time>
      </trkpt>
      <trkpt lat="48.92969" lon="2.23701">
        <ele>21.72</ele>
        <time>2014-05-04T13:21:36Z</time>
      </trkpt>
      <trkpt lat="48.92956" lon="2.23679">
        <ele>22.5</ele>
        <time>2014-05-04T13:21:42Z</time>
      </trkpt>
      <trkpt lat="48.92943" lon="2.23653">
        <ele>22.61</ele>
        <time>2014-05-04T13:21:48Z</time>
      </trkpt>
      <trkpt lat="48.9293" lon="2.23627">
        <ele>22.11</ele>
        <time>2014-05-04T13:21:54Z</time>
      </trkpt>
      <trkpt lat="48.92919" lon="2.23604">
        <ele>19.94</ele>
        <time>2014-05-04T13:21:59Z</time>
      </trkpt>
      <trkpt lat="48.92905" lon="2.23579">
        <ele>19.07</ele>
        <time>2014-05-04T13:22:05Z</time>
      </trkpt>
      <trkpt lat="48.92893" lon="2.23553">
        <ele>23.02</ele>
        <time>2014-05-04T13:22:11Z</time>
      </trkpt>
      <trkpt lat="48.9288" lon="2.23533">
        <ele>20.5</ele>
        <time>2014-05-04T13:22:16Z</time>
      </trkpt>
      <trkpt lat="48.92867" lon="2.23509">
        <ele>15.95</ele>
        <time>2014-05-04T13:22:22Z</time>
      </trkpt>
      <trkpt lat="48.92854" lon="2.23486">
        <ele>17.47</ele>
        <time>2014-05-04T13:22:27Z</time>
      </trkpt>
      <trkpt lat="48.92843" lon="2.2346">
        <ele>20.04</ele>
        <time>2014-05-04T13:22:32Z</time>
      </trkpt>
      <trkpt lat="48.92829" lon="2.23437">
        <ele>16.94</ele>
        <time>2014-05-04T13:22:37Z</time>
      </trkpt>
      <trkpt lat="48.92815" lon="2.23416">
        <ele>18.31</ele>
        <time>2014-05-04T13:22:42Z</time>
      </trkpt>
      <trkpt lat="48.92802" lon="2.23395">
        <ele>22.29</ele>
        <time>2014-05-04T13:22:47Z</time>
      </trkpt>
      <trkpt lat="48.9279" lon="2.23372">
        <ele>20.76</ele>
        <time>2014-05-04T13:22:53Z</time>
      </trkpt>
      <trkpt lat="48.92779" lon="2.23346">
        <ele>20.38</ele>
        <time>2014-05-04T13:22:59Z</time>
      </trkpt>
      <trkpt lat="48.92763" lon="2.23325">
        <ele>21.39</ele>
        <time>2014-05-04T13:23:04Z</time>
      </trkpt>
      <trkpt lat="48.92753" lon="2.23302">
        <ele>26.85</ele>
        <time>2014-05-04T13:23:09Z</time>
      </trkpt>
      <trkpt lat="48.92744" lon="2.23277">
        <ele>31.34</ele>
        <time>2014-05-04T13:23:14Z</time>
      </trkpt>
      <trkpt lat="48.92729" lon="2.23253">
        <ele>28.23</ele>
        <time>2014-05-04T13:23:20Z</time>
      </trkpt>
      <trkpt lat="48.92713" lon="2.23234">
        <ele>27.07</ele>
        <time>2014-05-04T13:23:25Z</time>
      </trkpt>
      <trkpt lat="48.92701" lon="2.23211">
        <ele>25.94</ele>
        <time>2014-05-04T13:23:30Z</time>
      </trkpt>
      <trkpt lat="48.92689" lon="2.23187">
        <ele>26.25</ele>
        <time>2014-05-04T13:23:35Z</time>
      </trkpt>
      <trkpt lat="48.92677" lon="2.23164">
        <ele>23.16</ele>
        <time>2014-05-04T13:23:40Z</time>
      </trkpt>
      <trkpt lat="48.92667" lon="2.23138">
        <ele>22.68</ele>
        <time>2014-05-04T13:23:46Z</time>
      </trkpt>
      <trkpt lat="48.92652" lon="2.2312">
        <ele>22.97</ele>
        <time>2014-05-04T13:23:54Z</time>
      </trkpt>
      <trkpt lat="48.92634" lon="2.23103">
        <ele>16.05</ele>
        <time>2014-05-04T13:24:00Z</time>
      </trkpt>
      <trkpt lat="48.92618" lon="2.23082">
        <ele>18.41</ele>
        <time>2014-05-04T13:24:05Z</time>
      </trkpt>
      <trkpt lat="48.92607" lon="2.23056">
        <ele>24.2</ele>
        <time>2014-05-04T13:24:10Z</time>
      </trkpt>
      <trkpt lat="48.92593" lon="2.23032">
        <ele>24.57</ele>
        <time>2014-05-04T13:24:15Z</time>
      </trkpt>
      <trkpt lat="48.92578" lon="2.23014">
        <ele>28.36</ele>
        <time>2014-05-04T13:24:20Z</time>
      </trkpt>
      <trkpt lat="48.92564" lon="2.22996">
        <ele>29.29</ele>
        <time>2014-05-04T13:24:25Z</time>
      </trkpt>
      <trkpt lat="48.9255" lon="2.22977">
        <ele>26.4</ele>
        <time>2014-05-04T13:24:31Z</time>
      </trkpt>
      <trkpt lat="48.92536" lon="2.22955">
        <ele>26.93</ele>
        <time>2014-05-04T13:24:38Z</time>
      </trkpt>
      <trkpt lat="48.92519" lon="2.22936">
        <ele>23.71</ele>
        <time>2014-05-04T13:24:43Z</time>
      </trkpt>
      <trkpt lat="48.92504" lon="2.22921">
        <ele>22.12</ele>
        <time>2014-05-04T13:24:47Z</time>
      </trkpt>
      <trkpt lat="48.92487" lon="2.22901">
        <ele>21.6</ele>
        <time>2014-05-04T13:24:52Z</time>
      </trkpt>
      <trkpt lat="48.92471" lon="2.22882">
        <ele>19.8</ele>
        <time>2014-05-04T13:24:57Z</time>
      </trkpt>
      <trkpt lat="48.92456" lon="2.22862">
        <ele>20.59</ele>
        <time>2014-05-04T13:25:02Z</time>
      </trkpt>
      <trkpt lat="48.92441" lon="2.2284">
        <ele>20.36</ele>
        <time>2014-05-04T13:25:07Z</time>
      </trkpt>
      <trkpt lat="48.92427" lon="2.22822">
        <ele>23.23</ele>
        <time>2014-05-04T13:25:12Z</time>
      </trkpt>
      <trkpt lat="48.92413" lon="2.22799">
        <ele>23.39</ele>
        <time>2014-05-04T13:25:18Z</time>
      </trkpt>
      <trkpt lat="48.92399" lon="2.22779">
        <ele>21.95</ele>
        <time>2014-05-04T13:25:23Z</time>
      </trkpt>
      <trkpt lat="48.92383" lon="2.22759">
        <ele>21.66</ele>
        <time>2014-05-04T13:25:29Z</time>
      </trkpt>
      <trkpt lat="48.92372" lon="2.22736">
        <ele>25.18</ele>
        <time>2014-05-04T13:25:34Z</time>
      </trkpt>
      <trkpt lat="48.9236" lon="2.22715">
        <ele>29.41</ele>
        <time>2014-05-04T13:25:39Z</time>
      </trkpt>
      <trkpt lat="48.92346" lon="2.22694">
        <ele>28.48</ele>
        <time>2014-05-04T13:25:44Z</time>
      </trkpt>
      <trkpt lat="48.92332" lon="2.22669">
        <ele>23.09</ele>
        <time>2014-05-04T13:25:50Z</time>
      </trkpt>
      <trkpt lat="48.92317" lon="2.2265">
        <ele>23.94</ele>
        <time>2014-05-04T13:25:55Z</time>
      </trkpt>
      <trkpt lat="48.92304" lon="2.22631">
        <ele>23.34</ele>
        <time>2014-05-04T13:26:00Z</time>
      </trkpt>
      <trkpt lat="48.92291" lon="2.22607">
        <ele>27.53</ele>
        <time>2014-05-04T13:26:06Z</time>
      </trkpt>
      <trkpt lat="48.92275" lon="2.22588">
        <ele>28.2</ele>
        <time>2014-05-04T13:26:11Z</time>
      </trkpt>
      <trkpt lat="48.92263" lon="2.22567">
        <ele>23.44</ele>
        <time>2014-05-04T13:26:16Z</time>
      </trkpt>
      <trkpt lat="48.9225" lon="2.22547">
        <ele>21.66</ele>
        <time>2014-05-04T13:26:20Z</time>
      </trkpt>
      <trkpt lat="48.92237" lon="2.22525">
        <ele>18.43</ele>
        <time>2014-05-04T13:26:25Z</time>
      </trkpt>
      <trkpt lat="48.92224" lon="2.22504">
        <ele>22.45</ele>
        <time>2014-05-04T13:26:31Z</time>
      </trkpt>
      <trkpt lat="48.92213" lon="2.22479">
        <ele>23.54</ele>
        <time>2014-05-04T13:26:38Z</time>
      </trkpt>
      <trkpt lat="48.92199" lon="2.22461">
        <ele>21.48</ele>
        <time>2014-05-04T13:26:42Z</time>
      </trkpt>
      <trkpt lat="48.92186" lon="2.22441">
        <ele>19.79</ele>
        <time>2014-05-04T13:26:47Z</time>
      </trkpt>
      <trkpt lat="48.92171" lon="2.22417">
        <ele>21.38</ele>
        <time>2014-05-04T13:26:53Z</time>
      </trkpt>
      <trkpt lat="48.92157" lon="2.22398">
        <ele>23.51</ele>
        <time>2014-05-04T13:26:58Z</time>
      </trkpt>
      <trkpt lat="48.92143" lon="2.22374">
        <ele>21.58</ele>
        <time>2014-05-04T13:27:04Z</time>
      </trkpt>
      <trkpt lat="48.92129" lon="2.22351">
        <ele>21.73</ele>
        <time>2014-05-04T13:27:09Z</time>
      </trkpt>
      <trkpt lat="48.92114" lon="2.22332">
        <ele>20.18</ele>
        <time>2014-05-04T13:27:14Z</time>
      </trkpt>
      <trkpt lat="48.921" lon="2.22311">
        <ele>21.45</ele>
        <time>2014-05-04T13:27:20Z</time>
      </trkpt>
      <trkpt lat="48.92088" lon="2.22289">
        <ele>20.86</ele>
        <time>2014-05-04T13:27:26Z</time>
      </trkpt>
      <trkpt lat="48.92074" lon="2.22268">
        <ele>20.11</ele>
        <time>2014-05-04T13:27:32Z</time>
      </trkpt>
      <trkpt lat="48.92064" lon="2.22245">
        <ele>20.57</ele>
        <time>2014-05-04T13:27:39Z</time>
      </trkpt>
      <trkpt lat="48.92052" lon="2.22224">
        <ele>18.13</ele>
        <time>2014-05-04T13:27:46Z</time>
      </trkpt>
      <trkpt lat="48.92036" lon="2.22208">
        <ele>19.04</ele>
        <time>2014-05-04T13:27:53Z</time>
      </trkpt>
      <trkpt lat="48.92026" lon="2.22185">
        <ele>20.34</ele>
        <time>2014-05-04T13:28:01Z</time>
      </trkpt>
      <trkpt lat="48.92025" lon="2.22157">
        <ele>19.74</ele>
        <time>2014-05-04T13:28:25Z</time>
      </trkpt>
      <trkpt lat="48.92013" lon="2.22135">
        <ele>20.85</ele>
        <time>2014-05-04T13:28:34Z</time>
      </trkpt>
      <trkpt lat="48.91996" lon="2.22121">
        <ele>19.64</ele>
        <time>2014-05-04T13:28:41Z</time>
      </trkpt>
      <trkpt lat="48.91987" lon="2.22097">
        <ele>19.15</ele>
        <time>2014-05-04T13:28:58Z</time>
      </trkpt>
      <trkpt lat="48.91974" lon="2.22078">
        <ele>23.47</ele>
        <time>2014-05-04T13:29:07Z</time>
      </trkpt>
      <trkpt lat="48.91958" lon="2.22064">
        <ele>22.65</ele>
        <time>2014-05-04T13:29:18Z</time>
      </trkpt>
      <trkpt lat="48.9194" lon="2.22053">
        <ele>20.68</ele>
        <time>2014-05-04T13:29:28Z</time>
      </trkpt>
      <trkpt lat="48.91925" lon="2.22034">
        <ele>21.58</ele>
        <time>2014-05-04T13:29:33Z</time>
      </trkpt>
      <trkpt lat="48.91911" lon="2.22012">
        <ele>20.74</ele>
        <time>2014-05-04T13:29:38Z</time>
      </trkpt>
      <trkpt lat="48.91897" lon="2.21993">
        <ele>20.86</ele>
        <time>2014-05-04T13:29:43Z</time>
      </trkpt>
      <trkpt lat="48.91882" lon="2.21975">
        <ele>20.15</ele>
        <time>2014-05-04T13:29:48Z</time>
      </trkpt>
      <trkpt lat="48.91869" lon="2.21955">
        <ele>22.16</ele>
        <time>2014-05-04T13:29:53Z</time>
      </trkpt>
      <trkpt lat="48.91856" lon="2.21934">
        <ele>21.78</ele>
        <time>2014-05-04T13:29:58Z</time>
      </trkpt>
      <trkpt lat="48.91841" lon="2.21914">
        <ele>20.82</ele>
        <time>2014-05-04T13:30:04Z</time>
      </trkpt>
      <trkpt lat="48.91825" lon="2.21897">
        <ele>19.9</ele>
        <time>2014-05-04T13:30:10Z</time>
      </trkpt>
      <trkpt lat="48.9181" lon="2.21876">
        <ele>22.07</ele>
        <time>2014-05-04T13:30:16Z</time>
      </trkpt>
      <trkpt lat="48.91797" lon="2.21854">
        <ele>22.09</ele>
        <time>2014-05-04T13:30:22Z</time>
      </trkpt>
      <trkpt lat="48.91781" lon="2.21832">
        <ele>22.06</ele>
        <time>2014-05-04T13:30:27Z</time>
      </trkpt>
      <trkpt lat="48.91767" lon="2.21812">
        <ele>20.76</ele>
        <time>2014-05-04T13:30:31Z</time>
      </trkpt>
      <trkpt lat="48.91753" lon="2.21789">
        <ele>20.27</ele>
        <time>2014-05-04T13:30:36Z</time>
      </trkpt>
      <trkpt lat="48.91738" lon="2.21767">
        <ele>21.04</ele>
        <time>2014-05-04T13:30:41Z</time>
      </trkpt>
      <trkpt lat="48.91723" lon="2.2175">
        <ele>22.83</ele>
        <time>2014-05-04T13:30:45Z</time>
      </trkpt>
      <trkpt lat="48.91708" lon="2.21728">
        <ele>22.56</ele>
        <time>2014-05-04T13:30:50Z</time>
      </trkpt>
      <trkpt lat="48.91692" lon="2.21709">
        <ele>21.98</ele>
        <time>2014-05-04T13:30:54Z</time>
      </trkpt>
      <trkpt lat="48.91678" lon="2.21687">
        <ele>23.21</ele>
        <time>2014-05-04T13:31:00Z</time>
      </trkpt>
      <trkpt lat="48.91663" lon="2.21663">
        <ele>21.54</ele>
        <time>2014-05-04T13:31:05Z</time>
      </trkpt>
      <trkpt lat="48.91649" lon="2.21644">
        <ele>21.48</ele>
        <time>2014-05-04T13:31:10Z</time>
      </trkpt>
      <trkpt lat="48.91634" lon="2.21625">
        <ele>22.48</ele>
        <time>2014-05-04T13:31:15Z</time>
      </trkpt>
      <trkpt lat="48.91618" lon="2.216">
        <ele>23.08</ele>
        <time>2014-05-04T13:31:20Z</time>
      </trkpt>
      <trkpt lat="48.91606" lon="2.21579">
        <ele>23.88</ele>
        <time>2014-05-04T13:31:25Z</time>
      </trkpt>
      <trkpt lat="48.91591" lon="2.21562">
        <ele>23.54</ele>
        <time>2014-05-04T13:31:32Z</time>
      </trkpt>
      <trkpt lat="48.91575" lon="2.21542">
        <ele>22.41</ele>
        <time>2014-05-04T13:31:40Z</time>
      </trkpt>
      <trkpt lat="48.9156" lon="2.2152">
        <ele>21.62</ele>
        <time>2014-05-04T13:31:46Z</time>
      </trkpt>
      <trkpt lat="48.91546" lon="2.215">
        <ele>22.8</ele>
        <time>2014-05-04T13:31:51Z</time>
      </trkpt>
      <trkpt lat="48.91532" lon="2.2148">
        <ele>21.65</ele>
        <time>2014-05-04T13:31:56Z</time>
      </trkpt>
      <trkpt lat="48.91519" lon="2.21457">
        <ele>20.92</ele>
        <time>2014-05-04T13:32:01Z</time>
      </trkpt>
      <trkpt lat="48.91506" lon="2.21438">
        <ele>20.63</ele>
        <time>2014-05-04T13:32:05Z</time>
      </trkpt>
      <trkpt lat="48.91486" lon="2.21416">
        <ele>19.86</ele>
        <time>2014-05-04T13:32:10Z</time>
      </trkpt>
      <trkpt lat="48.91471" lon="2.2139">
        <ele>19.65</ele>
        <time>2014-05-04T13:32:15Z</time>
      </trkpt>
      <trkpt lat="48.91458" lon="2.21369">
        <ele>17.02</ele>
        <time>2014-05-04T13:32:20Z</time>
      </trkpt>
      <trkpt lat="48.91445" lon="2.21346">
        <ele>17.37</ele>
        <time>2014-05-04T13:32:25Z</time>
      </trkpt>
      <trkpt lat="48.91431" lon="2.21326">
        <ele>17.54</ele>
        <time>2014-05-04T13:32:30Z</time>
      </trkpt>
      <trkpt lat="48.91417" lon="2.21305">
        <ele>18.86</ele>
        <time>2014-05-04T13:32:44Z</time>
      </trkpt>
      <trkpt lat="48.91403" lon="2.21283">
        <ele>17.63</ele>
        <time>2014-05-04T13:32:52Z</time>
      </trkpt>
      <trkpt lat="48.9139" lon="2.21263">
        <ele>17.63</ele>
        <time>2014-05-04T13:32:59Z</time>
      </trkpt>
      <trkpt lat="48.91379" lon="2.21241">
        <ele>20.22</ele>
        <time>2014-05-04T13:33:08Z</time>
      </trkpt>
      <trkpt lat="48.91364" lon="2.2122">
        <ele>20.98</ele>
        <time>2014-05-04T13:33:15Z</time>
      </trkpt>
      <trkpt lat="48.91351" lon="2.21199">
        <ele>21.65</ele>
        <time>2014-05-04T13:33:20Z</time>
      </trkpt>
      <trkpt lat="48.91337" lon="2.21175">
        <ele>22.58</ele>
        <time>2014-05-04T13:33:26Z</time>
      </trkpt>
      <trkpt lat="48.91325" lon="2.21151">
        <ele>22.33</ele>
        <time>2014-05-04T13:33:32Z</time>
      </trkpt>
      <trkpt lat="48.91311" lon="2.21128">
        <ele>22.24</ele>
        <time>2014-05-04T13:33:39Z</time>
      </trkpt>
      <trkpt lat="48.91298" lon="2.21107">
        <ele>23.35</ele>
        <time>2014-05-04T13:33:44Z</time>
      </trkpt>
      <trkpt lat="48.91279" lon="2.21081">
        <ele>20.26</ele>
        <time>2014-05-04T13:33:49Z</time>
      </trkpt>
      <trkpt lat="48.91268" lon="2.21057">
        <ele>18.78</ele>
        <time>2014-05-04T13:33:53Z</time>
      </trkpt>
      <trkpt lat="48.91253" lon="2.21028">
        <ele>19.5</ele>
        <time>2014-05-04T13:33:57Z</time>
      </trkpt>
      <trkpt lat="48.91239" lon="2.21001">
        <ele>21.92</ele>
        <time>2014-05-04T13:34:02Z</time>
      </trkpt>
      <trkpt lat="48.91229" lon="2.20975">
        <ele>22.21</ele>
        <time>2014-05-04T13:34:07Z</time>
      </trkpt>
      <trkpt lat="48.91215" lon="2.20955">
        <ele>21.35</ele>
        <time>2014-05-04T13:34:12Z</time>
      </trkpt>
      <trkpt lat="48.912" lon="2.20932">
        <ele>18.98</ele>
        <time>2014-05-04T13:34:17Z</time>
      </trkpt>
      <trkpt lat="48.91184" lon="2.20912">
        <ele>20.37</ele>
        <time>2014-05-04T13:34:22Z</time>
      </trkpt>
      <trkpt lat="48.9117" lon="2.20887">
        <ele>20.58</ele>
        <time>2014-05-04T13:34:29Z</time>
      </trkpt>
      <trkpt lat="48.91158" lon="2.20867">
        <ele>21.3</ele>
        <time>2014-05-04T13:34:33Z</time>
      </trkpt>
      <trkpt lat="48.91144" lon="2.20844">
        <ele>22.34</ele>
        <time>2014-05-04T13:34:37Z</time>
      </trkpt>
      <trkpt lat="48.9113" lon="2.20821">
        <ele>21.73</ele>
        <time>2014-05-04T13:34:42Z</time>
      </trkpt>
      <trkpt lat="48.91116" lon="2.20798">
        <ele>21.49</ele>
        <time>2014-05-04T13:34:47Z</time>
      </trkpt>
      <trkpt lat="48.91103" lon="2.20778">
        <ele>20.76</ele>
        <time>2014-05-04T13:34:52Z</time>
      </trkpt>
      <trkpt lat="48.9109" lon="2.20758">
        <ele>20.58</ele>
        <time>2014-05-04T13:34:57Z</time>
      </trkpt>
      <trkpt lat="48.91077" lon="2.20732">
        <ele>21.42</ele>
        <time>2014-05-04T13:35:03Z</time>
      </trkpt>
      <trkpt lat="48.91066" lon="2.20706">
        <ele>22.31</ele>
        <time>2014-05-04T13:35:09Z</time>
      </trkpt>
      <trkpt lat="48.91059" lon="2.20679">
        <ele>22.07</ele>
        <time>2014-05-04T13:35:14Z</time>
      </trkpt>
      <trkpt lat="48.91051" lon="2.20652">
        <ele>20.75</ele>
        <time>2014-05-04T13:35:19Z</time>
      </trkpt>
      <trkpt lat="48.91047" lon="2.20625">
        <ele>19.37</ele>
        <time>2014-05-04T13:35:24Z</time>
      </trkpt>
      <trkpt lat="48.91042" lon="2.20593">
        <ele>20.1</ele>
        <time>2014-05-04T13:35:29Z</time>
      </trkpt>
      <trkpt lat="48.91025" lon="2.20574">
        <ele>19.1</ele>
        <time>2014-05-04T13:35:34Z</time>
      </trkpt>
      <trkpt lat="48.91009" lon="2.20558">
        <ele>17.34</ele>
        <time>2014-05-04T13:35:39Z</time>
      </trkpt>
      <trkpt lat="48.90995" lon="2.20534">
        <ele>19.43</ele>
        <time>2014-05-04T13:35:45Z</time>
      </trkpt>
      <trkpt lat="48.90985" lon="2.20509">
        <ele>17.39</ele>
        <time>2014-05-04T13:35:50Z</time>
      </trkpt>
      <trkpt lat="48.90974" lon="2.20486">
        <ele>14.67</ele>
        <time>2014-05-04T13:35:56Z</time>
      </trkpt>
      <trkpt lat="48.90963" lon="2.20459">
        <ele>15</ele>
        <time>2014-05-04T13:36:02Z</time>
      </trkpt>
      <trkpt lat="48.90953" lon="2.20434">
        <ele>16.34</ele>
        <time>2014-05-04T13:36:07Z</time>
      </trkpt>
      <trkpt lat="48.90943" lon="2.2041">
        <ele>18.6</ele>
        <time>2014-05-04T13:36:12Z</time>
      </trkpt>
      <trkpt lat="48.9093" lon="2.20384">
        <ele>18.83</ele>
        <time>2014-05-04T13:36:18Z</time>
      </trkpt>
      <trkpt lat="48.90919" lon="2.20358">
        <ele>18.66</ele>
        <time>2014-05-04T13:36:24Z</time>
      </trkpt>
      <trkpt lat="48.90908" lon="2.20331">
        <ele>18.83</ele>
        <time>2014-05-04T13:36:30Z</time>
      </trkpt>
      <trkpt lat="48.90897" lon="2.20309">
        <ele>19.4</ele>
        <time>2014-05-04T13:36:35Z</time>
      </trkpt>
      <trkpt lat="48.90887" lon="2.20283">
        <ele>19.58</ele>
        <time>2014-05-04T13:36:41Z</time>
      </trkpt>
      <trkpt lat="48.90876" lon="2.20258">
        <ele>18.39</ele>
        <time>2014-05-04T13:36:48Z</time>
      </trkpt>
      <trkpt lat="48.90866" lon="2.20235">
        <ele>17.67</ele>
        <time>2014-05-04T13:36:54Z</time>
      </trkpt>
      <trkpt lat="48.90856" lon="2.20212">
        <ele>16.71</ele>
        <time>2014-05-04T13:37:00Z</time>
      </trkpt>
      <trkpt lat="48.90847" lon="2.20188">
        <ele>15.92</ele>
        <time>2014-05-04T13:37:07Z</time>
      </trkpt>
      <trkpt lat="48.90835" lon="2.20161">
        <ele>15.86</ele>
        <time>2014-05-04T13:37:14Z</time>
      </trkpt>
      <trkpt lat="48.90822" lon="2.20134">
        <ele>15.8</ele>
        <time>2014-05-04T13:37:20Z</time>
      </trkpt>
      <trkpt lat="48.90813" lon="2.20109">
        <ele>16.36</ele>
        <time>2014-05-04T13:37:26Z</time>
      </trkpt>
      <trkpt lat="48.90807" lon="2.20079">
        <ele>18.57</ele>
        <time>2014-05-04T13:37:33Z</time>
      </trkpt>
      <trkpt lat="48.908" lon="2.20049">
        <ele>19.95</ele>
        <time>2014-05-04T13:37:39Z</time>
      </trkpt>
      <trkpt lat="48.90789" lon="2.20022">
        <ele>18.91</ele>
        <time>2014-05-04T13:37:45Z</time>
      </trkpt>
      <trkpt lat="48.90779" lon="2.19998">
        <ele>20.46</ele>
        <time>2014-05-04T13:37:50Z</time>
      </trkpt>
      <trkpt lat="48.90768" lon="2.19974">
        <ele>21.55</ele>
        <time>2014-05-04T13:37:57Z</time>
      </trkpt>
      <trkpt lat="48.90753" lon="2.19955">
        <ele>21.88</ele>
        <time>2014-05-04T13:38:03Z</time>
      </trkpt>
      <trkpt lat="48.90739" lon="2.19935">
        <ele>22.21</ele>
        <time>2014-05-04T13:38:09Z</time>
      </trkpt>
      <trkpt lat="48.90729" lon="2.19909">
        <ele>24.82</ele>
        <time>2014-05-04T13:38:15Z</time>
      </trkpt>
      <trkpt lat="48.90718" lon="2.19882">
        <ele>24.07</ele>
        <time>2014-05-04T13:38:21Z</time>
      </trkpt>
      <trkpt lat="48.90706" lon="2.19856">
        <ele>23.62</ele>
        <time>2014-05-04T13:38:27Z</time>
      </trkpt>
      <trkpt lat="48.90696" lon="2.19831">
        <ele>23.11</ele>
        <time>2014-05-04T13:38:32Z</time>
      </trkpt>
      <trkpt lat="48.90684" lon="2.19805">
        <ele>20.69</ele>
        <time>2014-05-04T13:38:37Z</time>
      </trkpt>
      <trkpt lat="48.90674" lon="2.19781">
        <ele>21.49</ele>
        <time>2014-05-04T13:38:41Z</time>
      </trkpt>
      <trkpt lat="48.90664" lon="2.19757">
        <ele>22.48</ele>
        <time>2014-05-04T13:38:45Z</time>
      </trkpt>
      <trkpt lat="48.90652" lon="2.19732">
        <ele>23.23</ele>
        <time>2014-05-04T13:38:50Z</time>
      </trkpt>
      <trkpt lat="48.90637" lon="2.19706">
        <ele>22.85</ele>
        <time>2014-05-04T13:38:55Z</time>
      </trkpt>
      <trkpt lat="48.90622" lon="2.19683">
        <ele>22.06</ele>
        <time>2014-05-04T13:39:00Z</time>
      </trkpt>
      <trkpt lat="48.90609" lon="2.19661">
        <ele>20.56</ele>
        <time>2014-05-04T13:39:05Z</time>
      </trkpt>
      <trkpt lat="48.90595" lon="2.19642">
        <ele>16.05</ele>
        <time>2014-05-04T13:39:10Z</time>
      </trkpt>
      <trkpt lat="48.9058" lon="2.19621">
        <ele>19.44</ele>
        <time>2014-05-04T13:39:15Z</time>
      </trkpt>
      <trkpt lat="48.90566" lon="2.19599">
        <ele>22.2</ele>
        <time>2014-05-04T13:39:20Z</time>
      </trkpt>
      <trkpt lat="48.90552" lon="2.1958">
        <ele>24.54</ele>
        <time>2014-05-04T13:39:26Z</time>
      </trkpt>
      <trkpt lat="48.9054" lon="2.19559">
        <ele>28.05</ele>
        <time>2014-05-04T13:39:32Z</time>
      </trkpt>
      <trkpt lat="48.90525" lon="2.19539">
        <ele>26.23</ele>
        <time>2014-05-04T13:39:38Z</time>
      </trkpt>
      <trkpt lat="48.90509" lon="2.1952">
        <ele>25.32</ele>
        <time>2014-05-04T13:39:43Z</time>
      </trkpt>
      <trkpt lat="48.90495" lon="2.19498">
        <ele>25.78</ele>
        <time>2014-05-04T13:39:47Z</time>
      </trkpt>
      <trkpt lat="48.90485" lon="2.19475">
        <ele>29.75</ele>
        <time>2014-05-04T13:39:51Z</time>
      </trkpt>
      <trkpt lat="48.90469" lon="2.19452">
        <ele>27.99</ele>
        <time>2014-05-04T13:39:56Z</time>
      </trkpt>
      <trkpt lat="48.90452" lon="2.19434">
        <ele>25.74</ele>
        <time>2014-05-04T13:40:02Z</time>
      </trkpt>
      <trkpt lat="48.90437" lon="2.19414">
        <ele>22.83</ele>
        <time>2014-05-04T13:40:07Z</time>
      </trkpt>
      <trkpt lat="48.90421" lon="2.194">
        <ele>18.66</ele>
        <time>2014-05-04T13:40:13Z</time>
      </trkpt>
      <trkpt lat="48.9043" lon="2.19374">
        <ele>14.65</ele>
        <time>2014-05-04T13:40:22Z</time>
      </trkpt>
      <trkpt lat="48.90444" lon="2.19353">
        <ele>17.08</ele>
        <time>2014-05-04T13:40:28Z</time>
      </trkpt>
      <trkpt lat="48.90443" lon="2.19323">
        <ele>19.51</ele>
        <time>2014-05-04T13:40:34Z</time>
      </trkpt>
      <trkpt lat="48.90437" lon="2.19296">
        <ele>20.55</ele>
        <time>2014-05-04T13:40:39Z</time>
      </trkpt>
      <trkpt lat="48.9043" lon="2.1927">
        <ele>19.02</ele>
        <time>2014-05-04T13:40:44Z</time>
      </trkpt>
      <trkpt lat="48.90422" lon="2.19241">
        <ele>18.46</ele>
        <time>2014-05-04T13:40:50Z</time>
      </trkpt>
      <trkpt lat="48.90416" lon="2.19214">
        <ele>19.08</ele>
        <time>2014-05-04T13:40:55Z</time>
      </trkpt>
      <trkpt lat="48.90407" lon="2.19185">
        <ele>16.66</ele>
        <time>2014-05-04T13:41:00Z</time>
      </trkpt>
      <trkpt lat="48.90401" lon="2.19154">
        <ele>16.27</ele>
        <time>2014-05-04T13:41:05Z</time>
      </trkpt>
      <trkpt lat="48.90393" lon="2.19128">
        <ele>14.9</ele>
        <time>2014-05-04T13:41:09Z</time>
      </trkpt>
      <trkpt lat="48.90387" lon="2.19097">
        <ele>18.38</ele>
        <time>2014-05-04T13:41:13Z</time>
      </trkpt>
      <trkpt lat="48.90381" lon="2.1907">
        <ele>17.01</ele>
        <time>2014-05-04T13:41:18Z</time>
      </trkpt>
      <trkpt lat="48.90373" lon="2.19041">
        <ele>17.69</ele>
        <time>2014-05-04T13:41:23Z</time>
      </trkpt>
      <trkpt lat="48.90367" lon="2.19013">
        <ele>17.99</ele>
        <time>2014-05-04T13:41:27Z</time>
      </trkpt>
      <trkpt lat="48.90359" lon="2.18983">
        <ele>15.94</ele>
        <time>2014-05-04T13:41:32Z</time>
      </trkpt>
      <trkpt lat="48.9035" lon="2.18955">
        <ele>16.01</ele>
        <time>2014-05-04T13:41:36Z</time>
      </trkpt>
      <trkpt lat="48.90342" lon="2.18929">
        <ele>17.97</ele>
        <time>2014-05-04T13:41:41Z</time>
      </trkpt>
      <trkpt lat="48.90333" lon="2.189">
        <ele>12.99</ele>
        <time>2014-05-04T13:41:47Z</time>
      </trkpt>
      <trkpt lat="48.90326" lon="2.1887">
        <ele>11.56</ele>
        <time>2014-05-04T13:41:52Z</time>
      </trkpt>
      <trkpt lat="48.90319" lon="2.18843">
        <ele>11.3</ele>
        <time>2014-05-04T13:41:56Z</time>
      </trkpt>
      <trkpt lat="48.90312" lon="2.18816">
        <ele>12.78</ele>
        <time>2014-05-04T13:42:00Z</time>
      </trkpt>
      <trkpt lat="48.90306" lon="2.1879">
        <ele>13</ele>
        <time>2014-05-04T13:42:04Z</time>
      </trkpt>
      <trkpt lat="48.90299" lon="2.18758">
        <ele>12.87</ele>
        <time>2014-05-04T13:42:09Z</time>
      </trkpt>
      <trkpt lat="48.90293" lon="2.18729">
        <ele>14.18</ele>
        <time>2014-05-04T13:42:14Z</time>
      </trkpt>
      <trkpt lat="48.90288" lon="2.18702">
        <ele>12.94</ele>
        <time>2014-05-04T13:42:19Z</time>
      </trkpt>
      <trkpt lat="48.90283" lon="2.18675">
        <ele>15.76</ele>
        <time>2014-05-04T13:42:23Z</time>
      </trkpt>
      <trkpt lat="48.90276" lon="2.18642">
        <ele>15.71</ele>
        <time>2014-05-04T13:42:28Z</time>
      </trkpt>
      <trkpt lat="48.9027" lon="2.18614">
        <ele>18.02</ele>
        <time>2014-05-04T13:42:33Z</time>
      </trkpt>
      <trkpt lat="48.90268" lon="2.18587">
        <ele>19.32</ele>
        <time>2014-05-04T13:42:37Z</time>
      </trkpt>
      <trkpt lat="48.90262" lon="2.18561">
        <ele>16.35</ele>
        <time>2014-05-04T13:42:42Z</time>
      </trkpt>
      <trkpt lat="48.90255" lon="2.18533">
        <ele>15.73</ele>
        <time>2014-05-04T13:42:47Z</time>
      </trkpt>
      <trkpt lat="48.9025" lon="2.18503">
        <ele>17.18</ele>
        <time>2014-05-04T13:42:52Z</time>
      </trkpt>
      <trkpt lat="48.90245" lon="2.18474">
        <ele>18.45</ele>
        <time>2014-05-04T13:42:58Z</time>
      </trkpt>
      <trkpt lat="48.90243" lon="2.18446">
        <ele>18.98</ele>
        <time>2014-05-04T13:43:04Z</time>
      </trkpt>
      <trkpt lat="48.9024" lon="2.18415">
        <ele>20.04</ele>
        <time>2014-05-04T13:43:10Z</time>
      </trkpt>
      <trkpt lat="48.90231" lon="2.18386">
        <ele>19.26</ele>
        <time>2014-05-04T13:43:16Z</time>
      </trkpt>
      <trkpt lat="48.90223" lon="2.18357">
        <ele>19.41</ele>
        <time>2014-05-04T13:43:21Z</time>
      </trkpt>
      <trkpt lat="48.90217" lon="2.18329">
        <ele>17.17</ele>
        <time>2014-05-04T13:43:26Z</time>
      </trkpt>
      <trkpt lat="48.9021" lon="2.183">
        <ele>16.57</ele>
        <time>2014-05-04T13:43:31Z</time>
      </trkpt>
      <trkpt lat="48.90201" lon="2.18272">
        <ele>19.02</ele>
        <time>2014-05-04T13:43:36Z</time>
      </trkpt>
      <trkpt lat="48.90192" lon="2.18248">
        <ele>17.2</ele>
        <time>2014-05-04T13:43:40Z</time>
      </trkpt>
      <trkpt lat="48.90182" lon="2.18223">
        <ele>14.38</ele>
        <time>2014-05-04T13:43:45Z</time>
      </trkpt>
      <trkpt lat="48.90173" lon="2.18196">
        <ele>13.89</ele>
        <time>2014-05-04T13:43:50Z</time>
      </trkpt>
      <trkpt lat="48.90165" lon="2.1817">
        <ele>12.18</ele>
        <time>2014-05-04T13:43:55Z</time>
      </trkpt>
      <trkpt lat="48.90156" lon="2.18141">
        <ele>13.97</ele>
        <time>2014-05-04T13:44:00Z</time>
      </trkpt>
      <trkpt lat="48.9015" lon="2.18111">
        <ele>16.13</ele>
        <time>2014-05-04T13:44:04Z</time>
      </trkpt>
      <trkpt lat="48.90144" lon="2.18084">
        <ele>19.38</ele>
        <time>2014-05-04T13:44:09Z</time>
      </trkpt>
      <trkpt lat="48.90128" lon="2.18069">
        <ele>21.86</ele>
        <time>2014-05-04T13:44:27Z</time>
      </trkpt>
      <trkpt lat="48.90108" lon="2.18073">
        <ele>21.44</ele>
        <time>2014-05-04T13:44:33Z</time>
      </trkpt>
      <trkpt lat="48.90087" lon="2.18075">
        <ele>19.88</ele>
        <time>2014-05-04T13:44:40Z</time>
      </trkpt>
      <trkpt lat="48.90072" lon="2.18057">
        <ele>22.02</ele>
        <time>2014-05-04T13:44:56Z</time>
      </trkpt>
      <trkpt lat="48.90063" lon="2.18032">
        <ele>19.71</ele>
        <time>2014-05-04T13:45:04Z</time>
      </trkpt>
      <trkpt lat="48.90059" lon="2.18002">
        <ele>19.1</ele>
        <time>2014-05-04T13:45:12Z</time>
      </trkpt>
      <trkpt lat="48.90073" lon="2.17984">
        <ele>23.29</ele>
        <time>2014-05-04T13:46:16Z</time>
      </trkpt>
      <trkpt lat="48.90084" lon="2.17959">
        <ele>24.59</ele>
        <time>2014-05-04T13:46:32Z</time>
      </trkpt>
      <trkpt lat="48.90077" lon="2.17934">
        <ele>25.51</ele>
        <time>2014-05-04T13:46:40Z</time>
      </trkpt>
      <trkpt lat="48.90077" lon="2.17905">
        <ele>30.86</ele>
        <time>2014-05-04T13:46:53Z</time>
      </trkpt>
      <trkpt lat="48.90065" lon="2.17884">
        <ele>20.32</ele>
        <time>2014-05-04T13:48:08Z</time>
      </trkpt>
      <trkpt lat="48.90057" lon="2.17857">
        <ele>16.35</ele>
        <time>2014-05-04T13:48:19Z</time>
      </trkpt>
      <trkpt lat="48.90047" lon="2.17834">
        <ele>14.92</ele>
        <time>2014-05-04T13:48:25Z</time>
      </trkpt>
      <trkpt lat="48.90036" lon="2.17807">
        <ele>15.83</ele>
        <time>2014-05-04T13:48:32Z</time>
      </trkpt>
      <trkpt lat="48.90024" lon="2.1778">
        <ele>18.8</ele>
        <time>2014-05-04T13:48:38Z</time>
      </trkpt>
      <trkpt lat="48.90016" lon="2.17756">
        <ele>21.87</ele>
        <time>2014-05-04T13:48:43Z</time>
      </trkpt>
      <trkpt lat="48.90001" lon="2.17733">
        <ele>20.87</ele>
        <time>2014-05-04T13:48:48Z</time>
      </trkpt>
      <trkpt lat="48.89992" lon="2.17705">
        <ele>19.41</ele>
        <time>2014-05-04T13:48:54Z</time>
      </trkpt>
      <trkpt lat="48.8998" lon="2.17676">
        <ele>20.35</ele>
        <time>2014-05-04T13:48:58Z</time>
      </trkpt>
      <trkpt lat="48.89966" lon="2.17653">
        <ele>20.72</ele>
        <time>2014-05-04T13:49:02Z</time>
      </trkpt>
      <trkpt lat="48.89956" lon="2.17628">
        <ele>22.53</ele>
        <time>2014-05-04T13:49:09Z</time>
      </trkpt>
      <trkpt lat="48.89942" lon="2.17605">
        <ele>21.61</ele>
        <time>2014-05-04T13:49:14Z</time>
      </trkpt>
      <trkpt lat="48.8993" lon="2.17585">
        <ele>16.49</ele>
        <time>2014-05-04T13:49:20Z</time>
      </trkpt>
      <trkpt lat="48.89916" lon="2.17564">
        <ele>13.79</ele>
        <time>2014-05-04T13:49:25Z</time>
      </trkpt>
      <trkpt lat="48.89906" lon="2.17534">
        <ele>13.93</ele>
        <time>2014-05-04T13:49:30Z</time>
      </trkpt>
      <trkpt lat="48.89901" lon="2.175">
        <ele>13.51</ele>
        <time>2014-05-04T13:49:34Z</time>
      </trkpt>
      <trkpt lat="48.89883" lon="2.17487">
        <ele>12.6</ele>
        <time>2014-05-04T13:49:37Z</time>
      </trkpt>
      <trkpt lat="48.89866" lon="2.17475">
        <ele>10.27</ele>
        <time>2014-05-04T13:49:44Z</time>
      </trkpt>
      <trkpt lat="48.8985" lon="2.17462">
        <ele>10.35</ele>
        <time>2014-05-04T13:49:51Z</time>
      </trkpt>
      <trkpt lat="48.89841" lon="2.17434">
        <ele>13.61</ele>
        <time>2014-05-04T13:50:00Z</time>
      </trkpt>
      <trkpt lat="48.89826" lon="2.1741">
        <ele>15.67</ele>
        <time>2014-05-04T13:50:04Z</time>
      </trkpt>
      <trkpt lat="48.89812" lon="2.17386">
        <ele>17.36</ele>
        <time>2014-05-04T13:50:09Z</time>
      </trkpt>
      <trkpt lat="48.898" lon="2.17364">
        <ele>21.1</ele>
        <time>2014-05-04T13:50:13Z</time>
      </trkpt>
      <trkpt lat="48.89785" lon="2.1734">
        <ele>19.01</ele>
        <time>2014-05-04T13:50:19Z</time>
      </trkpt>
      <trkpt lat="48.89775" lon="2.17315">
        <ele>21.31</ele>
        <time>2014-05-04T13:50:24Z</time>
      </trkpt>
      <trkpt lat="48.89762" lon="2.17291">
        <ele>22.73</ele>
        <time>2014-05-04T13:50:31Z</time>
      </trkpt>
      <trkpt lat="48.89749" lon="2.17271">
        <ele>21.93</ele>
        <time>2014-05-04T13:50:37Z</time>
      </trkpt>
      <trkpt lat="48.89736" lon="2.1725">
        <ele>23.24</ele>
        <time>2014-05-04T13:50:43Z</time>
      </trkpt>
      <trkpt lat="48.89723" lon="2.17231">
        <ele>21.01</ele>
        <time>2014-05-04T13:50:48Z</time>
      </trkpt>
      <trkpt lat="48.89711" lon="2.17211">
        <ele>18.95</ele>
        <time>2014-05-04T13:50:53Z</time>
      </trkpt>
      <trkpt lat="48.89693" lon="2.17191">
        <ele>18.78</ele>
        <time>2014-05-04T13:50:58Z</time>
      </trkpt>
      <trkpt lat="48.89679" lon="2.17171">
        <ele>18.28</ele>
        <time>2014-05-04T13:51:05Z</time>
      </trkpt>
      <trkpt lat="48.89664" lon="2.17149">
        <ele>20.48</ele>
        <time>2014-05-04T13:51:11Z</time>
      </trkpt>
      <trkpt lat="48.89653" lon="2.17124">
        <ele>22.25</ele>
        <time>2014-05-04T13:51:17Z</time>
      </trkpt>
      <trkpt lat="48.89641" lon="2.17099">
        <ele>23.21</ele>
        <time>2014-05-04T13:51:21Z</time>
      </trkpt>
      <trkpt lat="48.89625" lon="2.17076">
        <ele>21.58</ele>
        <time>2014-05-04T13:51:30Z</time>
      </trkpt>
      <trkpt lat="48.89607" lon="2.17061">
        <ele>22.56</ele>
        <time>2014-05-04T13:51:36Z</time>
      </trkpt>
      <trkpt lat="48.89594" lon="2.17039">
        <ele>23.13</ele>
        <time>2014-05-04T13:51:42Z</time>
      </trkpt>
      <trkpt lat="48.89577" lon="2.17025">
        <ele>17.12</ele>
        <time>2014-05-04T13:51:49Z</time>
      </trkpt>
      <trkpt lat="48.89562" lon="2.17005">
        <ele>17.95</ele>
        <time>2014-05-04T13:51:55Z</time>
      </trkpt>
      <trkpt lat="48.89549" lon="2.16984">
        <ele>18.47</ele>
        <time>2014-05-04T13:52:00Z</time>
      </trkpt>
      <trkpt lat="48.89534" lon="2.16967">
        <ele>17.55</ele>
        <time>2014-05-04T13:52:07Z</time>
      </trkpt>
      <trkpt lat="48.89518" lon="2.16946">
        <ele>18.92</ele>
        <time>2014-05-04T13:52:13Z</time>
      </trkpt>
      <trkpt lat="48.89501" lon="2.16932">
        <ele>24.39</ele>
        <time>2014-05-04T13:52:20Z</time>
      </trkpt>
      <trkpt lat="48.89485" lon="2.16912">
        <ele>24.01</ele>
        <time>2014-05-04T13:52:25Z</time>
      </trkpt>
      <trkpt lat="48.8902" lon="2.16706">
        <ele>29.3</ele>
        <time>2014-05-04T13:55:12Z</time>
      </trkpt>
      <trkpt lat="48.89001" lon="2.16693">
        <ele>-4.77</ele>
        <time>2014-05-04T13:55:17Z</time>
      </trkpt>
      <trkpt lat="48.89031" lon="2.16661">
        <ele>-20.46</ele>
        <time>2014-05-04T13:55:20Z</time>
      </trkpt>
      <trkpt lat="48.88991" lon="2.16791">
        <ele>33.02</ele>
        <time>2014-05-04T13:55:25Z</time>
      </trkpt>
      <trkpt lat="48.88992" lon="2.16752">
        <ele>45.66</ele>
        <time>2014-05-04T13:55:26Z</time>
      </trkpt>
      <trkpt lat="48.88997" lon="2.16721">
        <ele>48.09</ele>
        <time>2014-05-04T13:55:29Z</time>
      </trkpt>
      <trkpt lat="48.89007" lon="2.16682">
        <ele>37.73</ele>
        <time>2014-05-04T13:55:34Z</time>
      </trkpt>
      <trkpt lat="48.8902" lon="2.16658">
        <ele>34.65</ele>
        <time>2014-05-04T13:55:36Z</time>
      </trkpt>
      <trkpt lat="48.88996" lon="2.16656">
        <ele>41.64</ele>
        <time>2014-05-04T13:55:38Z</time>
      </trkpt>
      <trkpt lat="48.88982" lon="2.16678">
        <ele>42.13</ele>
        <time>2014-05-04T13:55:40Z</time>
      </trkpt>
      <trkpt lat="48.88976" lon="2.16645">
        <ele>36.4</ele>
        <time>2014-05-04T13:55:49Z</time>
      </trkpt>
      <trkpt lat="48.88966" lon="2.16617">
        <ele>41.02</ele>
        <time>2014-05-04T13:55:54Z</time>
      </trkpt>
      <trkpt lat="48.8897" lon="2.16585">
        <ele>42.22</ele>
        <time>2014-05-04T13:56:11Z</time>
      </trkpt>
      <trkpt lat="48.88985" lon="2.16562">
        <ele>35.54</ele>
        <time>2014-05-04T13:56:14Z</time>
      </trkpt>
      <trkpt lat="48.88996" lon="2.16537">
        <ele>31.69</ele>
        <time>2014-05-04T13:56:18Z</time>
      </trkpt>
      <trkpt lat="48.88987" lon="2.16511">
        <ele>27</ele>
        <time>2014-05-04T13:56:27Z</time>
      </trkpt>
      <trkpt lat="48.88971" lon="2.16498">
        <ele>26.31</ele>
        <time>2014-05-04T13:56:33Z</time>
      </trkpt>
      <trkpt lat="48.88952" lon="2.16482">
        <ele>25.39</ele>
        <time>2014-05-04T13:56:39Z</time>
      </trkpt>
      <trkpt lat="48.88936" lon="2.16469">
        <ele>24.7</ele>
        <time>2014-05-04T13:56:45Z</time>
      </trkpt>
      <trkpt lat="48.8892" lon="2.16455">
        <ele>23.55</ele>
        <time>2014-05-04T13:56:51Z</time>
      </trkpt>
      <trkpt lat="48.88903" lon="2.16442">
        <ele>23.3</ele>
        <time>2014-05-04T13:56:58Z</time>
      </trkpt>
      <trkpt lat="48.88886" lon="2.16428">
        <ele>25.2</ele>
        <time>2014-05-04T13:57:05Z</time>
      </trkpt>
      <trkpt lat="48.88869" lon="2.16417">
        <ele>25.43</ele>
        <time>2014-05-04T13:57:12Z</time>
      </trkpt>
      <trkpt lat="48.8885" lon="2.16407">
        <ele>26.28</ele>
        <time>2014-05-04T13:57:18Z</time>
      </trkpt>
      <trkpt lat="48.88832" lon="2.16405">
        <ele>25.47</ele>
        <time>2014-05-04T13:57:24Z</time>
      </trkpt>
      <trkpt lat="48.88814" lon="2.164">
        <ele>21.93</ele>
        <time>2014-05-04T13:57:32Z</time>
      </trkpt>
      <trkpt lat="48.88794" lon="2.16396">
        <ele>20.26</ele>
        <time>2014-05-04T13:57:40Z</time>
      </trkpt>
      <trkpt lat="48.88778" lon="2.16412">
        <ele>26.72</ele>
        <time>2014-05-04T13:58:32Z</time>
      </trkpt>
      <trkpt lat="48.88771" lon="2.16442">
        <ele>28.72</ele>
        <time>2014-05-04T13:58:38Z</time>
      </trkpt>
      <trkpt lat="48.88763" lon="2.16469">
        <ele>32.68</ele>
        <time>2014-05-04T13:58:45Z</time>
      </trkpt>
      <trkpt lat="48.88779" lon="2.16455">
        <ele>31.45</ele>
        <time>2014-05-04T13:59:05Z</time>
      </trkpt>
      <trkpt lat="48.88791" lon="2.1643">
        <ele>29.67</ele>
        <time>2014-05-04T13:59:17Z</time>
      </trkpt>
      <trkpt lat="48.88797" lon="2.164">
        <ele>30.03</ele>
        <time>2014-05-04T13:59:24Z</time>
      </trkpt>
      <trkpt lat="48.88802" lon="2.16372">
        <ele>29.35</ele>
        <time>2014-05-04T13:59:30Z</time>
      </trkpt>
      <trkpt lat="48.88808" lon="2.16346">
        <ele>29.52</ele>
        <time>2014-05-04T13:59:35Z</time>
      </trkpt>
      <trkpt lat="48.88813" lon="2.16319">
        <ele>30.05</ele>
        <time>2014-05-04T13:59:40Z</time>
      </trkpt>
      <trkpt lat="48.88819" lon="2.16292">
        <ele>30.29</ele>
        <time>2014-05-04T13:59:45Z</time>
      </trkpt>
      <trkpt lat="48.88824" lon="2.16264">
        <ele>31.69</ele>
        <time>2014-05-04T13:59:51Z</time>
      </trkpt>
      <trkpt lat="48.88826" lon="2.16234">
        <ele>31.42</ele>
        <time>2014-05-04T13:59:58Z</time>
      </trkpt>
      <trkpt lat="48.88833" lon="2.16206">
        <ele>32.29</ele>
        <time>2014-05-04T14:00:05Z</time>
      </trkpt>
      <trkpt lat="48.88841" lon="2.16178">
        <ele>32.3</ele>
        <time>2014-05-04T14:00:12Z</time>
      </trkpt>
      <trkpt lat="48.88846" lon="2.16146">
        <ele>31.42</ele>
        <time>2014-05-04T14:00:18Z</time>
      </trkpt>
      <trkpt lat="48.88852" lon="2.16116">
        <ele>31.33</ele>
        <time>2014-05-04T14:00:23Z</time>
      </trkpt>
      <trkpt lat="48.88857" lon="2.16085">
        <ele>32.23</ele>
        <time>2014-05-04T14:00:28Z</time>
      </trkpt>
      <trkpt lat="48.88863" lon="2.16054">
        <ele>31.86</ele>
        <time>2014-05-04T14:00:33Z</time>
      </trkpt>
      <trkpt lat="48.88867" lon="2.16027">
        <ele>32.09</ele>
        <time>2014-05-04T14:00:38Z</time>
      </trkpt>
      <trkpt lat="48.88872" lon="2.15997">
        <ele>32.67</ele>
        <time>2014-05-04T14:00:44Z</time>
      </trkpt>
      <trkpt lat="48.88877" lon="2.15967">
        <ele>31.56</ele>
        <time>2014-05-04T14:00:51Z</time>
      </trkpt>
      <trkpt lat="48.88862" lon="2.15949">
        <ele>30.83</ele>
        <time>2014-05-04T14:01:00Z</time>
      </trkpt>
      <trkpt lat="48.88842" lon="2.15946">
        <ele>28.07</ele>
        <time>2014-05-04T14:01:07Z</time>
      </trkpt>
      <trkpt lat="48.8883" lon="2.15968">
        <ele>27.78</ele>
        <time>2014-05-04T14:01:13Z</time>
      </trkpt>
      <trkpt lat="48.88836" lon="2.15994">
        <ele>27.72</ele>
        <time>2014-05-04T14:01:20Z</time>
      </trkpt>
      <trkpt lat="48.8882" lon="2.16011">
        <ele>22.9</ele>
        <time>2014-05-04T14:01:31Z</time>
      </trkpt>
      <trkpt lat="48.88802" lon="2.15998">
        <ele>24.31</ele>
        <time>2014-05-04T14:01:39Z</time>
      </trkpt>
      <trkpt lat="48.88783" lon="2.15986">
        <ele>22.42</ele>
        <time>2014-05-04T14:01:45Z</time>
      </trkpt>
      <trkpt lat="48.88766" lon="2.15974">
        <ele>20.05</ele>
        <time>2014-05-04T14:01:50Z</time>
      </trkpt>
      <trkpt lat="48.88747" lon="2.15959">
        <ele>18.53</ele>
        <time>2014-05-04T14:01:56Z</time>
      </trkpt>
      <trkpt lat="48.88731" lon="2.15945">
        <ele>18.62</ele>
        <time>2014-05-04T14:02:01Z</time>
      </trkpt>
      <trkpt lat="48.88713" lon="2.15932">
        <ele>17.81</ele>
        <time>2014-05-04T14:02:06Z</time>
      </trkpt>
      <trkpt lat="48.88695" lon="2.15913">
        <ele>14.53</ele>
        <time>2014-05-04T14:02:11Z</time>
      </trkpt>
      <trkpt lat="48.88676" lon="2.15898">
        <ele>15.3</ele>
        <time>2014-05-04T14:02:16Z</time>
      </trkpt>
      <trkpt lat="48.88657" lon="2.15883">
        <ele>16.45</ele>
        <time>2014-05-04T14:02:21Z</time>
      </trkpt>
      <trkpt lat="48.88636" lon="2.15873">
        <ele>17.74</ele>
        <time>2014-05-04T14:02:26Z</time>
      </trkpt>
      <trkpt lat="48.88617" lon="2.15862">
        <ele>17.34</ele>
        <time>2014-05-04T14:02:31Z</time>
      </trkpt>
      <trkpt lat="48.88596" lon="2.15852">
        <ele>17.17</ele>
        <time>2014-05-04T14:02:36Z</time>
      </trkpt>
      <trkpt lat="48.88578" lon="2.15839">
        <ele>16.57</ele>
        <time>2014-05-04T14:02:41Z</time>
      </trkpt>
      <trkpt lat="48.88558" lon="2.15827">
        <ele>18.12</ele>
        <time>2014-05-04T14:02:46Z</time>
      </trkpt>
      <trkpt lat="48.8854" lon="2.15814">
        <ele>16.73</ele>
        <time>2014-05-04T14:02:53Z</time>
      </trkpt>
      <trkpt lat="48.88523" lon="2.15806">
        <ele>12.09</ele>
        <time>2014-05-04T14:03:01Z</time>
      </trkpt>
      <trkpt lat="48.88504" lon="2.15803">
        <ele>7.88</ele>
        <time>2014-05-04T14:03:06Z</time>
      </trkpt>
      <trkpt lat="48.88483" lon="2.15798">
        <ele>7.31</ele>
        <time>2014-05-04T14:03:11Z</time>
      </trkpt>
      <trkpt lat="48.88464" lon="2.15792">
        <ele>7.3</ele>
        <time>2014-05-04T14:03:15Z</time>
      </trkpt>
      <trkpt lat="48.88443" lon="2.15782">
        <ele>7.3</ele>
        <time>2014-05-04T14:03:20Z</time>
      </trkpt>
      <trkpt lat="48.88424" lon="2.1577">
        <ele>7.8</ele>
        <time>2014-05-04T14:03:25Z</time>
      </trkpt>
      <trkpt lat="48.88401" lon="2.15733">
        <ele>9.95</ele>
        <time>2014-05-04T14:03:29Z</time>
      </trkpt>
      <trkpt lat="48.88379" lon="2.15728">
        <ele>10.27</ele>
        <time>2014-05-04T14:03:33Z</time>
      </trkpt>
      <trkpt lat="48.88362" lon="2.15709">
        <ele>9.98</ele>
        <time>2014-05-04T14:03:38Z</time>
      </trkpt>
      <trkpt lat="48.8825" lon="2.15629">
        <ele>8.8</ele>
        <time>2014-05-04T14:04:11Z</time>
      </trkpt>
      <trkpt lat="48.88225" lon="2.15634">
        <ele>10.92</ele>
        <time>2014-05-04T14:04:16Z</time>
      </trkpt>
      <trkpt lat="48.88205" lon="2.15631">
        <ele>14.63</ele>
        <time>2014-05-04T14:04:22Z</time>
      </trkpt>
      <trkpt lat="48.88189" lon="2.15614">
        <ele>3.93</ele>
        <time>2014-05-04T14:04:27Z</time>
      </trkpt>
      <trkpt lat="48.88171" lon="2.15607">
        <ele>1.13</ele>
        <time>2014-05-04T14:04:33Z</time>
      </trkpt>
      <trkpt lat="48.88152" lon="2.15601">
        <ele>-1.41</ele>
        <time>2014-05-04T14:04:39Z</time>
      </trkpt>
      <trkpt lat="48.88132" lon="2.15588">
        <ele>0.05</ele>
        <time>2014-05-04T14:04:45Z</time>
      </trkpt>
      <trkpt lat="48.88113" lon="2.15587">
        <ele>8.19</ele>
        <time>2014-05-04T14:04:50Z</time>
      </trkpt>
      <trkpt lat="48.88093" lon="2.15585">
        <ele>17.39</ele>
        <time>2014-05-04T14:04:55Z</time>
      </trkpt>
      <trkpt lat="48.88078" lon="2.1557">
        <ele>15.61</ele>
        <time>2014-05-04T14:04:59Z</time>
      </trkpt>
      <trkpt lat="48.88062" lon="2.15554">
        <ele>14.57</ele>
        <time>2014-05-04T14:05:03Z</time>
      </trkpt>
      <trkpt lat="48.88044" lon="2.15538">
        <ele>14.88</ele>
        <time>2014-05-04T14:05:07Z</time>
      </trkpt>
      <trkpt lat="48.88023" lon="2.15529">
        <ele>17.27</ele>
        <time>2014-05-04T14:05:11Z</time>
      </trkpt>
      <trkpt lat="48.88004" lon="2.15523">
        <ele>16.67</ele>
        <time>2014-05-04T14:05:15Z</time>
      </trkpt>
      <trkpt lat="48.87986" lon="2.15511">
        <ele>15.07</ele>
        <time>2014-05-04T14:05:19Z</time>
      </trkpt>
      <trkpt lat="48.87966" lon="2.15502">
        <ele>14.53</ele>
        <time>2014-05-04T14:05:23Z</time>
      </trkpt>
      <trkpt lat="48.87946" lon="2.15489">
        <ele>14.37</ele>
        <time>2014-05-04T14:05:27Z</time>
      </trkpt>
      <trkpt lat="48.87925" lon="2.15482">
        <ele>15.64</ele>
        <time>2014-05-04T14:05:32Z</time>
      </trkpt>
      <trkpt lat="48.87907" lon="2.15469">
        <ele>16.03</ele>
        <time>2014-05-04T14:05:37Z</time>
      </trkpt>
      <trkpt lat="48.87889" lon="2.15449">
        <ele>14.6</ele>
        <time>2014-05-04T14:05:42Z</time>
      </trkpt>
      <trkpt lat="48.87869" lon="2.15438">
        <ele>15.57</ele>
        <time>2014-05-04T14:05:46Z</time>
      </trkpt>
      <trkpt lat="48.87851" lon="2.15426">
        <ele>14.52</ele>
        <time>2014-05-04T14:05:51Z</time>
      </trkpt>
      <trkpt lat="48.87836" lon="2.1541">
        <ele>12.96</ele>
        <time>2014-05-04T14:05:56Z</time>
      </trkpt>
      <trkpt lat="48.87819" lon="2.15394">
        <ele>8.46</ele>
        <time>2014-05-04T14:06:02Z</time>
      </trkpt>
      <trkpt lat="48.87803" lon="2.15377">
        <ele>7.2</ele>
        <time>2014-05-04T14:06:08Z</time>
      </trkpt>
      <trkpt lat="48.87785" lon="2.15363">
        <ele>6.26</ele>
        <time>2014-05-04T14:06:13Z</time>
      </trkpt>
      <trkpt lat="48.87767" lon="2.15344">
        <ele>6.04</ele>
        <time>2014-05-04T14:06:18Z</time>
      </trkpt>
      <trkpt lat="48.87749" lon="2.15331">
        <ele>7.59</ele>
        <time>2014-05-04T14:06:22Z</time>
      </trkpt>
      <trkpt lat="48.8773" lon="2.15315">
        <ele>10.34</ele>
        <time>2014-05-04T14:06:27Z</time>
      </trkpt>
      <trkpt lat="48.87715" lon="2.15294">
        <ele>12.67</ele>
        <time>2014-05-04T14:06:32Z</time>
      </trkpt>
      <trkpt lat="48.877" lon="2.15272">
        <ele>11.43</ele>
        <time>2014-05-04T14:06:37Z</time>
      </trkpt>
      <trkpt lat="48.87681" lon="2.15257">
        <ele>11.46</ele>
        <time>2014-05-04T14:06:42Z</time>
      </trkpt>
      <trkpt lat="48.87665" lon="2.15238">
        <ele>14.18</ele>
        <time>2014-05-04T14:06:47Z</time>
      </trkpt>
      <trkpt lat="48.87649" lon="2.1522">
        <ele>15.23</ele>
        <time>2014-05-04T14:06:51Z</time>
      </trkpt>
      <trkpt lat="48.87631" lon="2.15204">
        <ele>15.42</ele>
        <time>2014-05-04T14:06:55Z</time>
      </trkpt>
      <trkpt lat="48.87618" lon="2.15182">
        <ele>11.35</ele>
        <time>2014-05-04T14:07:02Z</time>
      </trkpt>
      <trkpt lat="48.87602" lon="2.15163">
        <ele>9.67</ele>
        <time>2014-05-04T14:07:08Z</time>
      </trkpt>
      <trkpt lat="48.87585" lon="2.15141">
        <ele>11.04</ele>
        <time>2014-05-04T14:07:14Z</time>
      </trkpt>
      <trkpt lat="48.87568" lon="2.15122">
        <ele>10.78</ele>
        <time>2014-05-04T14:07:18Z</time>
      </trkpt>
      <trkpt lat="48.87553" lon="2.15104">
        <ele>11.08</ele>
        <time>2014-05-04T14:07:22Z</time>
      </trkpt>
      <trkpt lat="48.87537" lon="2.15088">
        <ele>13.41</ele>
        <time>2014-05-04T14:07:27Z</time>
      </trkpt>
      <trkpt lat="48.87519" lon="2.15072">
        <ele>13.24</ele>
        <time>2014-05-04T14:07:32Z</time>
      </trkpt>
      <trkpt lat="48.87506" lon="2.1505">
        <ele>12.48</ele>
        <time>2014-05-04T14:07:36Z</time>
      </trkpt>
      <trkpt lat="48.8749" lon="2.15031">
        <ele>9.61</ele>
        <time>2014-05-04T14:07:41Z</time>
      </trkpt>
      <trkpt lat="48.87477" lon="2.15011">
        <ele>8.75</ele>
        <time>2014-05-04T14:07:45Z</time>
      </trkpt>
      <trkpt lat="48.87463" lon="2.14993">
        <ele>5.72</ele>
        <time>2014-05-04T14:07:50Z</time>
      </trkpt>
      <trkpt lat="48.8745" lon="2.14971">
        <ele>6.41</ele>
        <time>2014-05-04T14:07:56Z</time>
      </trkpt>
      <trkpt lat="48.87438" lon="2.14949">
        <ele>7.91</ele>
        <time>2014-05-04T14:08:02Z</time>
      </trkpt>
      <trkpt lat="48.87424" lon="2.14926">
        <ele>9.97</ele>
        <time>2014-05-04T14:08:07Z</time>
      </trkpt>
      <trkpt lat="48.87409" lon="2.14899">
        <ele>12.78</ele>
        <time>2014-05-04T14:08:11Z</time>
      </trkpt>
      <trkpt lat="48.87395" lon="2.14879">
        <ele>9.95</ele>
        <time>2014-05-04T14:08:15Z</time>
      </trkpt>
      <trkpt lat="48.87383" lon="2.14856">
        <ele>10.9</ele>
        <time>2014-05-04T14:08:19Z</time>
      </trkpt>
      <trkpt lat="48.87369" lon="2.14832">
        <ele>11.75</ele>
        <time>2014-05-04T14:08:24Z</time>
      </trkpt>
      <trkpt lat="48.87351" lon="2.14818">
        <ele>13.19</ele>
        <time>2014-05-04T14:08:29Z</time>
      </trkpt>
      <trkpt lat="48.87334" lon="2.14808">
        <ele>11.98</ele>
        <time>2014-05-04T14:08:33Z</time>
      </trkpt>
      <trkpt lat="48.87319" lon="2.14784">
        <ele>15.41</ele>
        <time>2014-05-04T14:08:38Z</time>
      </trkpt>
      <trkpt lat="48.87308" lon="2.1476">
        <ele>15.99</ele>
        <time>2014-05-04T14:08:43Z</time>
      </trkpt>
      <trkpt lat="48.87297" lon="2.14736">
        <ele>16.97</ele>
        <time>2014-05-04T14:08:48Z</time>
      </trkpt>
      <trkpt lat="48.87286" lon="2.14709">
        <ele>19.38</ele>
        <time>2014-05-04T14:08:53Z</time>
      </trkpt>
      <trkpt lat="48.87273" lon="2.14683">
        <ele>21.58</ele>
        <time>2014-05-04T14:08:58Z</time>
      </trkpt>
      <trkpt lat="48.87259" lon="2.14665">
        <ele>22.56</ele>
        <time>2014-05-04T14:09:02Z</time>
      </trkpt>
      <trkpt lat="48.87246" lon="2.14637">
        <ele>24.24</ele>
        <time>2014-05-04T14:09:07Z</time>
      </trkpt>
      <trkpt lat="48.87232" lon="2.14617">
        <ele>20.79</ele>
        <time>2014-05-04T14:09:11Z</time>
      </trkpt>
      <trkpt lat="48.87222" lon="2.14592">
        <ele>18.19</ele>
        <time>2014-05-04T14:09:16Z</time>
      </trkpt>
      <trkpt lat="48.87209" lon="2.14565">
        <ele>18.06</ele>
        <time>2014-05-04T14:09:22Z</time>
      </trkpt>
      <trkpt lat="48.87196" lon="2.1454">
        <ele>18.76</ele>
        <time>2014-05-04T14:09:28Z</time>
      </trkpt>
      <trkpt lat="48.87186" lon="2.14513">
        <ele>15.53</ele>
        <time>2014-05-04T14:09:33Z</time>
      </trkpt>
      <trkpt lat="48.87179" lon="2.14486">
        <ele>16</ele>
        <time>2014-05-04T14:09:37Z</time>
      </trkpt>
      <trkpt lat="48.8717" lon="2.14462">
        <ele>16.46</ele>
        <time>2014-05-04T14:09:41Z</time>
      </trkpt>
      <trkpt lat="48.87155" lon="2.14439">
        <ele>15.56</ele>
        <time>2014-05-04T14:09:45Z</time>
      </trkpt>
      <trkpt lat="48.87149" lon="2.14413">
        <ele>15.75</ele>
        <time>2014-05-04T14:09:49Z</time>
      </trkpt>
      <trkpt lat="48.87138" lon="2.14381">
        <ele>14.62</ele>
        <time>2014-05-04T14:09:54Z</time>
      </trkpt>
      <trkpt lat="48.87128" lon="2.14351">
        <ele>15.43</ele>
        <time>2014-05-04T14:09:59Z</time>
      </trkpt>
      <trkpt lat="48.8712" lon="2.14321">
        <ele>17.24</ele>
        <time>2014-05-04T14:10:04Z</time>
      </trkpt>
      <trkpt lat="48.8711" lon="2.14292">
        <ele>15.61</ele>
        <time>2014-05-04T14:10:09Z</time>
      </trkpt>
      <trkpt lat="48.87102" lon="2.14265">
        <ele>16.49</ele>
        <time>2014-05-04T14:10:14Z</time>
      </trkpt>
      <trkpt lat="48.87099" lon="2.14231">
        <ele>15.86</ele>
        <time>2014-05-04T14:10:19Z</time>
      </trkpt>
      <trkpt lat="48.87096" lon="2.142">
        <ele>19.6</ele>
        <time>2014-05-04T14:10:24Z</time>
      </trkpt>
      <trkpt lat="48.87098" lon="2.1417">
        <ele>21.25</ele>
        <time>2014-05-04T14:10:28Z</time>
      </trkpt>
      <trkpt lat="48.87094" lon="2.14141">
        <ele>21.79</ele>
        <time>2014-05-04T14:10:33Z</time>
      </trkpt>
      <trkpt lat="48.8709" lon="2.14112">
        <ele>17.69</ele>
        <time>2014-05-04T14:10:38Z</time>
      </trkpt>
      <trkpt lat="48.87084" lon="2.14078">
        <ele>16.88</ele>
        <time>2014-05-04T14:10:42Z</time>
      </trkpt>
      <trkpt lat="48.8708" lon="2.14048">
        <ele>16.65</ele>
        <time>2014-05-04T14:10:46Z</time>
      </trkpt>
      <trkpt lat="48.87077" lon="2.14018">
        <ele>14.26</ele>
        <time>2014-05-04T14:10:50Z</time>
      </trkpt>
      <trkpt lat="48.87072" lon="2.13985">
        <ele>14.92</ele>
        <time>2014-05-04T14:10:54Z</time>
      </trkpt>
      <trkpt lat="48.87074" lon="2.13957">
        <ele>14.72</ele>
        <time>2014-05-04T14:10:59Z</time>
      </trkpt>
      <trkpt lat="48.87075" lon="2.13923">
        <ele>16.14</ele>
        <time>2014-05-04T14:11:03Z</time>
      </trkpt>
      <trkpt lat="48.87078" lon="2.13888">
        <ele>19.17</ele>
        <time>2014-05-04T14:11:08Z</time>
      </trkpt>
      <trkpt lat="48.8708" lon="2.13855">
        <ele>21.14</ele>
        <time>2014-05-04T14:11:13Z</time>
      </trkpt>
      <trkpt lat="48.87082" lon="2.13826">
        <ele>23.13</ele>
        <time>2014-05-04T14:11:18Z</time>
      </trkpt>
      <trkpt lat="48.87083" lon="2.13797">
        <ele>23.85</ele>
        <time>2014-05-04T14:11:23Z</time>
      </trkpt>
      <trkpt lat="48.87082" lon="2.13767">
        <ele>22.21</ele>
        <time>2014-05-04T14:11:30Z</time>
      </trkpt>
      <trkpt lat="48.87082" lon="2.13738">
        <ele>24.64</ele>
        <time>2014-05-04T14:11:35Z</time>
      </trkpt>
      <trkpt lat="48.87081" lon="2.13708">
        <ele>23.2</ele>
        <time>2014-05-04T14:11:42Z</time>
      </trkpt>
      <trkpt lat="48.87079" lon="2.13679">
        <ele>20.55</ele>
        <time>2014-05-04T14:13:11Z</time>
      </trkpt>
      <trkpt lat="48.87081" lon="2.1365">
        <ele>15.43</ele>
        <time>2014-05-04T14:13:20Z</time>
      </trkpt>
      <trkpt lat="48.87084" lon="2.13622">
        <ele>11.83</ele>
        <time>2014-05-04T14:13:30Z</time>
      </trkpt>
      <trkpt lat="48.87088" lon="2.13594">
        <ele>13.96</ele>
        <time>2014-05-04T14:13:37Z</time>
      </trkpt>
      <trkpt lat="48.87089" lon="2.13564">
        <ele>15.37</ele>
        <time>2014-05-04T14:13:43Z</time>
      </trkpt>
      <trkpt lat="48.87087" lon="2.13534">
        <ele>15.59</ele>
        <time>2014-05-04T14:13:49Z</time>
      </trkpt>
      <trkpt lat="48.87092" lon="2.13504">
        <ele>18.02</ele>
        <time>2014-05-04T14:13:55Z</time>
      </trkpt>
      <trkpt lat="48.87095" lon="2.13473">
        <ele>17.34</ele>
        <time>2014-05-04T14:14:01Z</time>
      </trkpt>
      <trkpt lat="48.87098" lon="2.13444">
        <ele>16.61</ele>
        <time>2014-05-04T14:14:07Z</time>
      </trkpt>
      <trkpt lat="48.871" lon="2.13414">
        <ele>18.37</ele>
        <time>2014-05-04T14:14:12Z</time>
      </trkpt>
      <trkpt lat="48.87102" lon="2.13385">
        <ele>18.3</ele>
        <time>2014-05-04T14:14:17Z</time>
      </trkpt>
      <trkpt lat="48.87105" lon="2.13355">
        <ele>20.92</ele>
        <time>2014-05-04T14:14:22Z</time>
      </trkpt>
      <trkpt lat="48.87108" lon="2.13324">
        <ele>22.94</ele>
        <time>2014-05-04T14:14:27Z</time>
      </trkpt>
      <trkpt lat="48.87112" lon="2.13292">
        <ele>25.47</ele>
        <time>2014-05-04T14:14:32Z</time>
      </trkpt>
      <trkpt lat="48.87121" lon="2.1326">
        <ele>22.36</ele>
        <time>2014-05-04T14:14:38Z</time>
      </trkpt>
      <trkpt lat="48.87128" lon="2.13235">
        <ele>19.3</ele>
        <time>2014-05-04T14:14:43Z</time>
      </trkpt>
      <trkpt lat="48.87134" lon="2.13208">
        <ele>16.58</ele>
        <time>2014-05-04T14:14:48Z</time>
      </trkpt>
      <trkpt lat="48.87141" lon="2.13177">
        <ele>16.3</ele>
        <time>2014-05-04T14:14:53Z</time>
      </trkpt>
      <trkpt lat="48.87146" lon="2.13141">
        <ele>16.98</ele>
        <time>2014-05-04T14:14:57Z</time>
      </trkpt>
      <trkpt lat="48.87155" lon="2.13115">
        <ele>13.54</ele>
        <time>2014-05-04T14:15:02Z</time>
      </trkpt>
      <trkpt lat="48.87166" lon="2.13089">
        <ele>14.12</ele>
        <time>2014-05-04T14:15:07Z</time>
      </trkpt>
      <trkpt lat="48.87178" lon="2.13065">
        <ele>14.2</ele>
        <time>2014-05-04T14:15:12Z</time>
      </trkpt>
      <trkpt lat="48.87189" lon="2.13038">
        <ele>15.26</ele>
        <time>2014-05-04T14:15:17Z</time>
      </trkpt>
      <trkpt lat="48.87201" lon="2.13015">
        <ele>12.95</ele>
        <time>2014-05-04T14:15:22Z</time>
      </trkpt>
      <trkpt lat="48.87214" lon="2.12991">
        <ele>6.96</ele>
        <time>2014-05-04T14:15:28Z</time>
      </trkpt>
      <trkpt lat="48.87225" lon="2.1297">
        <ele>4.22</ele>
        <time>2014-05-04T14:15:33Z</time>
      </trkpt>
      <trkpt lat="48.87239" lon="2.12943">
        <ele>6.14</ele>
        <time>2014-05-04T14:15:38Z</time>
      </trkpt>
      <trkpt lat="48.87248" lon="2.12918">
        <ele>8.97</ele>
        <time>2014-05-04T14:15:42Z</time>
      </trkpt>
      <trkpt lat="48.87261" lon="2.12892">
        <ele>10.82</ele>
        <time>2014-05-04T14:15:47Z</time>
      </trkpt>
      <trkpt lat="48.87274" lon="2.12868">
        <ele>10.25</ele>
        <time>2014-05-04T14:15:52Z</time>
      </trkpt>
      <trkpt lat="48.87288" lon="2.12848">
        <ele>10.54</ele>
        <time>2014-05-04T14:15:57Z</time>
      </trkpt>
      <trkpt lat="48.87302" lon="2.12826">
        <ele>14.46</ele>
        <time>2014-05-04T14:16:02Z</time>
      </trkpt>
      <trkpt lat="48.87316" lon="2.12801">
        <ele>19.89</ele>
        <time>2014-05-04T14:16:07Z</time>
      </trkpt>
      <trkpt lat="48.87328" lon="2.12776">
        <ele>23.19</ele>
        <time>2014-05-04T14:16:12Z</time>
      </trkpt>
      <trkpt lat="48.87342" lon="2.1275">
        <ele>23.51</ele>
        <time>2014-05-04T14:16:17Z</time>
      </trkpt>
      <trkpt lat="48.87358" lon="2.12726">
        <ele>24.55</ele>
        <time>2014-05-04T14:16:22Z</time>
      </trkpt>
      <trkpt lat="48.87376" lon="2.12716">
        <ele>23.35</ele>
        <time>2014-05-04T14:16:28Z</time>
      </trkpt>
      <trkpt lat="48.87391" lon="2.12697">
        <ele>20.67</ele>
        <time>2014-05-04T14:16:34Z</time>
      </trkpt>
      <trkpt lat="48.87399" lon="2.1267">
        <ele>21.33</ele>
        <time>2014-05-04T14:16:40Z</time>
      </trkpt>
      <trkpt lat="48.87415" lon="2.12653">
        <ele>20.53</ele>
        <time>2014-05-04T14:16:48Z</time>
      </trkpt>
      <trkpt lat="48.87426" lon="2.12629">
        <ele>23.17</ele>
        <time>2014-05-04T14:16:54Z</time>
      </trkpt>
      <trkpt lat="48.87439" lon="2.12608">
        <ele>22.42</ele>
        <time>2014-05-04T14:17:02Z</time>
      </trkpt>
      <trkpt lat="48.87453" lon="2.12584">
        <ele>21.33</ele>
        <time>2014-05-04T14:17:10Z</time>
      </trkpt>
      <trkpt lat="48.87466" lon="2.12562">
        <ele>21.3</ele>
        <time>2014-05-04T14:17:15Z</time>
      </trkpt>
      <trkpt lat="48.8748" lon="2.12538">
        <ele>20.95</ele>
        <time>2014-05-04T14:17:21Z</time>
      </trkpt>
      <trkpt lat="48.87492" lon="2.12517">
        <ele>18.15</ele>
        <time>2014-05-04T14:17:28Z</time>
      </trkpt>
      <trkpt lat="48.87504" lon="2.12496">
        <ele>19.81</ele>
        <time>2014-05-04T14:17:34Z</time>
      </trkpt>
      <trkpt lat="48.87515" lon="2.12472">
        <ele>21.97</ele>
        <time>2014-05-04T14:17:39Z</time>
      </trkpt>
      <trkpt lat="48.8753" lon="2.12451">
        <ele>22.34</ele>
        <time>2014-05-04T14:17:45Z</time>
      </trkpt>
      <trkpt lat="48.87547" lon="2.1243">
        <ele>23.52</ele>
        <time>2014-05-04T14:17:51Z</time>
      </trkpt>
      <trkpt lat="48.8756" lon="2.12412">
        <ele>24.52</ele>
        <time>2014-05-04T14:17:56Z</time>
      </trkpt>
      <trkpt lat="48.87576" lon="2.12394">
        <ele>22.08</ele>
        <time>2014-05-04T14:18:03Z</time>
      </trkpt>
      <trkpt lat="48.87594" lon="2.12377">
        <ele>18.23</ele>
        <time>2014-05-04T14:18:10Z</time>
      </trkpt>
      <trkpt lat="48.87609" lon="2.12362">
        <ele>21.22</ele>
        <time>2014-05-04T14:18:16Z</time>
      </trkpt>
      <trkpt lat="48.87627" lon="2.12343">
        <ele>20.31</ele>
        <time>2014-05-04T14:18:22Z</time>
      </trkpt>
      <trkpt lat="48.87646" lon="2.1233">
        <ele>16.1</ele>
        <time>2014-05-04T14:18:29Z</time>
      </trkpt>
      <trkpt lat="48.87663" lon="2.12313">
        <ele>13.51</ele>
        <time>2014-05-04T14:18:35Z</time>
      </trkpt>
      <trkpt lat="48.87678" lon="2.12297">
        <ele>11.83</ele>
        <time>2014-05-04T14:18:40Z</time>
      </trkpt>
      <trkpt lat="48.87694" lon="2.12277">
        <ele>14.94</ele>
        <time>2014-05-04T14:18:45Z</time>
      </trkpt>
      <trkpt lat="48.8771" lon="2.12255">
        <ele>17.43</ele>
        <time>2014-05-04T14:18:51Z</time>
      </trkpt>
      <trkpt lat="48.87722" lon="2.12233">
        <ele>20.27</ele>
        <time>2014-05-04T14:18:56Z</time>
      </trkpt>
      <trkpt lat="48.87738" lon="2.12209">
        <ele>20.36</ele>
        <time>2014-05-04T14:19:02Z</time>
      </trkpt>
      <trkpt lat="48.87753" lon="2.12193">
        <ele>22.49</ele>
        <time>2014-05-04T14:19:07Z</time>
      </trkpt>
      <trkpt lat="48.87767" lon="2.12173">
        <ele>19.93</ele>
        <time>2014-05-04T14:19:12Z</time>
      </trkpt>
      <trkpt lat="48.87781" lon="2.12152">
        <ele>19.13</ele>
        <time>2014-05-04T14:19:17Z</time>
      </trkpt>
      <trkpt lat="48.87795" lon="2.12131">
        <ele>16.6</ele>
        <time>2014-05-04T14:19:22Z</time>
      </trkpt>
      <trkpt lat="48.8781" lon="2.12111">
        <ele>17.24</ele>
        <time>2014-05-04T14:19:27Z</time>
      </trkpt>
      <trkpt lat="48.87825" lon="2.12095">
        <ele>19.86</ele>
        <time>2014-05-04T14:19:32Z</time>
      </trkpt>
      <trkpt lat="48.87839" lon="2.12073">
        <ele>22.88</ele>
        <time>2014-05-04T14:19:38Z</time>
      </trkpt>
      <trkpt lat="48.87854" lon="2.12052">
        <ele>22.78</ele>
        <time>2014-05-04T14:19:43Z</time>
      </trkpt>
      <trkpt lat="48.87868" lon="2.12034">
        <ele>20.37</ele>
        <time>2014-05-04T14:19:48Z</time>
      </trkpt>
      <trkpt lat="48.87882" lon="2.12015">
        <ele>20.05</ele>
        <time>2014-05-04T14:19:53Z</time>
      </trkpt>
      <trkpt lat="48.87896" lon="2.11996">
        <ele>20.23</ele>
        <time>2014-05-04T14:19:58Z</time>
      </trkpt>
      <trkpt lat="48.87912" lon="2.11976">
        <ele>21.39</ele>
        <time>2014-05-04T14:20:04Z</time>
      </trkpt>
      <trkpt lat="48.87927" lon="2.11959">
        <ele>22.02</ele>
        <time>2014-05-04T14:20:10Z</time>
      </trkpt>
      <trkpt lat="48.87942" lon="2.11937">
        <ele>25.42</ele>
        <time>2014-05-04T14:20:16Z</time>
      </trkpt>
      <trkpt lat="48.87959" lon="2.11921">
        <ele>25.53</ele>
        <time>2014-05-04T14:20:24Z</time>
      </trkpt>
      <trkpt lat="48.87975" lon="2.11899">
        <ele>28.1</ele>
        <time>2014-05-04T14:20:30Z</time>
      </trkpt>
      <trkpt lat="48.87993" lon="2.11882">
        <ele>25.85</ele>
        <time>2014-05-04T14:20:35Z</time>
      </trkpt>
      <trkpt lat="48.88011" lon="2.11865">
        <ele>24.76</ele>
        <time>2014-05-04T14:20:42Z</time>
      </trkpt>
      <trkpt lat="48.8803" lon="2.11853">
        <ele>22.97</ele>
        <time>2014-05-04T14:20:47Z</time>
      </trkpt>
      <trkpt lat="48.88048" lon="2.11838">
        <ele>25.79</ele>
        <time>2014-05-04T14:20:52Z</time>
      </trkpt>
      <trkpt lat="48.88064" lon="2.11823">
        <ele>27.44</ele>
        <time>2014-05-04T14:20:57Z</time>
      </trkpt>
      <trkpt lat="48.88079" lon="2.11804">
        <ele>27.55</ele>
        <time>2014-05-04T14:21:02Z</time>
      </trkpt>
      <trkpt lat="48.88093" lon="2.11783">
        <ele>28.24</ele>
        <time>2014-05-04T14:21:07Z</time>
      </trkpt>
      <trkpt lat="48.88105" lon="2.11764">
        <ele>28.79</ele>
        <time>2014-05-04T14:21:12Z</time>
      </trkpt>
      <trkpt lat="48.8812" lon="2.11746">
        <ele>26.35</ele>
        <time>2014-05-04T14:21:18Z</time>
      </trkpt>
      <trkpt lat="48.88134" lon="2.11726">
        <ele>25.52</ele>
        <time>2014-05-04T14:21:24Z</time>
      </trkpt>
      <trkpt lat="48.88147" lon="2.11707">
        <ele>24.49</ele>
        <time>2014-05-04T14:21:29Z</time>
      </trkpt>
      <trkpt lat="48.88161" lon="2.11683">
        <ele>26.64</ele>
        <time>2014-05-04T14:21:35Z</time>
      </trkpt>
      <trkpt lat="48.88179" lon="2.11677">
        <ele>22.1</ele>
        <time>2014-05-04T14:21:42Z</time>
      </trkpt>
      <trkpt lat="48.88196" lon="2.11661">
        <ele>23.33</ele>
        <time>2014-05-04T14:21:49Z</time>
      </trkpt>
      <trkpt lat="48.88212" lon="2.11647">
        <ele>26.34</ele>
        <time>2014-05-04T14:21:55Z</time>
      </trkpt>
      <trkpt lat="48.88228" lon="2.11634">
        <ele>25.25</ele>
        <time>2014-05-04T14:22:01Z</time>
      </trkpt>
      <trkpt lat="48.88244" lon="2.1162">
        <ele>24.73</ele>
        <time>2014-05-04T14:22:07Z</time>
      </trkpt>
      <trkpt lat="48.8826" lon="2.11605">
        <ele>28.49</ele>
        <time>2014-05-04T14:22:13Z</time>
      </trkpt>
      <trkpt lat="48.88277" lon="2.1159">
        <ele>29.52</ele>
        <time>2014-05-04T14:22:19Z</time>
      </trkpt>
      <trkpt lat="48.88296" lon="2.1158">
        <ele>27.96</ele>
        <time>2014-05-04T14:22:25Z</time>
      </trkpt>
      <trkpt lat="48.88315" lon="2.11571">
        <ele>26.67</ele>
        <time>2014-05-04T14:22:31Z</time>
      </trkpt>
      <trkpt lat="48.88334" lon="2.11562">
        <ele>23.99</ele>
        <time>2014-05-04T14:22:37Z</time>
      </trkpt>
      <trkpt lat="48.88353" lon="2.11552">
        <ele>23.43</ele>
        <time>2014-05-04T14:22:43Z</time>
      </trkpt>
      <trkpt lat="48.8837" lon="2.11539">
        <ele>26.03</ele>
        <time>2014-05-04T14:22:49Z</time>
      </trkpt>
      <trkpt lat="48.88387" lon="2.11527">
        <ele>25.6</ele>
        <time>2014-05-04T14:22:55Z</time>
      </trkpt>
      <trkpt lat="48.88403" lon="2.11513">
        <ele>26.44</ele>
        <time>2014-05-04T14:23:01Z</time>
      </trkpt>
      <trkpt lat="48.8842" lon="2.11496">
        <ele>28.2</ele>
        <time>2014-05-04T14:23:07Z</time>
      </trkpt>
      <trkpt lat="48.88437" lon="2.11481">
        <ele>30.01</ele>
        <time>2014-05-04T14:23:12Z</time>
      </trkpt>
      <trkpt lat="48.88455" lon="2.11465">
        <ele>30.41</ele>
        <time>2014-05-04T14:23:17Z</time>
      </trkpt>
      <trkpt lat="48.8847" lon="2.11447">
        <ele>29.11</ele>
        <time>2014-05-04T14:23:22Z</time>
      </trkpt>
      <trkpt lat="48.88489" lon="2.11433">
        <ele>25.63</ele>
        <time>2014-05-04T14:23:27Z</time>
      </trkpt>
      <trkpt lat="48.88508" lon="2.11418">
        <ele>23.46</ele>
        <time>2014-05-04T14:23:32Z</time>
      </trkpt>
      <trkpt lat="48.88526" lon="2.11403">
        <ele>25.3</ele>
        <time>2014-05-04T14:23:37Z</time>
      </trkpt>
      <trkpt lat="48.88544" lon="2.11383">
        <ele>24.45</ele>
        <time>2014-05-04T14:23:42Z</time>
      </trkpt>
      <trkpt lat="48.88561" lon="2.11366">
        <ele>22.77</ele>
        <time>2014-05-04T14:23:47Z</time>
      </trkpt>
      <trkpt lat="48.88578" lon="2.11347">
        <ele>24.15</ele>
        <time>2014-05-04T14:23:52Z</time>
      </trkpt>
      <trkpt lat="48.88594" lon="2.11329">
        <ele>23.85</ele>
        <time>2014-05-04T14:23:57Z</time>
      </trkpt>
      <trkpt lat="48.88612" lon="2.11313">
        <ele>25.34</ele>
        <time>2014-05-04T14:24:02Z</time>
      </trkpt>
      <trkpt lat="48.8863" lon="2.11302">
        <ele>23.98</ele>
        <time>2014-05-04T14:24:09Z</time>
      </trkpt>
      <trkpt lat="48.88648" lon="2.11292">
        <ele>25.16</ele>
        <time>2014-05-04T14:24:16Z</time>
      </trkpt>
      <trkpt lat="48.88666" lon="2.11278">
        <ele>22.46</ele>
        <time>2014-05-04T14:24:23Z</time>
      </trkpt>
      <trkpt lat="48.8868" lon="2.11257">
        <ele>29.89</ele>
        <time>2014-05-04T14:24:28Z</time>
      </trkpt>
      <trkpt lat="48.88695" lon="2.1124">
        <ele>28.28</ele>
        <time>2014-05-04T14:24:33Z</time>
      </trkpt>
      <trkpt lat="48.8871" lon="2.11224">
        <ele>27.36</ele>
        <time>2014-05-04T14:24:38Z</time>
      </trkpt>
      <trkpt lat="48.88724" lon="2.11206">
        <ele>26.84</ele>
        <time>2014-05-04T14:24:44Z</time>
      </trkpt>
      <trkpt lat="48.88741" lon="2.11191">
        <ele>24.96</ele>
        <time>2014-05-04T14:24:51Z</time>
      </trkpt>
      <trkpt lat="48.88758" lon="2.11177">
        <ele>23.67</ele>
        <time>2014-05-04T14:24:57Z</time>
      </trkpt>
      <trkpt lat="48.88777" lon="2.11161">
        <ele>23.6</ele>
        <time>2014-05-04T14:25:04Z</time>
      </trkpt>
      <trkpt lat="48.88793" lon="2.11146">
        <ele>22.84</ele>
        <time>2014-05-04T14:25:09Z</time>
      </trkpt>
      <trkpt lat="48.88812" lon="2.11129">
        <ele>24.56</ele>
        <time>2014-05-04T14:25:14Z</time>
      </trkpt>
      <trkpt lat="48.88828" lon="2.11113">
        <ele>24.31</ele>
        <time>2014-05-04T14:25:18Z</time>
      </trkpt>
      <trkpt lat="48.88846" lon="2.11098">
        <ele>28.14</ele>
        <time>2014-05-04T14:25:23Z</time>
      </trkpt>
      <trkpt lat="48.88863" lon="2.11084">
        <ele>30.92</ele>
        <time>2014-05-04T14:25:28Z</time>
      </trkpt>
      <trkpt lat="48.88879" lon="2.11071">
        <ele>31.4</ele>
        <time>2014-05-04T14:25:32Z</time>
      </trkpt>
      <trkpt lat="48.88896" lon="2.11058">
        <ele>31.49</ele>
        <time>2014-05-04T14:25:36Z</time>
      </trkpt>
      <trkpt lat="48.88914" lon="2.11045">
        <ele>30.55</ele>
        <time>2014-05-04T14:25:41Z</time>
      </trkpt>
      <trkpt lat="48.88932" lon="2.11031">
        <ele>30.27</ele>
        <time>2014-05-04T14:25:46Z</time>
      </trkpt>
      <trkpt lat="48.8895" lon="2.11017">
        <ele>29.92</ele>
        <time>2014-05-04T14:25:51Z</time>
      </trkpt>
      <trkpt lat="48.88967" lon="2.11001">
        <ele>30.32</ele>
        <time>2014-05-04T14:25:56Z</time>
      </trkpt>
      <trkpt lat="48.88985" lon="2.1099">
        <ele>30.48</ele>
        <time>2014-05-04T14:26:03Z</time>
      </trkpt>
      <trkpt lat="48.89002" lon="2.10979">
        <ele>31.11</ele>
        <time>2014-05-04T14:26:08Z</time>
      </trkpt>
      <trkpt lat="48.89023" lon="2.1097">
        <ele>26.95</ele>
        <time>2014-05-04T14:26:13Z</time>
      </trkpt>
      <trkpt lat="48.89044" lon="2.10955">
        <ele>26.77</ele>
        <time>2014-05-04T14:26:17Z</time>
      </trkpt>
      <trkpt lat="48.89062" lon="2.10948">
        <ele>25.64</ele>
        <time>2014-05-04T14:26:21Z</time>
      </trkpt>
      <trkpt lat="48.89081" lon="2.10941">
        <ele>24.13</ele>
        <time>2014-05-04T14:26:25Z</time>
      </trkpt>
      <trkpt lat="48.89098" lon="2.10931">
        <ele>23.6</ele>
        <time>2014-05-04T14:26:29Z</time>
      </trkpt>
      <trkpt lat="48.8912" lon="2.10925">
        <ele>20.65</ele>
        <time>2014-05-04T14:26:34Z</time>
      </trkpt>
      <trkpt lat="48.89138" lon="2.10922">
        <ele>20.38</ele>
        <time>2014-05-04T14:26:38Z</time>
      </trkpt>
      <trkpt lat="48.89158" lon="2.10915">
        <ele>21.18</ele>
        <time>2014-05-04T14:26:42Z</time>
      </trkpt>
      <trkpt lat="48.89179" lon="2.10919">
        <ele>21.04</ele>
        <time>2014-05-04T14:26:46Z</time>
      </trkpt>
      <trkpt lat="48.89199" lon="2.1092">
        <ele>22.03</ele>
        <time>2014-05-04T14:26:50Z</time>
      </trkpt>
      <trkpt lat="48.89218" lon="2.10924">
        <ele>19.97</ele>
        <time>2014-05-04T14:26:54Z</time>
      </trkpt>
      <trkpt lat="48.89236" lon="2.10926">
        <ele>20.96</ele>
        <time>2014-05-04T14:26:58Z</time>
      </trkpt>
      <trkpt lat="48.89256" lon="2.10934">
        <ele>19</ele>
        <time>2014-05-04T14:27:03Z</time>
      </trkpt>
      <trkpt lat="48.89274" lon="2.10935">
        <ele>18.53</ele>
        <time>2014-05-04T14:27:07Z</time>
      </trkpt>
      <trkpt lat="48.89296" lon="2.10944">
        <ele>17.19</ele>
        <time>2014-05-04T14:27:11Z</time>
      </trkpt>
      <trkpt lat="48.89317" lon="2.10946">
        <ele>17.89</ele>
        <time>2014-05-04T14:27:16Z</time>
      </trkpt>
      <trkpt lat="48.89335" lon="2.10947">
        <ele>17.91</ele>
        <time>2014-05-04T14:27:21Z</time>
      </trkpt>
      <trkpt lat="48.89356" lon="2.10953">
        <ele>18.13</ele>
        <time>2014-05-04T14:27:26Z</time>
      </trkpt>
      <trkpt lat="48.89376" lon="2.10956">
        <ele>16.82</ele>
        <time>2014-05-04T14:27:31Z</time>
      </trkpt>
      <trkpt lat="48.89394" lon="2.10955">
        <ele>18.66</ele>
        <time>2014-05-04T14:27:36Z</time>
      </trkpt>
      <trkpt lat="48.89414" lon="2.10952">
        <ele>19.28</ele>
        <time>2014-05-04T14:27:41Z</time>
      </trkpt>
      <trkpt lat="48.89434" lon="2.10954">
        <ele>21.89</ele>
        <time>2014-05-04T14:27:46Z</time>
      </trkpt>
      <trkpt lat="48.89455" lon="2.10955">
        <ele>22.28</ele>
        <time>2014-05-04T14:27:51Z</time>
      </trkpt>
      <trkpt lat="48.89476" lon="2.10955">
        <ele>22.36</ele>
        <time>2014-05-04T14:27:56Z</time>
      </trkpt>
      <trkpt lat="48.89495" lon="2.10954">
        <ele>27.36</ele>
        <time>2014-05-04T14:28:01Z</time>
      </trkpt>
      <trkpt lat="48.89514" lon="2.10956">
        <ele>28.52</ele>
        <time>2014-05-04T14:28:06Z</time>
      </trkpt>
      <trkpt lat="48.89532" lon="2.10957">
        <ele>28.99</ele>
        <time>2014-05-04T14:28:11Z</time>
      </trkpt>
      <trkpt lat="48.8955" lon="2.1096">
        <ele>27.04</ele>
        <time>2014-05-04T14:28:16Z</time>
      </trkpt>
      <trkpt lat="48.89568" lon="2.10978">
        <ele>25.35</ele>
        <time>2014-05-04T14:28:21Z</time>
      </trkpt>
      <trkpt lat="48.89585" lon="2.1099">
        <ele>22.64</ele>
        <time>2014-05-04T14:28:26Z</time>
      </trkpt>
      <trkpt lat="48.89606" lon="2.10988">
        <ele>21.81</ele>
        <time>2014-05-04T14:28:31Z</time>
      </trkpt>
      <trkpt lat="48.89625" lon="2.10982">
        <ele>19.37</ele>
        <time>2014-05-04T14:28:36Z</time>
      </trkpt>
      <trkpt lat="48.89645" lon="2.10984">
        <ele>15.88</ele>
        <time>2014-05-04T14:28:42Z</time>
      </trkpt>
      <trkpt lat="48.89664" lon="2.10985">
        <ele>16.72</ele>
        <time>2014-05-04T14:28:47Z</time>
      </trkpt>
      <trkpt lat="48.89684" lon="2.10992">
        <ele>20.06</ele>
        <time>2014-05-04T14:28:52Z</time>
      </trkpt>
      <trkpt lat="48.89703" lon="2.10997">
        <ele>22.56</ele>
        <time>2014-05-04T14:28:58Z</time>
      </trkpt>
      <trkpt lat="48.89723" lon="2.10994">
        <ele>24.61</ele>
        <time>2014-05-04T14:29:04Z</time>
      </trkpt>
      <trkpt lat="48.89744" lon="2.10997">
        <ele>24.43</ele>
        <time>2014-05-04T14:29:09Z</time>
      </trkpt>
      <trkpt lat="48.89763" lon="2.10999">
        <ele>26.06</ele>
        <time>2014-05-04T14:29:12Z</time>
      </trkpt>
      <trkpt lat="48.89784" lon="2.10993">
        <ele>29.91</ele>
        <time>2014-05-04T14:29:17Z</time>
      </trkpt>
      <trkpt lat="48.89803" lon="2.10989">
        <ele>29.47</ele>
        <time>2014-05-04T14:29:22Z</time>
      </trkpt>
      <trkpt lat="48.89824" lon="2.10995">
        <ele>25.38</ele>
        <time>2014-05-04T14:29:28Z</time>
      </trkpt>
      <trkpt lat="48.89842" lon="2.10988">
        <ele>24.24</ele>
        <time>2014-05-04T14:29:32Z</time>
      </trkpt>
      <trkpt lat="48.89861" lon="2.10987">
        <ele>24.98</ele>
        <time>2014-05-04T14:29:36Z</time>
      </trkpt>
      <trkpt lat="48.89882" lon="2.10992">
        <ele>26.03</ele>
        <time>2014-05-04T14:29:40Z</time>
      </trkpt>
      <trkpt lat="48.89902" lon="2.10994">
        <ele>21.84</ele>
        <time>2014-05-04T14:29:47Z</time>
      </trkpt>
      <trkpt lat="48.8992" lon="2.10996">
        <ele>24.89</ele>
        <time>2014-05-04T14:29:51Z</time>
      </trkpt>
      <trkpt lat="48.89939" lon="2.10998">
        <ele>22.9</ele>
        <time>2014-05-04T14:29:55Z</time>
      </trkpt>
      <trkpt lat="48.89957" lon="2.11008">
        <ele>21.4</ele>
        <time>2014-05-04T14:30:01Z</time>
      </trkpt>
      <trkpt lat="48.89975" lon="2.11022">
        <ele>18.67</ele>
        <time>2014-05-04T14:30:06Z</time>
      </trkpt>
      <trkpt lat="48.89993" lon="2.11033">
        <ele>14.26</ele>
        <time>2014-05-04T14:30:10Z</time>
      </trkpt>
      <trkpt lat="48.90012" lon="2.11048">
        <ele>15.29</ele>
        <time>2014-05-04T14:30:14Z</time>
      </trkpt>
      <trkpt lat="48.90037" lon="2.11059">
        <ele>16.67</ele>
        <time>2014-05-04T14:30:17Z</time>
      </trkpt>
      <trkpt lat="48.90058" lon="2.11063">
        <ele>19.26</ele>
        <time>2014-05-04T14:30:21Z</time>
      </trkpt>
      <trkpt lat="48.90068" lon="2.1109">
        <ele>18.67</ele>
        <time>2014-05-04T14:30:25Z</time>
      </trkpt>
      <trkpt lat="48.9008" lon="2.11117">
        <ele>16.18</ele>
        <time>2014-05-04T14:30:30Z</time>
      </trkpt>
      <trkpt lat="48.90085" lon="2.11144">
        <ele>16.66</ele>
        <time>2014-05-04T14:30:33Z</time>
      </trkpt>
      <trkpt lat="48.90104" lon="2.11151">
        <ele>17.01</ele>
        <time>2014-05-04T14:30:37Z</time>
      </trkpt>
      <trkpt lat="48.90123" lon="2.11149">
        <ele>17.59</ele>
        <time>2014-05-04T14:30:41Z</time>
      </trkpt>
      <trkpt lat="48.90142" lon="2.11159">
        <ele>20.33</ele>
        <time>2014-05-04T14:30:49Z</time>
      </trkpt>
      <trkpt lat="48.90158" lon="2.11175">
        <ele>21.41</ele>
        <time>2014-05-04T14:30:59Z</time>
      </trkpt>
      <trkpt lat="48.90164" lon="2.11202">
        <ele>23.61</ele>
        <time>2014-05-04T14:41:45Z</time>
      </trkpt>
      <trkpt lat="48.90178" lon="2.11222">
        <ele>23.85</ele>
        <time>2014-05-04T14:41:52Z</time>
      </trkpt>
      <trkpt lat="48.90191" lon="2.11244">
        <ele>22.68</ele>
        <time>2014-05-04T14:41:59Z</time>
      </trkpt>
      <trkpt lat="48.90205" lon="2.11261">
        <ele>22.32</ele>
        <time>2014-05-04T14:42:05Z</time>
      </trkpt>
      <trkpt lat="48.90223" lon="2.11274">
        <ele>22.33</ele>
        <time>2014-05-04T14:42:11Z</time>
      </trkpt>
      <trkpt lat="48.90242" lon="2.11282">
        <ele>24.74</ele>
        <time>2014-05-04T14:42:15Z</time>
      </trkpt>
      <trkpt lat="48.9026" lon="2.11288">
        <ele>23.81</ele>
        <time>2014-05-04T14:42:20Z</time>
      </trkpt>
      <trkpt lat="48.9028" lon="2.11282">
        <ele>16.05</ele>
        <time>2014-05-04T14:42:27Z</time>
      </trkpt>
      <trkpt lat="48.90297" lon="2.11297">
        <ele>13.88</ele>
        <time>2014-05-04T14:42:34Z</time>
      </trkpt>
      <trkpt lat="48.90313" lon="2.11316">
        <ele>14.6</ele>
        <time>2014-05-04T14:42:40Z</time>
      </trkpt>
      <trkpt lat="48.90332" lon="2.11322">
        <ele>15.84</ele>
        <time>2014-05-04T14:42:45Z</time>
      </trkpt>
      <trkpt lat="48.90351" lon="2.11328">
        <ele>17.47</ele>
        <time>2014-05-04T14:42:50Z</time>
      </trkpt>
      <trkpt lat="48.90369" lon="2.11337">
        <ele>16.96</ele>
        <time>2014-05-04T14:42:55Z</time>
      </trkpt>
      <trkpt lat="48.90387" lon="2.11345">
        <ele>16.88</ele>
        <time>2014-05-04T14:43:00Z</time>
      </trkpt>
      <trkpt lat="48.90408" lon="2.11348">
        <ele>20.69</ele>
        <time>2014-05-04T14:43:05Z</time>
      </trkpt>
      <trkpt lat="48.90427" lon="2.11357">
        <ele>21.5</ele>
        <time>2014-05-04T14:43:10Z</time>
      </trkpt>
      <trkpt lat="48.90447" lon="2.11363">
        <ele>25.74</ele>
        <time>2014-05-04T14:43:15Z</time>
      </trkpt>
      <trkpt lat="48.90501" lon="2.11323">
        <ele>27.24</ele>
        <time>2014-05-04T14:43:34Z</time>
      </trkpt>
      <trkpt lat="48.90487" lon="2.11401">
        <ele>25.78</ele>
        <time>2014-05-04T14:43:36Z</time>
      </trkpt>
      <trkpt lat="48.90505" lon="2.11412">
        <ele>28.66</ele>
        <time>2014-05-04T14:43:43Z</time>
      </trkpt>
      <trkpt lat="48.90527" lon="2.11423">
        <ele>28.78</ele>
        <time>2014-05-04T14:43:48Z</time>
      </trkpt>
      <trkpt lat="48.90566" lon="2.11419">
        <ele>27.86</ele>
        <time>2014-05-04T14:43:56Z</time>
      </trkpt>
      <trkpt lat="48.90586" lon="2.11413">
        <ele>27.33</ele>
        <time>2014-05-04T14:44:00Z</time>
      </trkpt>
      <trkpt lat="48.90608" lon="2.11414">
        <ele>27.27</ele>
        <time>2014-05-04T14:44:05Z</time>
      </trkpt>
      <trkpt lat="48.90629" lon="2.11423">
        <ele>27.29</ele>
        <time>2014-05-04T14:44:08Z</time>
      </trkpt>
      <trkpt lat="48.90638" lon="2.11462">
        <ele>27.29</ele>
        <time>2014-05-04T14:44:09Z</time>
      </trkpt>
      <trkpt lat="48.90763" lon="2.11412">
        <ele>26.8</ele>
        <time>2014-05-04T14:45:08Z</time>
      </trkpt>
      <trkpt lat="48.90772" lon="2.11498">
        <ele>30.05</ele>
        <time>2014-05-04T14:45:16Z</time>
      </trkpt>
      <trkpt lat="48.90784" lon="2.11521">
        <ele>21.54</ele>
        <time>2014-05-04T14:45:26Z</time>
      </trkpt>
      <trkpt lat="48.90804" lon="2.11524">
        <ele>19.58</ele>
        <time>2014-05-04T14:45:35Z</time>
      </trkpt>
      <trkpt lat="48.90838" lon="2.11549">
        <ele>19.81</ele>
        <time>2014-05-04T14:45:55Z</time>
      </trkpt>
      <trkpt lat="48.9082" lon="2.11553">
        <ele>16.43</ele>
        <time>2014-05-04T14:46:29Z</time>
      </trkpt>
      <trkpt lat="48.90811" lon="2.11577">
        <ele>12.92</ele>
        <time>2014-05-04T14:46:35Z</time>
      </trkpt>
      <trkpt lat="48.90799" lon="2.116">
        <ele>13.16</ele>
        <time>2014-05-04T14:46:40Z</time>
      </trkpt>
      <trkpt lat="48.9079" lon="2.11626">
        <ele>14.42</ele>
        <time>2014-05-04T14:46:45Z</time>
      </trkpt>
      <trkpt lat="48.90779" lon="2.11654">
        <ele>13.74</ele>
        <time>2014-05-04T14:46:51Z</time>
      </trkpt>
      <trkpt lat="48.90789" lon="2.11681">
        <ele>21.17</ele>
        <time>2014-05-04T14:47:09Z</time>
      </trkpt>
      <trkpt lat="48.90804" lon="2.11699">
        <ele>26.6</ele>
        <time>2014-05-04T14:47:13Z</time>
      </trkpt>
      <trkpt lat="48.90822" lon="2.11712">
        <ele>25.4</ele>
        <time>2014-05-04T14:47:18Z</time>
      </trkpt>
      <trkpt lat="48.90839" lon="2.11732">
        <ele>28.86</ele>
        <time>2014-05-04T14:47:23Z</time>
      </trkpt>
      <trkpt lat="48.90854" lon="2.1175">
        <ele>30.71</ele>
        <time>2014-05-04T14:47:27Z</time>
      </trkpt>
      <trkpt lat="48.90869" lon="2.11766">
        <ele>32.51</ele>
        <time>2014-05-04T14:47:31Z</time>
      </trkpt>
      <trkpt lat="48.90886" lon="2.11783">
        <ele>29.46</ele>
        <time>2014-05-04T14:47:36Z</time>
      </trkpt>
      <trkpt lat="48.90903" lon="2.11799">
        <ele>26.33</ele>
        <time>2014-05-04T14:47:41Z</time>
      </trkpt>
      <trkpt lat="48.9092" lon="2.11816">
        <ele>25.86</ele>
        <time>2014-05-04T14:47:46Z</time>
      </trkpt>
      <trkpt lat="48.90937" lon="2.11834">
        <ele>24.31</ele>
        <time>2014-05-04T14:47:51Z</time>
      </trkpt>
      <trkpt lat="48.90953" lon="2.11849">
        <ele>24.45</ele>
        <time>2014-05-04T14:47:56Z</time>
      </trkpt>
      <trkpt lat="48.9097" lon="2.11865">
        <ele>24.27</ele>
        <time>2014-05-04T14:48:02Z</time>
      </trkpt>
      <trkpt lat="48.90986" lon="2.11882">
        <ele>23.33</ele>
        <time>2014-05-04T14:48:07Z</time>
      </trkpt>
      <trkpt lat="48.91001" lon="2.11897">
        <ele>24.83</ele>
        <time>2014-05-04T14:48:12Z</time>
      </trkpt>
      <trkpt lat="48.91018" lon="2.11917">
        <ele>26.78</ele>
        <time>2014-05-04T14:48:17Z</time>
      </trkpt>
      <trkpt lat="48.91036" lon="2.11936">
        <ele>28.12</ele>
        <time>2014-05-04T14:48:22Z</time>
      </trkpt>
      <trkpt lat="48.91054" lon="2.11955">
        <ele>27.51</ele>
        <time>2014-05-04T14:48:27Z</time>
      </trkpt>
      <trkpt lat="48.91068" lon="2.11973">
        <ele>27.5</ele>
        <time>2014-05-04T14:48:31Z</time>
      </trkpt>
      <trkpt lat="48.91085" lon="2.1199">
        <ele>26.06</ele>
        <time>2014-05-04T14:48:35Z</time>
      </trkpt>
      <trkpt lat="48.91104" lon="2.12008">
        <ele>22.51</ele>
        <time>2014-05-04T14:48:40Z</time>
      </trkpt>
      <trkpt lat="48.91121" lon="2.12027">
        <ele>21.33</ele>
        <time>2014-05-04T14:48:45Z</time>
      </trkpt>
      <trkpt lat="48.91137" lon="2.12043">
        <ele>21.8</ele>
        <time>2014-05-04T14:48:49Z</time>
      </trkpt>
      <trkpt lat="48.91152" lon="2.12061">
        <ele>19.39</ele>
        <time>2014-05-04T14:48:53Z</time>
      </trkpt>
      <trkpt lat="48.91168" lon="2.12078">
        <ele>20.93</ele>
        <time>2014-05-04T14:48:57Z</time>
      </trkpt>
      <trkpt lat="48.91183" lon="2.12096">
        <ele>22.02</ele>
        <time>2014-05-04T14:49:01Z</time>
      </trkpt>
      <trkpt lat="48.91197" lon="2.12115">
        <ele>23.15</ele>
        <time>2014-05-04T14:49:05Z</time>
      </trkpt>
      <trkpt lat="48.91214" lon="2.12124">
        <ele>24.47</ele>
        <time>2014-05-04T14:49:09Z</time>
      </trkpt>
      <trkpt lat="48.91231" lon="2.12141">
        <ele>26.39</ele>
        <time>2014-05-04T14:49:15Z</time>
      </trkpt>
      <trkpt lat="48.91243" lon="2.12167">
        <ele>25.53</ele>
        <time>2014-05-04T14:49:21Z</time>
      </trkpt>
      <trkpt lat="48.91258" lon="2.12189">
        <ele>26.91</ele>
        <time>2014-05-04T14:49:27Z</time>
      </trkpt>
      <trkpt lat="48.91272" lon="2.12208">
        <ele>27.6</ele>
        <time>2014-05-04T14:49:32Z</time>
      </trkpt>
      <trkpt lat="48.91288" lon="2.12227">
        <ele>28.09</ele>
        <time>2014-05-04T14:49:37Z</time>
      </trkpt>
      <trkpt lat="48.91305" lon="2.12242">
        <ele>29.79</ele>
        <time>2014-05-04T14:49:42Z</time>
      </trkpt>
      <trkpt lat="48.91322" lon="2.12259">
        <ele>28.81</ele>
        <time>2014-05-04T14:49:47Z</time>
      </trkpt>
      <trkpt lat="48.91341" lon="2.12274">
        <ele>29.56</ele>
        <time>2014-05-04T14:49:52Z</time>
      </trkpt>
      <trkpt lat="48.91357" lon="2.12293">
        <ele>31.55</ele>
        <time>2014-05-04T14:49:57Z</time>
      </trkpt>
      <trkpt lat="48.91371" lon="2.12312">
        <ele>29.96</ele>
        <time>2014-05-04T14:50:02Z</time>
      </trkpt>
      <trkpt lat="48.91387" lon="2.12329">
        <ele>27.32</ele>
        <time>2014-05-04T14:50:07Z</time>
      </trkpt>
      <trkpt lat="48.91404" lon="2.12347">
        <ele>28.64</ele>
        <time>2014-05-04T14:50:12Z</time>
      </trkpt>
      <trkpt lat="48.91421" lon="2.12366">
        <ele>30.43</ele>
        <time>2014-05-04T14:50:17Z</time>
      </trkpt>
      <trkpt lat="48.91438" lon="2.12381">
        <ele>28.39</ele>
        <time>2014-05-04T14:50:22Z</time>
      </trkpt>
      <trkpt lat="48.91451" lon="2.12402">
        <ele>26.61</ele>
        <time>2014-05-04T14:50:27Z</time>
      </trkpt>
      <trkpt lat="48.91468" lon="2.1242">
        <ele>29.43</ele>
        <time>2014-05-04T14:50:32Z</time>
      </trkpt>
      <trkpt lat="48.91484" lon="2.12439">
        <ele>30.8</ele>
        <time>2014-05-04T14:50:37Z</time>
      </trkpt>
      <trkpt lat="48.915" lon="2.12457">
        <ele>29.28</ele>
        <time>2014-05-04T14:50:42Z</time>
      </trkpt>
      <trkpt lat="48.91516" lon="2.12474">
        <ele>26.51</ele>
        <time>2014-05-04T14:50:47Z</time>
      </trkpt>
      <trkpt lat="48.91533" lon="2.12491">
        <ele>26.05</ele>
        <time>2014-05-04T14:50:52Z</time>
      </trkpt>
      <trkpt lat="48.9155" lon="2.1251">
        <ele>26.29</ele>
        <time>2014-05-04T14:50:57Z</time>
      </trkpt>
      <trkpt lat="48.91567" lon="2.12529">
        <ele>24.61</ele>
        <time>2014-05-04T14:51:02Z</time>
      </trkpt>
      <trkpt lat="48.91583" lon="2.12547">
        <ele>25.25</ele>
        <time>2014-05-04T14:51:06Z</time>
      </trkpt>
      <trkpt lat="48.91597" lon="2.12567">
        <ele>25.29</ele>
        <time>2014-05-04T14:51:10Z</time>
      </trkpt>
      <trkpt lat="48.91612" lon="2.12587">
        <ele>24.86</ele>
        <time>2014-05-04T14:51:14Z</time>
      </trkpt>
      <trkpt lat="48.91629" lon="2.12605">
        <ele>23.39</ele>
        <time>2014-05-04T14:51:18Z</time>
      </trkpt>
      <trkpt lat="48.91647" lon="2.12626">
        <ele>22.36</ele>
        <time>2014-05-04T14:51:22Z</time>
      </trkpt>
      <trkpt lat="48.91683" lon="2.12643">
        <ele>23.55</ele>
        <time>2014-05-04T14:51:29Z</time>
      </trkpt>
      <trkpt lat="48.91695" lon="2.12669">
        <ele>24.33</ele>
        <time>2014-05-04T14:51:32Z</time>
      </trkpt>
      <trkpt lat="48.91709" lon="2.12686">
        <ele>27.61</ele>
        <time>2014-05-04T14:51:36Z</time>
      </trkpt>
      <trkpt lat="48.91723" lon="2.12702">
        <ele>25.21</ele>
        <time>2014-05-04T14:51:41Z</time>
      </trkpt>
      <trkpt lat="48.91739" lon="2.12719">
        <ele>26.42</ele>
        <time>2014-05-04T14:51:47Z</time>
      </trkpt>
      <trkpt lat="48.91757" lon="2.12736">
        <ele>28.14</ele>
        <time>2014-05-04T14:51:53Z</time>
      </trkpt>
      <trkpt lat="48.91772" lon="2.12751">
        <ele>28.17</ele>
        <time>2014-05-04T14:51:58Z</time>
      </trkpt>
      <trkpt lat="48.9179" lon="2.12767">
        <ele>25.64</ele>
        <time>2014-05-04T14:52:04Z</time>
      </trkpt>
      <trkpt lat="48.91807" lon="2.12784">
        <ele>26.06</ele>
        <time>2014-05-04T14:52:09Z</time>
      </trkpt>
      <trkpt lat="48.91824" lon="2.12803">
        <ele>26.35</ele>
        <time>2014-05-04T14:52:14Z</time>
      </trkpt>
      <trkpt lat="48.91841" lon="2.12821">
        <ele>25.24</ele>
        <time>2014-05-04T14:52:19Z</time>
      </trkpt>
      <trkpt lat="48.91857" lon="2.12838">
        <ele>27.42</ele>
        <time>2014-05-04T14:52:23Z</time>
      </trkpt>
      <trkpt lat="48.91875" lon="2.12853">
        <ele>27.3</ele>
        <time>2014-05-04T14:52:27Z</time>
      </trkpt>
      <trkpt lat="48.91891" lon="2.12872">
        <ele>29.98</ele>
        <time>2014-05-04T14:52:31Z</time>
      </trkpt>
      <trkpt lat="48.91909" lon="2.12889">
        <ele>28.79</ele>
        <time>2014-05-04T14:52:36Z</time>
      </trkpt>
      <trkpt lat="48.91928" lon="2.1289">
        <ele>27.91</ele>
        <time>2014-05-04T14:52:41Z</time>
      </trkpt>
      <trkpt lat="48.91946" lon="2.12906">
        <ele>30.19</ele>
        <time>2014-05-04T14:52:46Z</time>
      </trkpt>
      <trkpt lat="48.91953" lon="2.12934">
        <ele>31.11</ele>
        <time>2014-05-04T14:52:51Z</time>
      </trkpt>
      <trkpt lat="48.91965" lon="2.12955">
        <ele>31.82</ele>
        <time>2014-05-04T14:52:56Z</time>
      </trkpt>
      <trkpt lat="48.91982" lon="2.12971">
        <ele>31.06</ele>
        <time>2014-05-04T14:53:01Z</time>
      </trkpt>
      <trkpt lat="48.91999" lon="2.12985">
        <ele>30.44</ele>
        <time>2014-05-04T14:53:06Z</time>
      </trkpt>
      <trkpt lat="48.92009" lon="2.13012">
        <ele>33.64</ele>
        <time>2014-05-04T14:53:11Z</time>
      </trkpt>
      <trkpt lat="48.92026" lon="2.13033">
        <ele>34.99</ele>
        <time>2014-05-04T14:53:16Z</time>
      </trkpt>
      <trkpt lat="48.92047" lon="2.13031">
        <ele>34.22</ele>
        <time>2014-05-04T14:53:18Z</time>
      </trkpt>
      <trkpt lat="48.92057" lon="2.13054">
        <ele>32.29</ele>
        <time>2014-05-04T14:53:23Z</time>
      </trkpt>
      <trkpt lat="48.92073" lon="2.13074">
        <ele>25.42</ele>
        <time>2014-05-04T14:53:28Z</time>
      </trkpt>
      <trkpt lat="48.9209" lon="2.13092">
        <ele>22.49</ele>
        <time>2014-05-04T14:53:33Z</time>
      </trkpt>
      <trkpt lat="48.92109" lon="2.13102">
        <ele>24.43</ele>
        <time>2014-05-04T14:53:37Z</time>
      </trkpt>
      <trkpt lat="48.9213" lon="2.13099">
        <ele>26.12</ele>
        <time>2014-05-04T14:53:41Z</time>
      </trkpt>
      <trkpt lat="48.92148" lon="2.13104">
        <ele>28.16</ele>
        <time>2014-05-04T14:53:45Z</time>
      </trkpt>
      <trkpt lat="48.9216" lon="2.13127">
        <ele>28.86</ele>
        <time>2014-05-04T14:53:51Z</time>
      </trkpt>
      <trkpt lat="48.92161" lon="2.13157">
        <ele>30.41</ele>
        <time>2014-05-04T14:53:57Z</time>
      </trkpt>
      <trkpt lat="48.92172" lon="2.13182">
        <ele>28.27</ele>
        <time>2014-05-04T14:54:02Z</time>
      </trkpt>
      <trkpt lat="48.92186" lon="2.13205">
        <ele>26.89</ele>
        <time>2014-05-04T14:54:07Z</time>
      </trkpt>
      <trkpt lat="48.92201" lon="2.13229">
        <ele>28.44</ele>
        <time>2014-05-04T14:54:12Z</time>
      </trkpt>
      <trkpt lat="48.92216" lon="2.13253">
        <ele>29.46</ele>
        <time>2014-05-04T14:54:17Z</time>
      </trkpt>
      <trkpt lat="48.92229" lon="2.13273">
        <ele>28.56</ele>
        <time>2014-05-04T14:54:21Z</time>
      </trkpt>
      <trkpt lat="48.92243" lon="2.13292">
        <ele>28.56</ele>
        <time>2014-05-04T14:54:25Z</time>
      </trkpt>
      <trkpt lat="48.92257" lon="2.13311">
        <ele>29.88</ele>
        <time>2014-05-04T14:54:29Z</time>
      </trkpt>
      <trkpt lat="48.92275" lon="2.13329">
        <ele>27.85</ele>
        <time>2014-05-04T14:54:34Z</time>
      </trkpt>
      <trkpt lat="48.92291" lon="2.13342">
        <ele>26.39</ele>
        <time>2014-05-04T14:54:38Z</time>
      </trkpt>
      <trkpt lat="48.92296" lon="2.13372">
        <ele>28.11</ele>
        <time>2014-05-04T14:54:43Z</time>
      </trkpt>
      <trkpt lat="48.92303" lon="2.13397">
        <ele>26.92</ele>
        <time>2014-05-04T14:54:48Z</time>
      </trkpt>
      <trkpt lat="48.92318" lon="2.13421">
        <ele>24.69</ele>
        <time>2014-05-04T14:54:53Z</time>
      </trkpt>
      <trkpt lat="48.92332" lon="2.13445">
        <ele>22.76</ele>
        <time>2014-05-04T14:54:57Z</time>
      </trkpt>
      <trkpt lat="48.92348" lon="2.13466">
        <ele>23.95</ele>
        <time>2014-05-04T14:55:01Z</time>
      </trkpt>
      <trkpt lat="48.92368" lon="2.13482">
        <ele>24.65</ele>
        <time>2014-05-04T14:55:05Z</time>
      </trkpt>
      <trkpt lat="48.92383" lon="2.13503">
        <ele>27.88</ele>
        <time>2014-05-04T14:55:09Z</time>
      </trkpt>
      <trkpt lat="48.92398" lon="2.13527">
        <ele>31.27</ele>
        <time>2014-05-04T14:55:13Z</time>
      </trkpt>
      <trkpt lat="48.92412" lon="2.13547">
        <ele>32.86</ele>
        <time>2014-05-04T14:55:17Z</time>
      </trkpt>
      <trkpt lat="48.92426" lon="2.1357">
        <ele>29.91</ele>
        <time>2014-05-04T14:55:23Z</time>
      </trkpt>
      <trkpt lat="48.92441" lon="2.13591">
        <ele>28.69</ele>
        <time>2014-05-04T14:55:28Z</time>
      </trkpt>
      <trkpt lat="48.92454" lon="2.1361">
        <ele>28.03</ele>
        <time>2014-05-04T14:55:33Z</time>
      </trkpt>
      <trkpt lat="48.92469" lon="2.13633">
        <ele>30.51</ele>
        <time>2014-05-04T14:55:38Z</time>
      </trkpt>
      <trkpt lat="48.92481" lon="2.13654">
        <ele>31.37</ele>
        <time>2014-05-04T14:55:42Z</time>
      </trkpt>
      <trkpt lat="48.92496" lon="2.13677">
        <ele>32.08</ele>
        <time>2014-05-04T14:55:47Z</time>
      </trkpt>
      <trkpt lat="48.92512" lon="2.13697">
        <ele>31.01</ele>
        <time>2014-05-04T14:55:52Z</time>
      </trkpt>
      <trkpt lat="48.92526" lon="2.1372">
        <ele>34.79</ele>
        <time>2014-05-04T14:55:57Z</time>
      </trkpt>
      <trkpt lat="48.9254" lon="2.13741">
        <ele>32.37</ele>
        <time>2014-05-04T14:56:02Z</time>
      </trkpt>
      <trkpt lat="48.92554" lon="2.13764">
        <ele>32.64</ele>
        <time>2014-05-04T14:56:07Z</time>
      </trkpt>
      <trkpt lat="48.92566" lon="2.13786">
        <ele>31.65</ele>
        <time>2014-05-04T14:56:12Z</time>
      </trkpt>
      <trkpt lat="48.92581" lon="2.13806">
        <ele>30.4</ele>
        <time>2014-05-04T14:56:17Z</time>
      </trkpt>
      <trkpt lat="48.92595" lon="2.13824">
        <ele>29.68</ele>
        <time>2014-05-04T14:56:21Z</time>
      </trkpt>
      <trkpt lat="48.92608" lon="2.13843">
        <ele>28.88</ele>
        <time>2014-05-04T14:56:25Z</time>
      </trkpt>
      <trkpt lat="48.92627" lon="2.13865">
        <ele>27.38</ele>
        <time>2014-05-04T14:56:30Z</time>
      </trkpt>
      <trkpt lat="48.92639" lon="2.13887">
        <ele>26.08</ele>
        <time>2014-05-04T14:56:35Z</time>
      </trkpt>
      <trkpt lat="48.92657" lon="2.13908">
        <ele>23.51</ele>
        <time>2014-05-04T14:56:40Z</time>
      </trkpt>
      <trkpt lat="48.92672" lon="2.13932">
        <ele>24.77</ele>
        <time>2014-05-04T14:56:45Z</time>
      </trkpt>
      <trkpt lat="48.92686" lon="2.13951">
        <ele>25.64</ele>
        <time>2014-05-04T14:56:49Z</time>
      </trkpt>
      <trkpt lat="48.92701" lon="2.13973">
        <ele>25.94</ele>
        <time>2014-05-04T14:56:53Z</time>
      </trkpt>
      <trkpt lat="48.92718" lon="2.13994">
        <ele>24.63</ele>
        <time>2014-05-04T14:56:58Z</time>
      </trkpt>
      <trkpt lat="48.92732" lon="2.14021">
        <ele>22.34</ele>
        <time>2014-05-04T14:57:03Z</time>
      </trkpt>
      <trkpt lat="48.92746" lon="2.14044">
        <ele>21.36</ele>
        <time>2014-05-04T14:57:08Z</time>
      </trkpt>
      <trkpt lat="48.92761" lon="2.14062">
        <ele>20.49</ele>
        <time>2014-05-04T14:57:12Z</time>
      </trkpt>
      <trkpt lat="48.92776" lon="2.14083">
        <ele>21.25</ele>
        <time>2014-05-04T14:57:16Z</time>
      </trkpt>
      <trkpt lat="48.92789" lon="2.14106">
        <ele>23.29</ele>
        <time>2014-05-04T14:57:21Z</time>
      </trkpt>
      <trkpt lat="48.92805" lon="2.14128">
        <ele>25.33</ele>
        <time>2014-05-04T14:57:26Z</time>
      </trkpt>
      <trkpt lat="48.92818" lon="2.14147">
        <ele>26.92</ele>
        <time>2014-05-04T14:57:31Z</time>
      </trkpt>
      <trkpt lat="48.92833" lon="2.14169">
        <ele>23.51</ele>
        <time>2014-05-04T14:57:38Z</time>
      </trkpt>
      <trkpt lat="48.92839" lon="2.14194">
        <ele>26.63</ele>
        <time>2014-05-04T14:57:44Z</time>
      </trkpt>
      <trkpt lat="48.92849" lon="2.14219">
        <ele>28.57</ele>
        <time>2014-05-04T14:57:48Z</time>
      </trkpt>
      <trkpt lat="48.92863" lon="2.14245">
        <ele>29.9</ele>
        <time>2014-05-04T14:57:53Z</time>
      </trkpt>
      <trkpt lat="48.92882" lon="2.1426">
        <ele>25.96</ele>
        <time>2014-05-04T14:57:57Z</time>
      </trkpt>
      <trkpt lat="48.92894" lon="2.14282">
        <ele>26.71</ele>
        <time>2014-05-04T14:58:01Z</time>
      </trkpt>
      <trkpt lat="48.92907" lon="2.14302">
        <ele>29.45</ele>
        <time>2014-05-04T14:58:05Z</time>
      </trkpt>
      <trkpt lat="48.92919" lon="2.14329">
        <ele>32.16</ele>
        <time>2014-05-04T14:58:11Z</time>
      </trkpt>
      <trkpt lat="48.92935" lon="2.14348">
        <ele>29.95</ele>
        <time>2014-05-04T14:58:16Z</time>
      </trkpt>
      <trkpt lat="48.9295" lon="2.14372">
        <ele>31.07</ele>
        <time>2014-05-04T14:58:21Z</time>
      </trkpt>
      <trkpt lat="48.92965" lon="2.14394">
        <ele>31.48</ele>
        <time>2014-05-04T14:58:26Z</time>
      </trkpt>
      <trkpt lat="48.9298" lon="2.14417">
        <ele>32.11</ele>
        <time>2014-05-04T14:58:32Z</time>
      </trkpt>
      <trkpt lat="48.92993" lon="2.14437">
        <ele>34.2</ele>
        <time>2014-05-04T14:58:37Z</time>
      </trkpt>
      <trkpt lat="48.93007" lon="2.14454">
        <ele>31.82</ele>
        <time>2014-05-04T14:58:44Z</time>
      </trkpt>
      <trkpt lat="48.9302" lon="2.14476">
        <ele>31.93</ele>
        <time>2014-05-04T14:58:51Z</time>
      </trkpt>
      <trkpt lat="48.93033" lon="2.14495">
        <ele>29.5</ele>
        <time>2014-05-04T14:58:56Z</time>
      </trkpt>
      <trkpt lat="48.93046" lon="2.14515">
        <ele>28.21</ele>
        <time>2014-05-04T14:59:01Z</time>
      </trkpt>
      <trkpt lat="48.93061" lon="2.14537">
        <ele>28.32</ele>
        <time>2014-05-04T14:59:06Z</time>
      </trkpt>
      <trkpt lat="48.93076" lon="2.1456">
        <ele>30.64</ele>
        <time>2014-05-04T14:59:11Z</time>
      </trkpt>
      <trkpt lat="48.93091" lon="2.14585">
        <ele>30.28</ele>
        <time>2014-05-04T14:59:16Z</time>
      </trkpt>
      <trkpt lat="48.93103" lon="2.14608">
        <ele>31.92</ele>
        <time>2014-05-04T14:59:20Z</time>
      </trkpt>
      <trkpt lat="48.93115" lon="2.14632">
        <ele>31.65</ele>
        <time>2014-05-04T14:59:24Z</time>
      </trkpt>
      <trkpt lat="48.93127" lon="2.14652">
        <ele>32.88</ele>
        <time>2014-05-04T14:59:28Z</time>
      </trkpt>
      <trkpt lat="48.9314" lon="2.14672">
        <ele>33.65</ele>
        <time>2014-05-04T14:59:32Z</time>
      </trkpt>
      <trkpt lat="48.93154" lon="2.14694">
        <ele>36.07</ele>
        <time>2014-05-04T14:59:36Z</time>
      </trkpt>
      <trkpt lat="48.93166" lon="2.14716">
        <ele>36.91</ele>
        <time>2014-05-04T14:59:40Z</time>
      </trkpt>
      <trkpt lat="48.93181" lon="2.14739">
        <ele>31.38</ele>
        <time>2014-05-04T14:59:46Z</time>
      </trkpt>
      <trkpt lat="48.93195" lon="2.1476">
        <ele>29.99</ele>
        <time>2014-05-04T14:59:50Z</time>
      </trkpt>
      <trkpt lat="48.93207" lon="2.14784">
        <ele>31.9</ele>
        <time>2014-05-04T14:59:54Z</time>
      </trkpt>
      <trkpt lat="48.9322" lon="2.14811">
        <ele>30.53</ele>
        <time>2014-05-04T14:59:59Z</time>
      </trkpt>
      <trkpt lat="48.93231" lon="2.14833">
        <ele>28.08</ele>
        <time>2014-05-04T15:00:04Z</time>
      </trkpt>
      <trkpt lat="48.93242" lon="2.14862">
        <ele>27.88</ele>
        <time>2014-05-04T15:00:09Z</time>
      </trkpt>
      <trkpt lat="48.93254" lon="2.14884">
        <ele>30.4</ele>
        <time>2014-05-04T15:00:13Z</time>
      </trkpt>
      <trkpt lat="48.9327" lon="2.14902">
        <ele>32.24</ele>
        <time>2014-05-04T15:00:17Z</time>
      </trkpt>
      <trkpt lat="48.93283" lon="2.14928">
        <ele>35.2</ele>
        <time>2014-05-04T15:00:22Z</time>
      </trkpt>
      <trkpt lat="48.93295" lon="2.14956">
        <ele>32.07</ele>
        <time>2014-05-04T15:00:27Z</time>
      </trkpt>
      <trkpt lat="48.93305" lon="2.14983">
        <ele>34.32</ele>
        <time>2014-05-04T15:00:32Z</time>
      </trkpt>
      <trkpt lat="48.93319" lon="2.15001">
        <ele>28.3</ele>
        <time>2014-05-04T15:00:36Z</time>
      </trkpt>
      <trkpt lat="48.93327" lon="2.15026">
        <ele>27.67</ele>
        <time>2014-05-04T15:00:40Z</time>
      </trkpt>
      <trkpt lat="48.93344" lon="2.15045">
        <ele>28.51</ele>
        <time>2014-05-04T15:00:44Z</time>
      </trkpt>
      <trkpt lat="48.93358" lon="2.15071">
        <ele>29.75</ele>
        <time>2014-05-04T15:00:48Z</time>
      </trkpt>
      <trkpt lat="48.93371" lon="2.15097">
        <ele>30.28</ele>
        <time>2014-05-04T15:00:53Z</time>
      </trkpt>
      <trkpt lat="48.93381" lon="2.1512">
        <ele>29.42</ele>
        <time>2014-05-04T15:00:57Z</time>
      </trkpt>
      <trkpt lat="48.93394" lon="2.15142">
        <ele>30.24</ele>
        <time>2014-05-04T15:01:01Z</time>
      </trkpt>
      <trkpt lat="48.93404" lon="2.15166">
        <ele>31.17</ele>
        <time>2014-05-04T15:01:05Z</time>
      </trkpt>
      <trkpt lat="48.93414" lon="2.1519">
        <ele>31.79</ele>
        <time>2014-05-04T15:01:09Z</time>
      </trkpt>
      <trkpt lat="48.93425" lon="2.15213">
        <ele>32.2</ele>
        <time>2014-05-04T15:01:13Z</time>
      </trkpt>
      <trkpt lat="48.93439" lon="2.15233">
        <ele>29.7</ele>
        <time>2014-05-04T15:01:18Z</time>
      </trkpt>
      <trkpt lat="48.93455" lon="2.15256">
        <ele>29.81</ele>
        <time>2014-05-04T15:01:23Z</time>
      </trkpt>
      <trkpt lat="48.9347" lon="2.15279">
        <ele>31.22</ele>
        <time>2014-05-04T15:01:28Z</time>
      </trkpt>
      <trkpt lat="48.93487" lon="2.15298">
        <ele>30.04</ele>
        <time>2014-05-04T15:01:33Z</time>
      </trkpt>
      <trkpt lat="48.93504" lon="2.15312">
        <ele>30.47</ele>
        <time>2014-05-04T15:01:37Z</time>
      </trkpt>
      <trkpt lat="48.93516" lon="2.15332">
        <ele>31.37</ele>
        <time>2014-05-04T15:01:41Z</time>
      </trkpt>
      <trkpt lat="48.93523" lon="2.15358">
        <ele>32.18</ele>
        <time>2014-05-04T15:01:45Z</time>
      </trkpt>
      <trkpt lat="48.93543" lon="2.15362">
        <ele>32.78</ele>
        <time>2014-05-04T15:01:48Z</time>
      </trkpt>
      <trkpt lat="48.93559" lon="2.15383">
        <ele>33.9</ele>
        <time>2014-05-04T15:01:53Z</time>
      </trkpt>
      <trkpt lat="48.93553" lon="2.1541">
        <ele>28.37</ele>
        <time>2014-05-04T15:01:56Z</time>
      </trkpt>
      <trkpt lat="48.9357" lon="2.15417">
        <ele>28.43</ele>
        <time>2014-05-04T15:01:59Z</time>
      </trkpt>
      <trkpt lat="48.93582" lon="2.1544">
        <ele>32.74</ele>
        <time>2014-05-04T15:02:03Z</time>
      </trkpt>
      <trkpt lat="48.93599" lon="2.15451">
        <ele>35.39</ele>
        <time>2014-05-04T15:02:07Z</time>
      </trkpt>
      <trkpt lat="48.93616" lon="2.15462">
        <ele>33.11</ele>
        <time>2014-05-04T15:02:11Z</time>
      </trkpt>
      <trkpt lat="48.93632" lon="2.15479">
        <ele>34.97</ele>
        <time>2014-05-04T15:02:15Z</time>
      </trkpt>
      <trkpt lat="48.93654" lon="2.15484">
        <ele>34.09</ele>
        <time>2014-05-04T15:02:19Z</time>
      </trkpt>
      <trkpt lat="48.9366" lon="2.15516">
        <ele>32.85</ele>
        <time>2014-05-04T15:02:23Z</time>
      </trkpt>
      <trkpt lat="48.93678" lon="2.15527">
        <ele>32.77</ele>
        <time>2014-05-04T15:02:27Z</time>
      </trkpt>
      <trkpt lat="48.93691" lon="2.15547">
        <ele>33.08</ele>
        <time>2014-05-04T15:02:31Z</time>
      </trkpt>
      <trkpt lat="48.93712" lon="2.1556">
        <ele>33.28</ele>
        <time>2014-05-04T15:02:35Z</time>
      </trkpt>
      <trkpt lat="48.93731" lon="2.15565">
        <ele>35.67</ele>
        <time>2014-05-04T15:02:38Z</time>
      </trkpt>
      <trkpt lat="48.93745" lon="2.15583">
        <ele>36.01</ele>
        <time>2014-05-04T15:02:42Z</time>
      </trkpt>
      <trkpt lat="48.93749" lon="2.1561">
        <ele>35.34</ele>
        <time>2014-05-04T15:02:46Z</time>
      </trkpt>
      <trkpt lat="48.93752" lon="2.1564">
        <ele>32.92</ele>
        <time>2014-05-04T15:02:51Z</time>
      </trkpt>
      <trkpt lat="48.93768" lon="2.15655">
        <ele>35.65</ele>
        <time>2014-05-04T15:02:58Z</time>
      </trkpt>
      <trkpt lat="48.93785" lon="2.15666">
        <ele>36.6</ele>
        <time>2014-05-04T15:03:10Z</time>
      </trkpt>
      <trkpt lat="48.93803" lon="2.15681">
        <ele>36.81</ele>
        <time>2014-05-04T15:03:15Z</time>
      </trkpt>
      <trkpt lat="48.93821" lon="2.15703">
        <ele>35.06</ele>
        <time>2014-05-04T15:03:20Z</time>
      </trkpt>
      <trkpt lat="48.93835" lon="2.15727">
        <ele>36.89</ele>
        <time>2014-05-04T15:03:23Z</time>
      </trkpt>
      <trkpt lat="48.93845" lon="2.15753">
        <ele>39.58</ele>
        <time>2014-05-04T15:03:27Z</time>
      </trkpt>
      <trkpt lat="48.9386" lon="2.15769">
        <ele>40.25</ele>
        <time>2014-05-04T15:03:31Z</time>
      </trkpt>
      <trkpt lat="48.93877" lon="2.15783">
        <ele>41.98</ele>
        <time>2014-05-04T15:03:35Z</time>
      </trkpt>
      <trkpt lat="48.93897" lon="2.15795">
        <ele>46.09</ele>
        <time>2014-05-04T15:03:39Z</time>
      </trkpt>
      <trkpt lat="48.93904" lon="2.15823">
        <ele>42.79</ele>
        <time>2014-05-04T15:03:44Z</time>
      </trkpt>
      <trkpt lat="48.93919" lon="2.15841">
        <ele>41.56</ele>
        <time>2014-05-04T15:03:49Z</time>
      </trkpt>
      <trkpt lat="48.93937" lon="2.15856">
        <ele>35.9</ele>
        <time>2014-05-04T15:03:54Z</time>
      </trkpt>
      <trkpt lat="48.93945" lon="2.15885">
        <ele>36.27</ele>
        <time>2014-05-04T15:03:58Z</time>
      </trkpt>
      <trkpt lat="48.93964" lon="2.15906">
        <ele>36.86</ele>
        <time>2014-05-04T15:04:03Z</time>
      </trkpt>
      <trkpt lat="48.9398" lon="2.15917">
        <ele>37.14</ele>
        <time>2014-05-04T15:04:07Z</time>
      </trkpt>
      <trkpt lat="48.93995" lon="2.15937">
        <ele>36.66</ele>
        <time>2014-05-04T15:04:11Z</time>
      </trkpt>
      <trkpt lat="48.94008" lon="2.15957">
        <ele>32.96</ele>
        <time>2014-05-04T15:04:16Z</time>
      </trkpt>
      <trkpt lat="48.94022" lon="2.15975">
        <ele>32.16</ele>
        <time>2014-05-04T15:04:21Z</time>
      </trkpt>
      <trkpt lat="48.94037" lon="2.15994">
        <ele>30.48</ele>
        <time>2014-05-04T15:04:25Z</time>
      </trkpt>
      <trkpt lat="48.94048" lon="2.16016">
        <ele>29.74</ele>
        <time>2014-05-04T15:04:29Z</time>
      </trkpt>
      <trkpt lat="48.94061" lon="2.16037">
        <ele>32.01</ele>
        <time>2014-05-04T15:04:33Z</time>
      </trkpt>
      <trkpt lat="48.94076" lon="2.16058">
        <ele>32.29</ele>
        <time>2014-05-04T15:04:38Z</time>
      </trkpt>
      <trkpt lat="48.94092" lon="2.16076">
        <ele>35.3</ele>
        <time>2014-05-04T15:04:42Z</time>
      </trkpt>
      <trkpt lat="48.9411" lon="2.16086">
        <ele>35.67</ele>
        <time>2014-05-04T15:04:46Z</time>
      </trkpt>
      <trkpt lat="48.94121" lon="2.16109">
        <ele>36.63</ele>
        <time>2014-05-04T15:04:50Z</time>
      </trkpt>
      <trkpt lat="48.94134" lon="2.16131">
        <ele>35.21</ele>
        <time>2014-05-04T15:04:55Z</time>
      </trkpt>
      <trkpt lat="48.9414" lon="2.16158">
        <ele>32.01</ele>
        <time>2014-05-04T15:05:00Z</time>
      </trkpt>
      <trkpt lat="48.94157" lon="2.16172">
        <ele>26.53</ele>
        <time>2014-05-04T15:05:04Z</time>
      </trkpt>
      <trkpt lat="48.9417" lon="2.16195">
        <ele>26.77</ele>
        <time>2014-05-04T15:05:09Z</time>
      </trkpt>
      <trkpt lat="48.94185" lon="2.1622">
        <ele>29.4</ele>
        <time>2014-05-04T15:05:14Z</time>
      </trkpt>
      <trkpt lat="48.94198" lon="2.16245">
        <ele>31.77</ele>
        <time>2014-05-04T15:05:19Z</time>
      </trkpt>
      <trkpt lat="48.94213" lon="2.16269">
        <ele>34.9</ele>
        <time>2014-05-04T15:05:25Z</time>
      </trkpt>
      <trkpt lat="48.94231" lon="2.16278">
        <ele>36.51</ele>
        <time>2014-05-04T15:05:35Z</time>
      </trkpt>
      <trkpt lat="48.94249" lon="2.1628">
        <ele>31.16</ele>
        <time>2014-05-04T15:06:31Z</time>
      </trkpt>
      <trkpt lat="48.94266" lon="2.16268">
        <ele>25.61</ele>
        <time>2014-05-04T15:06:50Z</time>
      </trkpt>
      <trkpt lat="48.94279" lon="2.16242">
        <ele>25.99</ele>
        <time>2014-05-04T15:06:56Z</time>
      </trkpt>
      <trkpt lat="48.9429" lon="2.1622">
        <ele>25.79</ele>
        <time>2014-05-04T15:07:01Z</time>
      </trkpt>
      <trkpt lat="48.94302" lon="2.16197">
        <ele>24.5</ele>
        <time>2014-05-04T15:07:06Z</time>
      </trkpt>
      <trkpt lat="48.94316" lon="2.16171">
        <ele>22.21</ele>
        <time>2014-05-04T15:07:12Z</time>
      </trkpt>
      <trkpt lat="48.94328" lon="2.16147">
        <ele>21.98</ele>
        <time>2014-05-04T15:07:17Z</time>
      </trkpt>
      <trkpt lat="48.94339" lon="2.16123">
        <ele>21.5</ele>
        <time>2014-05-04T15:07:22Z</time>
      </trkpt>
      <trkpt lat="48.9435" lon="2.16101">
        <ele>17.43</ele>
        <time>2014-05-04T15:07:27Z</time>
      </trkpt>
      <trkpt lat="48.94363" lon="2.16079">
        <ele>14.94</ele>
        <time>2014-05-04T15:07:33Z</time>
      </trkpt>
      <trkpt lat="48.94377" lon="2.16056">
        <ele>13.69</ele>
        <time>2014-05-04T15:07:38Z</time>
      </trkpt>
      <trkpt lat="48.94391" lon="2.16036">
        <ele>13.87</ele>
        <time>2014-05-04T15:07:43Z</time>
      </trkpt>
      <trkpt lat="48.94403" lon="2.16008">
        <ele>15</ele>
        <time>2014-05-04T15:07:48Z</time>
      </trkpt>
      <trkpt lat="48.94413" lon="2.15984">
        <ele>16.03</ele>
        <time>2014-05-04T15:07:52Z</time>
      </trkpt>
      <trkpt lat="48.94424" lon="2.15958">
        <ele>16.26</ele>
        <time>2014-05-04T15:07:57Z</time>
      </trkpt>
      <trkpt lat="48.94436" lon="2.15936">
        <ele>22.14</ele>
        <time>2014-05-04T15:08:02Z</time>
      </trkpt>
      <trkpt lat="48.94446" lon="2.15912">
        <ele>23.82</ele>
        <time>2014-05-04T15:08:07Z</time>
      </trkpt>
      <trkpt lat="48.94458" lon="2.15887">
        <ele>25.12</ele>
        <time>2014-05-04T15:08:12Z</time>
      </trkpt>
      <trkpt lat="48.9447" lon="2.15863">
        <ele>25.32</ele>
        <time>2014-05-04T15:08:17Z</time>
      </trkpt>
      <trkpt lat="48.94482" lon="2.15841">
        <ele>25.39</ele>
        <time>2014-05-04T15:08:22Z</time>
      </trkpt>
      <trkpt lat="48.94494" lon="2.1582">
        <ele>26.08</ele>
        <time>2014-05-04T15:08:27Z</time>
      </trkpt>
      <trkpt lat="48.94507" lon="2.15799">
        <ele>27.6</ele>
        <time>2014-05-04T15:08:32Z</time>
      </trkpt>
      <trkpt lat="48.94519" lon="2.15777">
        <ele>28.37</ele>
        <time>2014-05-04T15:08:37Z</time>
      </trkpt>
      <trkpt lat="48.94531" lon="2.15754">
        <ele>29.02</ele>
        <time>2014-05-04T15:08:44Z</time>
      </trkpt>
      <trkpt lat="48.94541" lon="2.15729">
        <ele>23.17</ele>
        <time>2014-05-04T15:09:32Z</time>
      </trkpt>
      <trkpt lat="48.94553" lon="2.15707">
        <ele>18.07</ele>
        <time>2014-05-04T15:09:39Z</time>
      </trkpt>
      <trkpt lat="48.94563" lon="2.15682">
        <ele>20.47</ele>
        <time>2014-05-04T15:09:46Z</time>
      </trkpt>
      <trkpt lat="48.9458" lon="2.15672">
        <ele>24.81</ele>
        <time>2014-05-04T15:10:37Z</time>
      </trkpt>
      <trkpt lat="48.94598" lon="2.15677">
        <ele>24.31</ele>
        <time>2014-05-04T15:10:42Z</time>
      </trkpt>
      <trkpt lat="48.94614" lon="2.15661">
        <ele>25.73</ele>
        <time>2014-05-04T15:10:46Z</time>
      </trkpt>
      <trkpt lat="48.94635" lon="2.1566">
        <ele>24.45</ele>
        <time>2014-05-04T15:10:50Z</time>
      </trkpt>
      <trkpt lat="48.94655" lon="2.15662">
        <ele>24.68</ele>
        <time>2014-05-04T15:10:54Z</time>
      </trkpt>
      <trkpt lat="48.94676" lon="2.15662">
        <ele>22.88</ele>
        <time>2014-05-04T15:10:58Z</time>
      </trkpt>
      <trkpt lat="48.94696" lon="2.1566">
        <ele>18.08</ele>
        <time>2014-05-04T15:11:02Z</time>
      </trkpt>
      <trkpt lat="48.94718" lon="2.15659">
        <ele>16.85</ele>
        <time>2014-05-04T15:11:06Z</time>
      </trkpt>
      <trkpt lat="48.94738" lon="2.15653">
        <ele>18.46</ele>
        <time>2014-05-04T15:11:10Z</time>
      </trkpt>
      <trkpt lat="48.94757" lon="2.15643">
        <ele>21.37</ele>
        <time>2014-05-04T15:11:14Z</time>
      </trkpt>
      <trkpt lat="48.94777" lon="2.15626">
        <ele>19.61</ele>
        <time>2014-05-04T15:11:18Z</time>
      </trkpt>
      <trkpt lat="48.94794" lon="2.15609">
        <ele>20.21</ele>
        <time>2014-05-04T15:11:23Z</time>
      </trkpt>
      <trkpt lat="48.94811" lon="2.15599">
        <ele>18.39</ele>
        <time>2014-05-04T15:11:28Z</time>
      </trkpt>
      <trkpt lat="48.94828" lon="2.15585">
        <ele>18.53</ele>
        <time>2014-05-04T15:11:34Z</time>
      </trkpt>
      <trkpt lat="48.94822" lon="2.15559">
        <ele>22.24</ele>
        <time>2014-05-04T15:11:41Z</time>
      </trkpt>
      <trkpt lat="48.94805" lon="2.15541">
        <ele>21.79</ele>
        <time>2014-05-04T15:11:46Z</time>
      </trkpt>
      <trkpt lat="48.94791" lon="2.15522">
        <ele>23.44</ele>
        <time>2014-05-04T15:11:51Z</time>
      </trkpt>
      <trkpt lat="48.94775" lon="2.15504">
        <ele>23.55</ele>
        <time>2014-05-04T15:11:56Z</time>
      </trkpt>
      <trkpt lat="48.9476" lon="2.15488">
        <ele>26.59</ele>
        <time>2014-05-04T15:12:04Z</time>
      </trkpt>
      <trkpt lat="48.94747" lon="2.15467">
        <ele>24.88</ele>
        <time>2014-05-04T15:12:12Z</time>
      </trkpt>
      <trkpt lat="48.94762" lon="2.15445">
        <ele>24.48</ele>
        <time>2014-05-04T15:12:19Z</time>
      </trkpt>
      <trkpt lat="48.94775" lon="2.15419">
        <ele>22.92</ele>
        <time>2014-05-04T15:12:26Z</time>
      </trkpt>
      <trkpt lat="48.94785" lon="2.15396">
        <ele>22.04</ele>
        <time>2014-05-04T15:12:32Z</time>
      </trkpt>
      <trkpt lat="48.94796" lon="2.15371">
        <ele>22.04</ele>
        <time>2014-05-04T15:12:39Z</time>
      </trkpt>
      <trkpt lat="48.94792" lon="2.15341">
        <ele>27.4</ele>
        <time>2014-05-04T15:12:49Z</time>
      </trkpt>
      <trkpt lat="48.94776" lon="2.15319">
        <ele>28.19</ele>
        <time>2014-05-04T15:12:55Z</time>
      </trkpt>
      <trkpt lat="48.94769" lon="2.15291">
        <ele>27.79</ele>
        <time>2014-05-04T15:13:01Z</time>
      </trkpt>
      <trkpt lat="48.94782" lon="2.15268">
        <ele>28.27</ele>
        <time>2014-05-04T15:13:07Z</time>
      </trkpt>
      <trkpt lat="48.94795" lon="2.15243">
        <ele>28.53</ele>
        <time>2014-05-04T15:13:13Z</time>
      </trkpt>
      <trkpt lat="48.94807" lon="2.15222">
        <ele>27.87</ele>
        <time>2014-05-04T15:13:18Z</time>
      </trkpt>
      <trkpt lat="48.94819" lon="2.15201">
        <ele>28.47</ele>
        <time>2014-05-04T15:13:23Z</time>
      </trkpt>
      <trkpt lat="48.94831" lon="2.15178">
        <ele>23.86</ele>
        <time>2014-05-04T15:13:28Z</time>
      </trkpt>
      <trkpt lat="48.94843" lon="2.15156">
        <ele>20.78</ele>
        <time>2014-05-04T15:13:33Z</time>
      </trkpt>
      <trkpt lat="48.94855" lon="2.1513">
        <ele>21.37</ele>
        <time>2014-05-04T15:13:38Z</time>
      </trkpt>
      <trkpt lat="48.94866" lon="2.15106">
        <ele>21.49</ele>
        <time>2014-05-04T15:13:43Z</time>
      </trkpt>
      <trkpt lat="48.9488" lon="2.15083">
        <ele>22.21</ele>
        <time>2014-05-04T15:13:48Z</time>
      </trkpt>
      <trkpt lat="48.94893" lon="2.1506">
        <ele>21.92</ele>
        <time>2014-05-04T15:13:53Z</time>
      </trkpt>
      <trkpt lat="48.94905" lon="2.15037">
        <ele>20.57</ele>
        <time>2014-05-04T15:13:58Z</time>
      </trkpt>
      <trkpt lat="48.94915" lon="2.15014">
        <ele>21.65</ele>
        <time>2014-05-04T15:14:03Z</time>
      </trkpt>
      <trkpt lat="48.9493" lon="2.14992">
        <ele>20.97</ele>
        <time>2014-05-04T15:14:09Z</time>
      </trkpt>
      <trkpt lat="48.94947" lon="2.14978">
        <ele>19.43</ele>
        <time>2014-05-04T15:14:16Z</time>
      </trkpt>
      <trkpt lat="48.94957" lon="2.14955">
        <ele>18.83</ele>
        <time>2014-05-04T15:14:21Z</time>
      </trkpt>
      <trkpt lat="48.94967" lon="2.1493">
        <ele>18.63</ele>
        <time>2014-05-04T15:14:26Z</time>
      </trkpt>
      <trkpt lat="48.94982" lon="2.14909">
        <ele>16.87</ele>
        <time>2014-05-04T15:14:31Z</time>
      </trkpt>
      <trkpt lat="48.94998" lon="2.14888">
        <ele>13.63</ele>
        <time>2014-05-04T15:14:36Z</time>
      </trkpt>
      <trkpt lat="48.95011" lon="2.14865">
        <ele>11.9</ele>
        <time>2014-05-04T15:14:41Z</time>
      </trkpt>
      <trkpt lat="48.95027" lon="2.14846">
        <ele>15.38</ele>
        <time>2014-05-04T15:14:46Z</time>
      </trkpt>
      <trkpt lat="48.95043" lon="2.14826">
        <ele>17.11</ele>
        <time>2014-05-04T15:14:51Z</time>
      </trkpt>
      <trkpt lat="48.95052" lon="2.148">
        <ele>14.01</ele>
        <time>2014-05-04T15:14:57Z</time>
      </trkpt>
      <trkpt lat="48.95061" lon="2.14773">
        <ele>16.19</ele>
        <time>2014-05-04T15:15:02Z</time>
      </trkpt>
      <trkpt lat="48.95071" lon="2.14744">
        <ele>17.14</ele>
        <time>2014-05-04T15:15:07Z</time>
      </trkpt>
      <trkpt lat="48.95084" lon="2.14722">
        <ele>15.01</ele>
        <time>2014-05-04T15:15:12Z</time>
      </trkpt>
      <trkpt lat="48.951" lon="2.14703">
        <ele>5.9</ele>
        <time>2014-05-04T15:15:18Z</time>
      </trkpt>
      <trkpt lat="48.95116" lon="2.1468">
        <ele>4.25</ele>
        <time>2014-05-04T15:15:23Z</time>
      </trkpt>
      <trkpt lat="48.95129" lon="2.14658">
        <ele>1.89</ele>
        <time>2014-05-04T15:15:28Z</time>
      </trkpt>
      <trkpt lat="48.95137" lon="2.14631">
        <ele>5.35</ele>
        <time>2014-05-04T15:15:33Z</time>
      </trkpt>
      <trkpt lat="48.9515" lon="2.14608">
        <ele>9.24</ele>
        <time>2014-05-04T15:15:38Z</time>
      </trkpt>
      <trkpt lat="48.95162" lon="2.14587">
        <ele>11.04</ele>
        <time>2014-05-04T15:15:43Z</time>
      </trkpt>
      <trkpt lat="48.95175" lon="2.14565">
        <ele>9.35</ele>
        <time>2014-05-04T15:15:48Z</time>
      </trkpt>
      <trkpt lat="48.95187" lon="2.14544">
        <ele>6.83</ele>
        <time>2014-05-04T15:15:53Z</time>
      </trkpt>
      <trkpt lat="48.952" lon="2.14522">
        <ele>10.91</ele>
        <time>2014-05-04T15:15:58Z</time>
      </trkpt>
      <trkpt lat="48.95211" lon="2.14497">
        <ele>13.47</ele>
        <time>2014-05-04T15:16:03Z</time>
      </trkpt>
      <trkpt lat="48.95222" lon="2.14469">
        <ele>10.65</ele>
        <time>2014-05-04T15:16:08Z</time>
      </trkpt>
      <trkpt lat="48.95236" lon="2.14444">
        <ele>10.74</ele>
        <time>2014-05-04T15:16:13Z</time>
      </trkpt>
      <trkpt lat="48.95249" lon="2.14418">
        <ele>11.97</ele>
        <time>2014-05-04T15:16:18Z</time>
      </trkpt>
      <trkpt lat="48.9526" lon="2.14393">
        <ele>9.35</ele>
        <time>2014-05-04T15:16:23Z</time>
      </trkpt>
      <trkpt lat="48.95272" lon="2.14368">
        <ele>9.39</ele>
        <time>2014-05-04T15:16:28Z</time>
      </trkpt>
      <trkpt lat="48.95286" lon="2.14344">
        <ele>7.42</ele>
        <time>2014-05-04T15:16:33Z</time>
      </trkpt>
      <trkpt lat="48.953" lon="2.1432">
        <ele>7.17</ele>
        <time>2014-05-04T15:16:38Z</time>
      </trkpt>
      <trkpt lat="48.95312" lon="2.14298">
        <ele>8.85</ele>
        <time>2014-05-04T15:16:43Z</time>
      </trkpt>
      <trkpt lat="48.95325" lon="2.14278">
        <ele>11.53</ele>
        <time>2014-05-04T15:16:48Z</time>
      </trkpt>
      <trkpt lat="48.95336" lon="2.14257">
        <ele>14.31</ele>
        <time>2014-05-04T15:16:52Z</time>
      </trkpt>
      <trkpt lat="48.95347" lon="2.14232">
        <ele>13.3</ele>
        <time>2014-05-04T15:16:57Z</time>
      </trkpt>
      <trkpt lat="48.9536" lon="2.14207">
        <ele>15.67</ele>
        <time>2014-05-04T15:17:02Z</time>
      </trkpt>
      <trkpt lat="48.95374" lon="2.14182">
        <ele>19.59</ele>
        <time>2014-05-04T15:17:07Z</time>
      </trkpt>
      <trkpt lat="48.95389" lon="2.14161">
        <ele>19.4</ele>
        <time>2014-05-04T15:17:12Z</time>
      </trkpt>
      <trkpt lat="48.954" lon="2.14136">
        <ele>24.55</ele>
        <time>2014-05-04T15:17:17Z</time>
      </trkpt>
      <trkpt lat="48.95413" lon="2.14112">
        <ele>27.27</ele>
        <time>2014-05-04T15:17:22Z</time>
      </trkpt>
      <trkpt lat="48.95425" lon="2.14088">
        <ele>29.2</ele>
        <time>2014-05-04T15:17:27Z</time>
      </trkpt>
      <trkpt lat="48.95438" lon="2.14065">
        <ele>29.07</ele>
        <time>2014-05-04T15:17:32Z</time>
      </trkpt>
      <trkpt lat="48.9545" lon="2.14038">
        <ele>32.51</ele>
        <time>2014-05-04T15:17:37Z</time>
      </trkpt>
      <trkpt lat="48.95463" lon="2.14012">
        <ele>34.12</ele>
        <time>2014-05-04T15:17:42Z</time>
      </trkpt>
      <trkpt lat="48.95476" lon="2.13985">
        <ele>34.01</ele>
        <time>2014-05-04T15:17:47Z</time>
      </trkpt>
      <trkpt lat="48.9549" lon="2.13959">
        <ele>35.97</ele>
        <time>2014-05-04T15:17:52Z</time>
      </trkpt>
      <trkpt lat="48.95503" lon="2.13938">
        <ele>35.44</ele>
        <time>2014-05-04T15:17:57Z</time>
      </trkpt>
      <trkpt lat="48.95514" lon="2.13914">
        <ele>35.91</ele>
        <time>2014-05-04T15:18:03Z</time>
      </trkpt>
      <trkpt lat="48.95528" lon="2.1389">
        <ele>35.45</ele>
        <time>2014-05-04T15:18:09Z</time>
      </trkpt>
      <trkpt lat="48.95542" lon="2.13869">
        <ele>32.27</ele>
        <time>2014-05-04T15:18:14Z</time>
      </trkpt>
      <trkpt lat="48.95553" lon="2.13844">
        <ele>33.11</ele>
        <time>2014-05-04T15:18:19Z</time>
      </trkpt>
      <trkpt lat="48.95564" lon="2.13818">
        <ele>33.57</ele>
        <time>2014-05-04T15:18:24Z</time>
      </trkpt>
      <trkpt lat="48.95578" lon="2.13793">
        <ele>32.62</ele>
        <time>2014-05-04T15:18:29Z</time>
      </trkpt>
      <trkpt lat="48.95591" lon="2.13769">
        <ele>30.18</ele>
        <time>2014-05-04T15:18:34Z</time>
      </trkpt>
      <trkpt lat="48.95603" lon="2.13745">
        <ele>33.45</ele>
        <time>2014-05-04T15:18:39Z</time>
      </trkpt>
      <trkpt lat="48.95615" lon="2.1372">
        <ele>34.74</ele>
        <time>2014-05-04T15:18:44Z</time>
      </trkpt>
      <trkpt lat="48.95626" lon="2.13698">
        <ele>33.97</ele>
        <time>2014-05-04T15:18:49Z</time>
      </trkpt>
      <trkpt lat="48.95638" lon="2.13674">
        <ele>33.41</ele>
        <time>2014-05-04T15:18:54Z</time>
      </trkpt>
      <trkpt lat="48.9565" lon="2.13654">
        <ele>32.55</ele>
        <time>2014-05-04T15:19:01Z</time>
      </trkpt>
      <trkpt lat="48.95668" lon="2.13642">
        <ele>29.71</ele>
        <time>2014-05-04T15:19:08Z</time>
      </trkpt>
      <trkpt lat="48.95689" lon="2.13634">
        <ele>29.5</ele>
        <time>2014-05-04T15:19:13Z</time>
      </trkpt>
      <trkpt lat="48.95707" lon="2.13629">
        <ele>28.68</ele>
        <time>2014-05-04T15:19:17Z</time>
      </trkpt>
      <trkpt lat="48.95727" lon="2.13622">
        <ele>29.65</ele>
        <time>2014-05-04T15:19:22Z</time>
      </trkpt>
      <trkpt lat="48.95747" lon="2.1362">
        <ele>32.41</ele>
        <time>2014-05-04T15:19:30Z</time>
      </trkpt>
      <trkpt lat="48.95762" lon="2.13604">
        <ele>33.75</ele>
        <time>2014-05-04T15:19:41Z</time>
      </trkpt>
      <trkpt lat="48.95775" lon="2.1358">
        <ele>30.86</ele>
        <time>2014-05-04T15:19:49Z</time>
      </trkpt>
      <trkpt lat="48.95786" lon="2.13557">
        <ele>28.71</ele>
        <time>2014-05-04T15:19:55Z</time>
      </trkpt>
      <trkpt lat="48.95795" lon="2.13532">
        <ele>29.35</ele>
        <time>2014-05-04T15:20:02Z</time>
      </trkpt>
      <trkpt lat="48.95807" lon="2.13511">
        <ele>28.92</ele>
        <time>2014-05-04T15:20:08Z</time>
      </trkpt>
      <trkpt lat="48.95815" lon="2.13487">
        <ele>30.04</ele>
        <time>2014-05-04T15:20:14Z</time>
      </trkpt>
      <trkpt lat="48.95825" lon="2.13461">
        <ele>30.88</ele>
        <time>2014-05-04T15:20:21Z</time>
      </trkpt>
      <trkpt lat="48.95839" lon="2.13438">
        <ele>31.11</ele>
        <time>2014-05-04T15:20:28Z</time>
      </trkpt>
      <trkpt lat="48.9585" lon="2.13412">
        <ele>33.06</ele>
        <time>2014-05-04T15:20:35Z</time>
      </trkpt>
      <trkpt lat="48.95862" lon="2.13388">
        <ele>34.56</ele>
        <time>2014-05-04T15:20:42Z</time>
      </trkpt>
      <trkpt lat="48.95873" lon="2.13364">
        <ele>35.41</ele>
        <time>2014-05-04T15:20:49Z</time>
      </trkpt>
      <trkpt lat="48.95884" lon="2.13341">
        <ele>33.82</ele>
        <time>2014-05-04T15:20:57Z</time>
      </trkpt>
      <trkpt lat="48.95892" lon="2.13314">
        <ele>29.55</ele>
        <time>2014-05-04T15:22:55Z</time>
      </trkpt>
      <trkpt lat="48.95906" lon="2.1329">
        <ele>29.84</ele>
        <time>2014-05-04T15:23:00Z</time>
      </trkpt>
      <trkpt lat="48.95921" lon="2.13268">
        <ele>26.16</ele>
        <time>2014-05-04T15:23:05Z</time>
      </trkpt>
      <trkpt lat="48.95934" lon="2.13241">
        <ele>21.76</ele>
        <time>2014-05-04T15:23:10Z</time>
      </trkpt>
      <trkpt lat="48.95945" lon="2.13213">
        <ele>19.56</ele>
        <time>2014-05-04T15:23:15Z</time>
      </trkpt>
      <trkpt lat="48.95956" lon="2.13184">
        <ele>19.84</ele>
        <time>2014-05-04T15:23:20Z</time>
      </trkpt>
      <trkpt lat="48.95968" lon="2.13158">
        <ele>23.44</ele>
        <time>2014-05-04T15:23:25Z</time>
      </trkpt>
      <trkpt lat="48.95983" lon="2.13137">
        <ele>23.43</ele>
        <time>2014-05-04T15:23:30Z</time>
      </trkpt>
      <trkpt lat="48.95996" lon="2.13112">
        <ele>22.89</ele>
        <time>2014-05-04T15:23:35Z</time>
      </trkpt>
      <trkpt lat="48.96007" lon="2.13083">
        <ele>19.1</ele>
        <time>2014-05-04T15:23:40Z</time>
      </trkpt>
      <trkpt lat="48.96019" lon="2.13053">
        <ele>18.1</ele>
        <time>2014-05-04T15:23:44Z</time>
      </trkpt>
      <trkpt lat="48.96034" lon="2.13032">
        <ele>19.03</ele>
        <time>2014-05-04T15:23:48Z</time>
      </trkpt>
      <trkpt lat="48.96049" lon="2.13012">
        <ele>20.22</ele>
        <time>2014-05-04T15:23:52Z</time>
      </trkpt>
      <trkpt lat="48.96055" lon="2.12984">
        <ele>19.35</ele>
        <time>2014-05-04T15:23:56Z</time>
      </trkpt>
      <trkpt lat="48.96074" lon="2.12962">
        <ele>17.05</ele>
        <time>2014-05-04T15:24:01Z</time>
      </trkpt>
      <trkpt lat="48.96077" lon="2.12931">
        <ele>17.28</ele>
        <time>2014-05-04T15:24:05Z</time>
      </trkpt>
      <trkpt lat="48.96089" lon="2.1291">
        <ele>18.73</ele>
        <time>2014-05-04T15:24:09Z</time>
      </trkpt>
      <trkpt lat="48.96098" lon="2.12881">
        <ele>18.25</ele>
        <time>2014-05-04T15:24:14Z</time>
      </trkpt>
      <trkpt lat="48.96108" lon="2.12855">
        <ele>21.48</ele>
        <time>2014-05-04T15:24:19Z</time>
      </trkpt>
      <trkpt lat="48.96119" lon="2.1283">
        <ele>26.08</ele>
        <time>2014-05-04T15:24:24Z</time>
      </trkpt>
      <trkpt lat="48.96128" lon="2.12805">
        <ele>23.23</ele>
        <time>2014-05-04T15:24:29Z</time>
      </trkpt>
      <trkpt lat="48.96138" lon="2.1278">
        <ele>19.44</ele>
        <time>2014-05-04T15:24:37Z</time>
      </trkpt>
      <trkpt lat="48.9614" lon="2.1275">
        <ele>31.89</ele>
        <time>2014-05-04T15:26:09Z</time>
      </trkpt>
      <trkpt lat="48.96147" lon="2.12725">
        <ele>30.6</ele>
        <time>2014-05-04T15:26:15Z</time>
      </trkpt>
      <trkpt lat="48.9616" lon="2.127">
        <ele>29.49</ele>
        <time>2014-05-04T15:26:22Z</time>
      </trkpt>
      <trkpt lat="48.96171" lon="2.12678">
        <ele>28.08</ele>
        <time>2014-05-04T15:26:27Z</time>
      </trkpt>
      <trkpt lat="48.96179" lon="2.12651">
        <ele>25.54</ele>
        <time>2014-05-04T15:26:32Z</time>
      </trkpt>
      <trkpt lat="48.9619" lon="2.12625">
        <ele>28.37</ele>
        <time>2014-05-04T15:26:37Z</time>
      </trkpt>
      <trkpt lat="48.96201" lon="2.12603">
        <ele>28.05</ele>
        <time>2014-05-04T15:26:42Z</time>
      </trkpt>
      <trkpt lat="48.96209" lon="2.12577">
        <ele>27.82</ele>
        <time>2014-05-04T15:26:47Z</time>
      </trkpt>
      <trkpt lat="48.96216" lon="2.12547">
        <ele>28.12</ele>
        <time>2014-05-04T15:26:53Z</time>
      </trkpt>
      <trkpt lat="48.96226" lon="2.12518">
        <ele>20.81</ele>
        <time>2014-05-04T15:26:59Z</time>
      </trkpt>
      <trkpt lat="48.96231" lon="2.1249">
        <ele>19.56</ele>
        <time>2014-05-04T15:27:04Z</time>
      </trkpt>
      <trkpt lat="48.96241" lon="2.12467">
        <ele>16.46</ele>
        <time>2014-05-04T15:27:09Z</time>
      </trkpt>
      <trkpt lat="48.96248" lon="2.12439">
        <ele>17.7</ele>
        <time>2014-05-04T15:27:15Z</time>
      </trkpt>
      <trkpt lat="48.96255" lon="2.1241">
        <ele>14.91</ele>
        <time>2014-05-04T15:27:21Z</time>
      </trkpt>
      <trkpt lat="48.96261" lon="2.12383">
        <ele>17.35</ele>
        <time>2014-05-04T15:27:27Z</time>
      </trkpt>
      <trkpt lat="48.9627" lon="2.12355">
        <ele>22.02</ele>
        <time>2014-05-04T15:27:33Z</time>
      </trkpt>
      <trkpt lat="48.96276" lon="2.12327">
        <ele>18.14</ele>
        <time>2014-05-04T15:27:39Z</time>
      </trkpt>
      <trkpt lat="48.96283" lon="2.123">
        <ele>18.13</ele>
        <time>2014-05-04T15:27:46Z</time>
      </trkpt>
      <trkpt lat="48.96288" lon="2.1227">
        <ele>18.65</ele>
        <time>2014-05-04T15:27:52Z</time>
      </trkpt>
      <trkpt lat="48.96295" lon="2.12242">
        <ele>15.57</ele>
        <time>2014-05-04T15:27:58Z</time>
      </trkpt>
      <trkpt lat="48.96305" lon="2.12217">
        <ele>15.82</ele>
        <time>2014-05-04T15:28:04Z</time>
      </trkpt>
      <trkpt lat="48.96312" lon="2.1219">
        <ele>13.19</ele>
        <time>2014-05-04T15:28:09Z</time>
      </trkpt>
      <trkpt lat="48.96321" lon="2.12164">
        <ele>8.89</ele>
        <time>2014-05-04T15:28:14Z</time>
      </trkpt>
      <trkpt lat="48.9633" lon="2.12135">
        <ele>8.06</ele>
        <time>2014-05-04T15:28:20Z</time>
      </trkpt>
      <trkpt lat="48.96338" lon="2.1211">
        <ele>7.91</ele>
        <time>2014-05-04T15:28:25Z</time>
      </trkpt>
      <trkpt lat="48.96345" lon="2.12081">
        <ele>13.4</ele>
        <time>2014-05-04T15:28:31Z</time>
      </trkpt>
      <trkpt lat="48.96343" lon="2.12052">
        <ele>14.33</ele>
        <time>2014-05-04T15:28:36Z</time>
      </trkpt>
      <trkpt lat="48.96339" lon="2.12024">
        <ele>13.17</ele>
        <time>2014-05-04T15:28:41Z</time>
      </trkpt>
      <trkpt lat="48.96335" lon="2.11993">
        <ele>14.83</ele>
        <time>2014-05-04T15:28:48Z</time>
      </trkpt>
      <trkpt lat="48.96333" lon="2.11964">
        <ele>16.41</ele>
        <time>2014-05-04T15:28:55Z</time>
      </trkpt>
      <trkpt lat="48.96326" lon="2.11933">
        <ele>18.42</ele>
        <time>2014-05-04T15:29:02Z</time>
      </trkpt>
      <trkpt lat="48.96316" lon="2.11903">
        <ele>19.49</ele>
        <time>2014-05-04T15:29:06Z</time>
      </trkpt>
      <trkpt lat="48.96308" lon="2.11871">
        <ele>15.06</ele>
        <time>2014-05-04T15:29:10Z</time>
      </trkpt>
      <trkpt lat="48.96302" lon="2.11841">
        <ele>16.03</ele>
        <time>2014-05-04T15:29:14Z</time>
      </trkpt>
      <trkpt lat="48.96297" lon="2.1181">
        <ele>18.34</ele>
        <time>2014-05-04T15:29:18Z</time>
      </trkpt>
      <trkpt lat="48.96288" lon="2.11784">
        <ele>21.31</ele>
        <time>2014-05-04T15:29:20Z</time>
      </trkpt>
      <trkpt lat="48.96294" lon="2.11757">
        <ele>19.98</ele>
        <time>2014-05-04T15:29:24Z</time>
      </trkpt>
      <trkpt lat="48.96301" lon="2.11727">
        <ele>15.94</ele>
        <time>2014-05-04T15:29:29Z</time>
      </trkpt>
      <trkpt lat="48.96304" lon="2.11695">
        <ele>18.28</ele>
        <time>2014-05-04T15:29:34Z</time>
      </trkpt>
      <trkpt lat="48.96309" lon="2.11665">
        <ele>21.01</ele>
        <time>2014-05-04T15:29:39Z</time>
      </trkpt>
      <trkpt lat="48.9631" lon="2.11635">
        <ele>23.31</ele>
        <time>2014-05-04T15:29:46Z</time>
      </trkpt>
      <trkpt lat="48.96311" lon="2.11608">
        <ele>20.3</ele>
        <time>2014-05-04T15:29:51Z</time>
      </trkpt>
      <trkpt lat="48.96313" lon="2.11577">
        <ele>20.48</ele>
        <time>2014-05-04T15:29:55Z</time>
      </trkpt>
      <trkpt lat="48.96317" lon="2.11549">
        <ele>20.31</ele>
        <time>2014-05-04T15:29:59Z</time>
      </trkpt>
      <trkpt lat="48.9632" lon="2.11516">
        <ele>14.2</ele>
        <time>2014-05-04T15:30:04Z</time>
      </trkpt>
      <trkpt lat="48.96321" lon="2.11483">
        <ele>14.57</ele>
        <time>2014-05-04T15:30:09Z</time>
      </trkpt>
      <trkpt lat="48.9632" lon="2.11456">
        <ele>21.67</ele>
        <time>2014-05-04T15:30:22Z</time>
      </trkpt>
      <trkpt lat="48.96312" lon="2.11429">
        <ele>17.6</ele>
        <time>2014-05-04T15:30:28Z</time>
      </trkpt>
      <trkpt lat="48.96301" lon="2.11402">
        <ele>19.56</ele>
        <time>2014-05-04T15:30:32Z</time>
      </trkpt>
      <trkpt lat="48.96291" lon="2.11376">
        <ele>21.63</ele>
        <time>2014-05-04T15:30:36Z</time>
      </trkpt>
      <trkpt lat="48.96281" lon="2.11346">
        <ele>21.56</ele>
        <time>2014-05-04T15:30:41Z</time>
      </trkpt>
      <trkpt lat="48.96273" lon="2.11317">
        <ele>21.44</ele>
        <time>2014-05-04T15:30:45Z</time>
      </trkpt>
      <trkpt lat="48.96262" lon="2.11291">
        <ele>20.3</ele>
        <time>2014-05-04T15:30:49Z</time>
      </trkpt>
      <trkpt lat="48.96251" lon="2.11257">
        <ele>19.42</ele>
        <time>2014-05-04T15:30:53Z</time>
      </trkpt>
      <trkpt lat="48.9624" lon="2.11231">
        <ele>22.94</ele>
        <time>2014-05-04T15:30:56Z</time>
      </trkpt>
      <trkpt lat="48.96228" lon="2.11207">
        <ele>24.5</ele>
        <time>2014-05-04T15:30:59Z</time>
      </trkpt>
      <trkpt lat="48.9622" lon="2.11178">
        <ele>23.68</ele>
        <time>2014-05-04T15:31:03Z</time>
      </trkpt>
      <trkpt lat="48.96212" lon="2.11151">
        <ele>23.13</ele>
        <time>2014-05-04T15:31:07Z</time>
      </trkpt>
      <trkpt lat="48.96203" lon="2.11126">
        <ele>22.16</ele>
        <time>2014-05-04T15:31:11Z</time>
      </trkpt>
      <trkpt lat="48.96195" lon="2.11097">
        <ele>18.23</ele>
        <time>2014-05-04T15:31:15Z</time>
      </trkpt>
      <trkpt lat="48.96186" lon="2.11065">
        <ele>15.5</ele>
        <time>2014-05-04T15:31:21Z</time>
      </trkpt>
      <trkpt lat="48.96174" lon="2.11043">
        <ele>17.07</ele>
        <time>2014-05-04T15:31:24Z</time>
      </trkpt>
      <trkpt lat="48.96167" lon="2.1101">
        <ele>18.16</ele>
        <time>2014-05-04T15:31:28Z</time>
      </trkpt>
      <trkpt lat="48.96156" lon="2.10986">
        <ele>21.66</ele>
        <time>2014-05-04T15:31:32Z</time>
      </trkpt>
      <trkpt lat="48.96148" lon="2.10961">
        <ele>26.38</ele>
        <time>2014-05-04T15:31:36Z</time>
      </trkpt>
      <trkpt lat="48.96138" lon="2.10931">
        <ele>28.86</ele>
        <time>2014-05-04T15:31:40Z</time>
      </trkpt>
      <trkpt lat="48.96127" lon="2.10908">
        <ele>32.24</ele>
        <time>2014-05-04T15:31:43Z</time>
      </trkpt>
      <trkpt lat="48.96121" lon="2.10879">
        <ele>32.73</ele>
        <time>2014-05-04T15:31:47Z</time>
      </trkpt>
      <trkpt lat="48.96125" lon="2.10852">
        <ele>25.6</ele>
        <time>2014-05-04T15:31:50Z</time>
      </trkpt>
      <trkpt lat="48.96131" lon="2.10818">
        <ele>19.07</ele>
        <time>2014-05-04T15:31:54Z</time>
      </trkpt>
      <trkpt lat="48.96136" lon="2.10789">
        <ele>20.41</ele>
        <time>2014-05-04T15:31:58Z</time>
      </trkpt>
      <trkpt lat="48.96142" lon="2.10763">
        <ele>20.56</ele>
        <time>2014-05-04T15:32:01Z</time>
      </trkpt>
      <trkpt lat="48.96151" lon="2.10735">
        <ele>20.56</ele>
        <time>2014-05-04T15:32:05Z</time>
      </trkpt>
      <trkpt lat="48.9616" lon="2.10703">
        <ele>21.88</ele>
        <time>2014-05-04T15:32:09Z</time>
      </trkpt>
      <trkpt lat="48.96167" lon="2.10672">
        <ele>21.69</ele>
        <time>2014-05-04T15:32:14Z</time>
      </trkpt>
      <trkpt lat="48.96172" lon="2.10642">
        <ele>23.63</ele>
        <time>2014-05-04T15:32:18Z</time>
      </trkpt>
      <trkpt lat="48.9618" lon="2.10616">
        <ele>27.5</ele>
        <time>2014-05-04T15:32:22Z</time>
      </trkpt>
      <trkpt lat="48.96188" lon="2.10589">
        <ele>26.43</ele>
        <time>2014-05-04T15:32:26Z</time>
      </trkpt>
      <trkpt lat="48.96188" lon="2.10555">
        <ele>27.43</ele>
        <time>2014-05-04T15:32:30Z</time>
      </trkpt>
      <trkpt lat="48.96184" lon="2.10524">
        <ele>28.3</ele>
        <time>2014-05-04T15:32:34Z</time>
      </trkpt>
      <trkpt lat="48.96183" lon="2.10496">
        <ele>30.39</ele>
        <time>2014-05-04T15:32:39Z</time>
      </trkpt>
      <trkpt lat="48.96186" lon="2.10459">
        <ele>31.49</ele>
        <time>2014-05-04T15:32:44Z</time>
      </trkpt>
      <trkpt lat="48.96182" lon="2.10427">
        <ele>30.87</ele>
        <time>2014-05-04T15:32:48Z</time>
      </trkpt>
      <trkpt lat="48.96182" lon="2.104">
        <ele>30.02</ele>
        <time>2014-05-04T15:32:52Z</time>
      </trkpt>
      <trkpt lat="48.9618" lon="2.10366">
        <ele>28.34</ele>
        <time>2014-05-04T15:32:56Z</time>
      </trkpt>
      <trkpt lat="48.9618" lon="2.10338">
        <ele>27.49</ele>
        <time>2014-05-04T15:33:00Z</time>
      </trkpt>
      <trkpt lat="48.9617" lon="2.10306">
        <ele>28.68</ele>
        <time>2014-05-04T15:33:04Z</time>
      </trkpt>
      <trkpt lat="48.9616" lon="2.10278">
        <ele>33.37</ele>
        <time>2014-05-04T15:33:09Z</time>
      </trkpt>
      <trkpt lat="48.96163" lon="2.10247">
        <ele>34.68</ele>
        <time>2014-05-04T15:33:12Z</time>
      </trkpt>
      <trkpt lat="48.96155" lon="2.10215">
        <ele>34.9</ele>
        <time>2014-05-04T15:33:17Z</time>
      </trkpt>
      <trkpt lat="48.96142" lon="2.10192">
        <ele>34.66</ele>
        <time>2014-05-04T15:33:22Z</time>
      </trkpt>
      <trkpt lat="48.96128" lon="2.10163">
        <ele>35.74</ele>
        <time>2014-05-04T15:33:27Z</time>
      </trkpt>
      <trkpt lat="48.96114" lon="2.10139">
        <ele>35.07</ele>
        <time>2014-05-04T15:33:31Z</time>
      </trkpt>
      <trkpt lat="48.96098" lon="2.10124">
        <ele>35.02</ele>
        <time>2014-05-04T15:33:34Z</time>
      </trkpt>
      <trkpt lat="48.96082" lon="2.10103">
        <ele>36.28</ele>
        <time>2014-05-04T15:33:38Z</time>
      </trkpt>
      <trkpt lat="48.96068" lon="2.10077">
        <ele>33.01</ele>
        <time>2014-05-04T15:33:43Z</time>
      </trkpt>
      <trkpt lat="48.96054" lon="2.10055">
        <ele>31.28</ele>
        <time>2014-05-04T15:33:47Z</time>
      </trkpt>
      <trkpt lat="48.96039" lon="2.10031">
        <ele>31.23</ele>
        <time>2014-05-04T15:33:51Z</time>
      </trkpt>
      <trkpt lat="48.96025" lon="2.10006">
        <ele>32.17</ele>
        <time>2014-05-04T15:33:55Z</time>
      </trkpt>
      <trkpt lat="48.96012" lon="2.09979">
        <ele>30.1</ele>
        <time>2014-05-04T15:34:00Z</time>
      </trkpt>
      <trkpt lat="48.96003" lon="2.0995">
        <ele>28.03</ele>
        <time>2014-05-04T15:34:04Z</time>
      </trkpt>
      <trkpt lat="48.95995" lon="2.09926">
        <ele>27.26</ele>
        <time>2014-05-04T15:34:07Z</time>
      </trkpt>
      <trkpt lat="48.95984" lon="2.09894">
        <ele>30.17</ele>
        <time>2014-05-04T15:34:11Z</time>
      </trkpt>
      <trkpt lat="48.95975" lon="2.09866">
        <ele>33.2</ele>
        <time>2014-05-04T15:34:16Z</time>
      </trkpt>
      <trkpt lat="48.95966" lon="2.09837">
        <ele>30.23</ele>
        <time>2014-05-04T15:34:20Z</time>
      </trkpt>
      <trkpt lat="48.95955" lon="2.09807">
        <ele>28.42</ele>
        <time>2014-05-04T15:34:24Z</time>
      </trkpt>
      <trkpt lat="48.95945" lon="2.0978">
        <ele>27.8</ele>
        <time>2014-05-04T15:34:28Z</time>
      </trkpt>
      <trkpt lat="48.95936" lon="2.09753">
        <ele>29.52</ele>
        <time>2014-05-04T15:34:32Z</time>
      </trkpt>
      <trkpt lat="48.95927" lon="2.09725">
        <ele>31</ele>
        <time>2014-05-04T15:34:36Z</time>
      </trkpt>
      <trkpt lat="48.95919" lon="2.09698">
        <ele>30.78</ele>
        <time>2014-05-04T15:34:40Z</time>
      </trkpt>
      <trkpt lat="48.95907" lon="2.09676">
        <ele>31.11</ele>
        <time>2014-05-04T15:34:43Z</time>
      </trkpt>
      <trkpt lat="48.95898" lon="2.09651">
        <ele>30.29</ele>
        <time>2014-05-04T15:34:48Z</time>
      </trkpt>
      <trkpt lat="48.95892" lon="2.0962">
        <ele>30.14</ele>
        <time>2014-05-04T15:34:53Z</time>
      </trkpt>
      <trkpt lat="48.95883" lon="2.0959">
        <ele>31.76</ele>
        <time>2014-05-04T15:34:58Z</time>
      </trkpt>
      <trkpt lat="48.95873" lon="2.09562">
        <ele>30.57</ele>
        <time>2014-05-04T15:35:02Z</time>
      </trkpt>
      <trkpt lat="48.95866" lon="2.09528">
        <ele>30</ele>
        <time>2014-05-04T15:35:08Z</time>
      </trkpt>
      <trkpt lat="48.95857" lon="2.09494">
        <ele>25.38</ele>
        <time>2014-05-04T15:35:13Z</time>
      </trkpt>
      <trkpt lat="48.95848" lon="2.09467">
        <ele>27.43</ele>
        <time>2014-05-04T15:35:16Z</time>
      </trkpt>
      <trkpt lat="48.95838" lon="2.09445">
        <ele>28.49</ele>
        <time>2014-05-04T15:35:20Z</time>
      </trkpt>
      <trkpt lat="48.9583" lon="2.09419">
        <ele>27.77</ele>
        <time>2014-05-04T15:35:25Z</time>
      </trkpt>
      <trkpt lat="48.9582" lon="2.09394">
        <ele>29.18</ele>
        <time>2014-05-04T15:35:32Z</time>
      </trkpt>
      <trkpt lat="48.95812" lon="2.09368">
        <ele>28.96</ele>
        <time>2014-05-04T15:35:40Z</time>
      </trkpt>
      <trkpt lat="48.95806" lon="2.09342">
        <ele>23.17</ele>
        <time>2014-05-04T15:35:46Z</time>
      </trkpt>
      <trkpt lat="48.95798" lon="2.09317">
        <ele>17.58</ele>
        <time>2014-05-04T15:35:52Z</time>
      </trkpt>
      <trkpt lat="48.95789" lon="2.09292">
        <ele>24.34</ele>
        <time>2014-05-04T15:35:59Z</time>
      </trkpt>
      <trkpt lat="48.95781" lon="2.09265">
        <ele>23.71</ele>
        <time>2014-05-04T15:36:07Z</time>
      </trkpt>
      <trkpt lat="48.95782" lon="2.09235">
        <ele>26.76</ele>
        <time>2014-05-04T15:37:29Z</time>
      </trkpt>
      <trkpt lat="48.95775" lon="2.09264">
        <ele>32.09</ele>
        <time>2014-05-04T15:37:54Z</time>
      </trkpt>
      <trkpt lat="48.95768" lon="2.09293">
        <ele>34.6</ele>
        <time>2014-05-04T15:37:59Z</time>
      </trkpt>
      <trkpt lat="48.95767" lon="2.09324">
        <ele>34.68</ele>
        <time>2014-05-04T15:38:04Z</time>
      </trkpt>
      <trkpt lat="48.95766" lon="2.09352">
        <ele>31.62</ele>
        <time>2014-05-04T15:38:09Z</time>
      </trkpt>
      <trkpt lat="48.95763" lon="2.0938">
        <ele>32.84</ele>
        <time>2014-05-04T15:38:14Z</time>
      </trkpt>
      <trkpt lat="48.95746" lon="2.09396">
        <ele>32.77</ele>
        <time>2014-05-04T15:38:21Z</time>
      </trkpt>
      <trkpt lat="48.95731" lon="2.09378">
        <ele>33.27</ele>
        <time>2014-05-04T15:38:27Z</time>
      </trkpt>
      <trkpt lat="48.95717" lon="2.09358">
        <ele>32.8</ele>
        <time>2014-05-04T15:38:32Z</time>
      </trkpt>
      <trkpt lat="48.95703" lon="2.09336">
        <ele>33.97</ele>
        <time>2014-05-04T15:38:37Z</time>
      </trkpt>
      <trkpt lat="48.9569" lon="2.09313">
        <ele>37.42</ele>
        <time>2014-05-04T15:38:43Z</time>
      </trkpt>
      <trkpt lat="48.95679" lon="2.0929">
        <ele>38.49</ele>
        <time>2014-05-04T15:38:48Z</time>
      </trkpt>
      <trkpt lat="48.95668" lon="2.09264">
        <ele>39.33</ele>
        <time>2014-05-04T15:38:53Z</time>
      </trkpt>
      <trkpt lat="48.95662" lon="2.09232">
        <ele>32.86</ele>
        <time>2014-05-04T15:38:58Z</time>
      </trkpt>
      <trkpt lat="48.9566" lon="2.09203">
        <ele>30.89</ele>
        <time>2014-05-04T15:39:02Z</time>
      </trkpt>
      <trkpt lat="48.95662" lon="2.09172">
        <ele>31.19</ele>
        <time>2014-05-04T15:39:07Z</time>
      </trkpt>
      <trkpt lat="48.95664" lon="2.09143">
        <ele>30.23</ele>
        <time>2014-05-04T15:39:12Z</time>
      </trkpt>
      <trkpt lat="48.95662" lon="2.09113">
        <ele>27.95</ele>
        <time>2014-05-04T15:39:17Z</time>
      </trkpt>
      <trkpt lat="48.95658" lon="2.09082">
        <ele>27.04</ele>
        <time>2014-05-04T15:39:23Z</time>
      </trkpt>
      <trkpt lat="48.95654" lon="2.09052">
        <ele>28.2</ele>
        <time>2014-05-04T15:39:29Z</time>
      </trkpt>
      <trkpt lat="48.95656" lon="2.09022">
        <ele>26.36</ele>
        <time>2014-05-04T15:39:35Z</time>
      </trkpt>
      <trkpt lat="48.95669" lon="2.09">
        <ele>27.77</ele>
        <time>2014-05-04T15:39:42Z</time>
      </trkpt>
      <trkpt lat="48.95689" lon="2.08986">
        <ele>28.33</ele>
        <time>2014-05-04T15:39:48Z</time>
      </trkpt>
      <trkpt lat="48.95707" lon="2.08978">
        <ele>28.77</ele>
        <time>2014-05-04T15:39:53Z</time>
      </trkpt>
      <trkpt lat="48.95725" lon="2.08974">
        <ele>29.12</ele>
        <time>2014-05-04T15:39:58Z</time>
      </trkpt>
      <trkpt lat="48.95746" lon="2.0897">
        <ele>27.06</ele>
        <time>2014-05-04T15:40:04Z</time>
      </trkpt>
      <trkpt lat="48.95765" lon="2.08961">
        <ele>21.54</ele>
        <time>2014-05-04T15:40:09Z</time>
      </trkpt>
      <trkpt lat="48.95784" lon="2.08949">
        <ele>21.05</ele>
        <time>2014-05-04T15:40:14Z</time>
      </trkpt>
      <trkpt lat="48.95803" lon="2.08947">
        <ele>25.83</ele>
        <time>2014-05-04T15:40:21Z</time>
      </trkpt>
      <trkpt lat="48.95819" lon="2.08932">
        <ele>37.36</ele>
        <time>2014-05-04T15:41:13Z</time>
      </trkpt>
      <trkpt lat="48.95823" lon="2.08905">
        <ele>32.52</ele>
        <time>2014-05-04T15:41:18Z</time>
      </trkpt>
      <trkpt lat="48.95826" lon="2.08872">
        <ele>31.12</ele>
        <time>2014-05-04T15:41:23Z</time>
      </trkpt>
      <trkpt lat="48.9583" lon="2.0884">
        <ele>29.26</ele>
        <time>2014-05-04T15:41:28Z</time>
      </trkpt>
      <trkpt lat="48.95837" lon="2.08813">
        <ele>27.79</ele>
        <time>2014-05-04T15:41:32Z</time>
      </trkpt>
      <trkpt lat="48.95842" lon="2.08784">
        <ele>28.64</ele>
        <time>2014-05-04T15:41:36Z</time>
      </trkpt>
      <trkpt lat="48.95846" lon="2.08756">
        <ele>25.38</ele>
        <time>2014-05-04T15:41:40Z</time>
      </trkpt>
      <trkpt lat="48.95847" lon="2.08728">
        <ele>26.18</ele>
        <time>2014-05-04T15:41:44Z</time>
      </trkpt>
      <trkpt lat="48.95845" lon="2.087">
        <ele>28.85</ele>
        <time>2014-05-04T15:41:48Z</time>
      </trkpt>
      <trkpt lat="48.95851" lon="2.0867">
        <ele>24.89</ele>
        <time>2014-05-04T15:41:52Z</time>
      </trkpt>
      <trkpt lat="48.95846" lon="2.08638">
        <ele>20.71</ele>
        <time>2014-05-04T15:41:56Z</time>
      </trkpt>
      <trkpt lat="48.9585" lon="2.08604">
        <ele>20.01</ele>
        <time>2014-05-04T15:42:00Z</time>
      </trkpt>
      <trkpt lat="48.95856" lon="2.08571">
        <ele>18.65</ele>
        <time>2014-05-04T15:42:04Z</time>
      </trkpt>
      <trkpt lat="48.95861" lon="2.0854">
        <ele>18.01</ele>
        <time>2014-05-04T15:42:08Z</time>
      </trkpt>
      <trkpt lat="48.95863" lon="2.0851">
        <ele>20.59</ele>
        <time>2014-05-04T15:42:12Z</time>
      </trkpt>
      <trkpt lat="48.95871" lon="2.08483">
        <ele>23.31</ele>
        <time>2014-05-04T15:42:16Z</time>
      </trkpt>
      <trkpt lat="48.95874" lon="2.08449">
        <ele>24.3</ele>
        <time>2014-05-04T15:42:20Z</time>
      </trkpt>
      <trkpt lat="48.95872" lon="2.08417">
        <ele>26.48</ele>
        <time>2014-05-04T15:42:24Z</time>
      </trkpt>
      <trkpt lat="48.95884" lon="2.08386">
        <ele>26.56</ele>
        <time>2014-05-04T15:42:28Z</time>
      </trkpt>
      <trkpt lat="48.95893" lon="2.08361">
        <ele>24.7</ele>
        <time>2014-05-04T15:42:31Z</time>
      </trkpt>
      <trkpt lat="48.95894" lon="2.08326">
        <ele>25.01</ele>
        <time>2014-05-04T15:42:35Z</time>
      </trkpt>
      <trkpt lat="48.95895" lon="2.08292">
        <ele>21.64</ele>
        <time>2014-05-04T15:42:38Z</time>
      </trkpt>
      <trkpt lat="48.95897" lon="2.08263">
        <ele>18.71</ele>
        <time>2014-05-04T15:42:41Z</time>
      </trkpt>
      <trkpt lat="48.959" lon="2.0823">
        <ele>17.47</ele>
        <time>2014-05-04T15:42:44Z</time>
      </trkpt>
      <trkpt lat="48.9589" lon="2.08195">
        <ele>18.82</ele>
        <time>2014-05-04T15:42:47Z</time>
      </trkpt>
      <trkpt lat="48.95901" lon="2.08164">
        <ele>19.86</ele>
        <time>2014-05-04T15:42:50Z</time>
      </trkpt>
      <trkpt lat="48.95909" lon="2.08135">
        <ele>20.24</ele>
        <time>2014-05-04T15:42:53Z</time>
      </trkpt>
      <trkpt lat="48.95912" lon="2.08105">
        <ele>23.42</ele>
        <time>2014-05-04T15:42:57Z</time>
      </trkpt>
      <trkpt lat="48.9591" lon="2.08076">
        <ele>24.74</ele>
        <time>2014-05-04T15:43:01Z</time>
      </trkpt>
      <trkpt lat="48.95916" lon="2.08048">
        <ele>24.26</ele>
        <time>2014-05-04T15:43:05Z</time>
      </trkpt>
      <trkpt lat="48.95922" lon="2.08018">
        <ele>25.95</ele>
        <time>2014-05-04T15:43:11Z</time>
      </trkpt>
      <trkpt lat="48.95927" lon="2.0799">
        <ele>22.59</ele>
        <time>2014-05-04T15:43:15Z</time>
      </trkpt>
      <trkpt lat="48.95928" lon="2.07958">
        <ele>26.18</ele>
        <time>2014-05-04T15:43:20Z</time>
      </trkpt>
      <trkpt lat="48.95937" lon="2.07929">
        <ele>21.79</ele>
        <time>2014-05-04T15:43:24Z</time>
      </trkpt>
      <trkpt lat="48.95936" lon="2.079">
        <ele>20.45</ele>
        <time>2014-05-04T15:43:28Z</time>
      </trkpt>
      <trkpt lat="48.95939" lon="2.07869">
        <ele>20.68</ele>
        <time>2014-05-04T15:43:32Z</time>
      </trkpt>
      <trkpt lat="48.95945" lon="2.07838">
        <ele>22.96</ele>
        <time>2014-05-04T15:43:37Z</time>
      </trkpt>
      <trkpt lat="48.95948" lon="2.07806">
        <ele>22.96</ele>
        <time>2014-05-04T15:43:41Z</time>
      </trkpt>
      <trkpt lat="48.95947" lon="2.07778">
        <ele>24.78</ele>
        <time>2014-05-04T15:43:45Z</time>
      </trkpt>
      <trkpt lat="48.95951" lon="2.07747">
        <ele>25.51</ele>
        <time>2014-05-04T15:43:49Z</time>
      </trkpt>
      <trkpt lat="48.95952" lon="2.07716">
        <ele>28.06</ele>
        <time>2014-05-04T15:43:53Z</time>
      </trkpt>
      <trkpt lat="48.95963" lon="2.07686">
        <ele>27.03</ele>
        <time>2014-05-04T15:43:57Z</time>
      </trkpt>
      <trkpt lat="48.95965" lon="2.07658">
        <ele>26.26</ele>
        <time>2014-05-04T15:44:00Z</time>
      </trkpt>
      <trkpt lat="48.95975" lon="2.07631">
        <ele>26.61</ele>
        <time>2014-05-04T15:44:04Z</time>
      </trkpt>
      <trkpt lat="48.95987" lon="2.07608">
        <ele>26.25</ele>
        <time>2014-05-04T15:44:08Z</time>
      </trkpt>
      <trkpt lat="48.96" lon="2.07585">
        <ele>24.61</ele>
        <time>2014-05-04T15:44:12Z</time>
      </trkpt>
      <trkpt lat="48.9601" lon="2.0756">
        <ele>23</ele>
        <time>2014-05-04T15:44:16Z</time>
      </trkpt>
      <trkpt lat="48.96025" lon="2.07544">
        <ele>21.84</ele>
        <time>2014-05-04T15:44:20Z</time>
      </trkpt>
      <trkpt lat="48.96038" lon="2.07523">
        <ele>23.71</ele>
        <time>2014-05-04T15:44:24Z</time>
      </trkpt>
      <trkpt lat="48.9605" lon="2.07496">
        <ele>22.65</ele>
        <time>2014-05-04T15:44:29Z</time>
      </trkpt>
      <trkpt lat="48.96064" lon="2.07472">
        <ele>22.09</ele>
        <time>2014-05-04T15:44:34Z</time>
      </trkpt>
      <trkpt lat="48.96075" lon="2.07445">
        <ele>20.04</ele>
        <time>2014-05-04T15:44:39Z</time>
      </trkpt>
      <trkpt lat="48.96089" lon="2.07421">
        <ele>22.01</ele>
        <time>2014-05-04T15:44:44Z</time>
      </trkpt>
      <trkpt lat="48.96094" lon="2.07394">
        <ele>24.44</ele>
        <time>2014-05-04T15:44:49Z</time>
      </trkpt>
      <trkpt lat="48.96096" lon="2.07366">
        <ele>22.19</ele>
        <time>2014-05-04T15:44:55Z</time>
      </trkpt>
      <trkpt lat="48.96113" lon="2.07377">
        <ele>21.8</ele>
        <time>2014-05-04T15:45:11Z</time>
      </trkpt>
      <trkpt lat="48.96128" lon="2.07359">
        <ele>25.09</ele>
        <time>2014-05-04T15:45:16Z</time>
      </trkpt>
      <trkpt lat="48.96144" lon="2.0734">
        <ele>26.26</ele>
        <time>2014-05-04T15:45:22Z</time>
      </trkpt>
      <trkpt lat="48.96164" lon="2.07343">
        <ele>24.87</ele>
        <time>2014-05-04T15:45:28Z</time>
      </trkpt>
      <trkpt lat="48.96184" lon="2.07343">
        <ele>24.5</ele>
        <time>2014-05-04T15:45:33Z</time>
      </trkpt>
      <trkpt lat="48.96205" lon="2.07342">
        <ele>23.43</ele>
        <time>2014-05-04T15:45:38Z</time>
      </trkpt>
      <trkpt lat="48.96224" lon="2.07339">
        <ele>22.62</ele>
        <time>2014-05-04T15:45:42Z</time>
      </trkpt>
      <trkpt lat="48.96242" lon="2.07339">
        <ele>23.63</ele>
        <time>2014-05-04T15:45:46Z</time>
      </trkpt>
      <trkpt lat="48.9626" lon="2.07336">
        <ele>21.88</ele>
        <time>2014-05-04T15:45:50Z</time>
      </trkpt>
      <trkpt lat="48.96279" lon="2.07338">
        <ele>21.52</ele>
        <time>2014-05-04T15:45:54Z</time>
      </trkpt>
      <trkpt lat="48.963" lon="2.07339">
        <ele>24.15</ele>
        <time>2014-05-04T15:45:59Z</time>
      </trkpt>
      <trkpt lat="48.96318" lon="2.07337">
        <ele>21.91</ele>
        <time>2014-05-04T15:46:03Z</time>
      </trkpt>
      <trkpt lat="48.96339" lon="2.07333">
        <ele>20.28</ele>
        <time>2014-05-04T15:46:08Z</time>
      </trkpt>
      <trkpt lat="48.96359" lon="2.07332">
        <ele>20.23</ele>
        <time>2014-05-04T15:46:12Z</time>
      </trkpt>
      <trkpt lat="48.96377" lon="2.07338">
        <ele>22.17</ele>
        <time>2014-05-04T15:46:16Z</time>
      </trkpt>
      <trkpt lat="48.96395" lon="2.0734">
        <ele>20.85</ele>
        <time>2014-05-04T15:46:20Z</time>
      </trkpt>
      <trkpt lat="48.96414" lon="2.07338">
        <ele>20.81</ele>
        <time>2014-05-04T15:46:25Z</time>
      </trkpt>
      <trkpt lat="48.96435" lon="2.07344">
        <ele>20.16</ele>
        <time>2014-05-04T15:46:31Z</time>
      </trkpt>
      <trkpt lat="48.96452" lon="2.0736">
        <ele>20.2</ele>
        <time>2014-05-04T15:46:36Z</time>
      </trkpt>
      <trkpt lat="48.96465" lon="2.07384">
        <ele>20.92</ele>
        <time>2014-05-04T15:46:41Z</time>
      </trkpt>
      <trkpt lat="48.96483" lon="2.07401">
        <ele>20.52</ele>
        <time>2014-05-04T15:46:47Z</time>
      </trkpt>
      <trkpt lat="48.96502" lon="2.0741">
        <ele>20.31</ele>
        <time>2014-05-04T15:46:51Z</time>
      </trkpt>
      <trkpt lat="48.96515" lon="2.0743">
        <ele>21.11</ele>
        <time>2014-05-04T15:46:57Z</time>
      </trkpt>
      <trkpt lat="48.96529" lon="2.07448">
        <ele>21.63</ele>
        <time>2014-05-04T15:47:02Z</time>
      </trkpt>
      <trkpt lat="48.96547" lon="2.07459">
        <ele>23.24</ele>
        <time>2014-05-04T15:47:07Z</time>
      </trkpt>
      <trkpt lat="48.96563" lon="2.0748">
        <ele>24.26</ele>
        <time>2014-05-04T15:47:13Z</time>
      </trkpt>
      <trkpt lat="48.96578" lon="2.07502">
        <ele>22.5</ele>
        <time>2014-05-04T15:47:19Z</time>
      </trkpt>
      <trkpt lat="48.96594" lon="2.07518">
        <ele>22.33</ele>
        <time>2014-05-04T15:47:24Z</time>
      </trkpt>
      <trkpt lat="48.9661" lon="2.07533">
        <ele>23.27</ele>
        <time>2014-05-04T15:47:29Z</time>
      </trkpt>
      <trkpt lat="48.96626" lon="2.07545">
        <ele>27.05</ele>
        <time>2014-05-04T15:47:34Z</time>
      </trkpt>
      <trkpt lat="48.96643" lon="2.07557">
        <ele>28.66</ele>
        <time>2014-05-04T15:47:39Z</time>
      </trkpt>
      <trkpt lat="48.96661" lon="2.07567">
        <ele>27.37</ele>
        <time>2014-05-04T15:47:44Z</time>
      </trkpt>
      <trkpt lat="48.96679" lon="2.0758">
        <ele>25.2</ele>
        <time>2014-05-04T15:47:49Z</time>
      </trkpt>
      <trkpt lat="48.96699" lon="2.07591">
        <ele>26.14</ele>
        <time>2014-05-04T15:47:54Z</time>
      </trkpt>
      <trkpt lat="48.96718" lon="2.07604">
        <ele>25.57</ele>
        <time>2014-05-04T15:48:00Z</time>
      </trkpt>
      <trkpt lat="48.96736" lon="2.07619">
        <ele>27.8</ele>
        <time>2014-05-04T15:48:06Z</time>
      </trkpt>
      <trkpt lat="48.96749" lon="2.0764">
        <ele>25.93</ele>
        <time>2014-05-04T15:48:12Z</time>
      </trkpt>
      <trkpt lat="48.96766" lon="2.07657">
        <ele>23.37</ele>
        <time>2014-05-04T15:48:18Z</time>
      </trkpt>
      <trkpt lat="48.96783" lon="2.07671">
        <ele>22.83</ele>
        <time>2014-05-04T15:48:23Z</time>
      </trkpt>
      <trkpt lat="48.968" lon="2.07687">
        <ele>19.78</ele>
        <time>2014-05-04T15:48:28Z</time>
      </trkpt>
      <trkpt lat="48.96816" lon="2.07704">
        <ele>19.94</ele>
        <time>2014-05-04T15:48:33Z</time>
      </trkpt>
      <trkpt lat="48.96834" lon="2.07718">
        <ele>21.57</ele>
        <time>2014-05-04T15:48:38Z</time>
      </trkpt>
      <trkpt lat="48.96854" lon="2.0773">
        <ele>21.27</ele>
        <time>2014-05-04T15:48:43Z</time>
      </trkpt>
      <trkpt lat="48.96874" lon="2.07734">
        <ele>21.8</ele>
        <time>2014-05-04T15:48:48Z</time>
      </trkpt>
      <trkpt lat="48.96892" lon="2.07731">
        <ele>22.09</ele>
        <time>2014-05-04T15:48:53Z</time>
      </trkpt>
      <trkpt lat="48.96911" lon="2.07726">
        <ele>22.78</ele>
        <time>2014-05-04T15:48:59Z</time>
      </trkpt>
      <trkpt lat="48.96925" lon="2.07745">
        <ele>21.08</ele>
        <time>2014-05-04T15:49:07Z</time>
      </trkpt>
      <trkpt lat="48.96943" lon="2.07741">
        <ele>20.53</ele>
        <time>2014-05-04T15:49:13Z</time>
      </trkpt>
      <trkpt lat="48.96964" lon="2.0774">
        <ele>19.38</ele>
        <time>2014-05-04T15:49:20Z</time>
      </trkpt>
      <trkpt lat="48.96982" lon="2.07734">
        <ele>24</ele>
        <time>2014-05-04T15:49:26Z</time>
      </trkpt>
      <trkpt lat="48.97001" lon="2.07732">
        <ele>24.93</ele>
        <time>2014-05-04T15:49:33Z</time>
      </trkpt>
    </trkseg>
  </trk>
</gpx>